<?xml version="1.0" encoding="UTF-8" standalone="no" ?>
<gpx xmlns="http://www.topografix.com/GPX/1/1" xmlns:xsi="http://www.w3.org/2001/XMLSchema-instance" xsi:schemaLocation="http://www.topografix.com/GPX/1/1 http://www.topografix.com/GPX/1/1/gpx.xsd" version="1.1" creator="VisuGPX - https://www.visugpx.com">
  <metadata>
    <name>Méounes</name>
    <desc><![CDATA[boucle via la vallon d\'Agnis]]></desc>
  </metadata>
  <trk>
    <name><![CDATA[2015-05-17 Méounes]]></name>
    <trkseg>
      <trkpt lat="43.28089" lon="5.96679">
        <ele>285.51171875</ele>
        <time>2015-05-17T07:04:48Z</time>
      </trkpt>
      <trkpt lat="43.28089" lon="5.96675">
        <ele>285.69140625</ele>
        <time>2015-05-17T07:05:01Z</time>
      </trkpt>
      <trkpt lat="43.2809" lon="5.96676">
        <ele>285.796875</ele>
        <time>2015-05-17T07:05:02Z</time>
      </trkpt>
      <trkpt lat="43.28093" lon="5.96682">
        <ele>286.12890625</ele>
        <time>2015-05-17T07:05:19Z</time>
      </trkpt>
      <trkpt lat="43.28093" lon="5.96683">
        <ele>286.09375</ele>
        <time>2015-05-17T07:05:32Z</time>
      </trkpt>
      <trkpt lat="43.28094" lon="5.9668">
        <ele>286.5625</ele>
        <time>2015-05-17T07:05:37Z</time>
      </trkpt>
      <trkpt lat="43.28093" lon="5.96673">
        <ele>286.85546875</ele>
        <time>2015-05-17T07:05:41Z</time>
      </trkpt>
      <trkpt lat="43.28093" lon="5.96669">
        <ele>287.07421875</ele>
        <time>2015-05-17T07:05:43Z</time>
      </trkpt>
      <trkpt lat="43.28088" lon="5.96666">
        <ele>285.703125</ele>
        <time>2015-05-17T07:05:49Z</time>
      </trkpt>
      <trkpt lat="43.28089" lon="5.96669">
        <ele>286.0078125</ele>
        <time>2015-05-17T07:05:50Z</time>
      </trkpt>
      <trkpt lat="43.28092" lon="5.96674">
        <ele>286.41015625</ele>
        <time>2015-05-17T07:05:51Z</time>
      </trkpt>
      <trkpt lat="43.281" lon="5.96689">
        <ele>287.0078125</ele>
        <time>2015-05-17T07:05:58Z</time>
      </trkpt>
      <trkpt lat="43.28096" lon="5.96691">
        <ele>285.921875</ele>
        <time>2015-05-17T07:06:12Z</time>
      </trkpt>
      <trkpt lat="43.28094" lon="5.96692">
        <ele>285.5859375</ele>
        <time>2015-05-17T07:06:13Z</time>
      </trkpt>
      <trkpt lat="43.28091" lon="5.96683">
        <ele>285.64453125</ele>
        <time>2015-05-17T07:06:16Z</time>
      </trkpt>
      <trkpt lat="43.28091" lon="5.96677">
        <ele>285.96484375</ele>
        <time>2015-05-17T07:06:17Z</time>
      </trkpt>
      <trkpt lat="43.2809" lon="5.96673">
        <ele>285.93359375</ele>
        <time>2015-05-17T07:06:18Z</time>
      </trkpt>
      <trkpt lat="43.28087" lon="5.96669">
        <ele>285.4453125</ele>
        <time>2015-05-17T07:06:19Z</time>
      </trkpt>
      <trkpt lat="43.28084" lon="5.96664">
        <ele>284.92578125</ele>
        <time>2015-05-17T07:06:20Z</time>
      </trkpt>
      <trkpt lat="43.28081" lon="5.96659">
        <ele>284.85546875</ele>
        <time>2015-05-17T07:06:21Z</time>
      </trkpt>
      <trkpt lat="43.28079" lon="5.96654">
        <ele>284.75390625</ele>
        <time>2015-05-17T07:06:22Z</time>
      </trkpt>
      <trkpt lat="43.28068" lon="5.96627">
        <ele>283.76171875</ele>
        <time>2015-05-17T07:06:28Z</time>
      </trkpt>
      <trkpt lat="43.28066" lon="5.96626">
        <ele>283.421875</ele>
        <time>2015-05-17T07:06:29Z</time>
      </trkpt>
      <trkpt lat="43.28064" lon="5.96627">
        <ele>283.078125</ele>
        <time>2015-05-17T07:06:30Z</time>
      </trkpt>
      <trkpt lat="43.28062" lon="5.96626">
        <ele>282.72265625</ele>
        <time>2015-05-17T07:06:31Z</time>
      </trkpt>
      <trkpt lat="43.2806" lon="5.96624">
        <ele>282.421875</ele>
        <time>2015-05-17T07:06:32Z</time>
      </trkpt>
      <trkpt lat="43.28058" lon="5.9662">
        <ele>282.16796875</ele>
        <time>2015-05-17T07:06:33Z</time>
      </trkpt>
      <trkpt lat="43.28057" lon="5.96616">
        <ele>282.15234375</ele>
        <time>2015-05-17T07:06:34Z</time>
      </trkpt>
      <trkpt lat="43.28041" lon="5.96561">
        <ele>283.9453125</ele>
        <time>2015-05-17T07:06:49Z</time>
      </trkpt>
      <trkpt lat="43.28036" lon="5.96501">
        <ele>286.32421875</ele>
        <time>2015-05-17T07:07:02Z</time>
      </trkpt>
      <trkpt lat="43.28025" lon="5.9643">
        <ele>292.69921875</ele>
        <time>2015-05-17T07:07:19Z</time>
      </trkpt>
      <trkpt lat="43.28019" lon="5.96411">
        <ele>294.6328125</ele>
        <time>2015-05-17T07:07:25Z</time>
      </trkpt>
      <trkpt lat="43.28018" lon="5.96414">
        <ele>294.21484375</ele>
        <time>2015-05-17T07:07:26Z</time>
      </trkpt>
      <trkpt lat="43.28018" lon="5.96418">
        <ele>293.81640625</ele>
        <time>2015-05-17T07:07:27Z</time>
      </trkpt>
      <trkpt lat="43.2802" lon="5.96423">
        <ele>293.34375</ele>
        <time>2015-05-17T07:07:28Z</time>
      </trkpt>
      <trkpt lat="43.28022" lon="5.96428">
        <ele>292.8671875</ele>
        <time>2015-05-17T07:07:29Z</time>
      </trkpt>
      <trkpt lat="43.28024" lon="5.96429">
        <ele>292.75</ele>
        <time>2015-05-17T07:07:30Z</time>
      </trkpt>
      <trkpt lat="43.28026" lon="5.96425">
        <ele>293.37109375</ele>
        <time>2015-05-17T07:07:38Z</time>
      </trkpt>
      <trkpt lat="43.28024" lon="5.96419">
        <ele>294.0859375</ele>
        <time>2015-05-17T07:07:41Z</time>
      </trkpt>
      <trkpt lat="43.28023" lon="5.96415">
        <ele>294.41796875</ele>
        <time>2015-05-17T07:07:42Z</time>
      </trkpt>
      <trkpt lat="43.28022" lon="5.96412">
        <ele>294.8671875</ele>
        <time>2015-05-17T07:07:43Z</time>
      </trkpt>
      <trkpt lat="43.28018" lon="5.96397">
        <ele>296.31640625</ele>
        <time>2015-05-17T07:07:46Z</time>
      </trkpt>
      <trkpt lat="43.28017" lon="5.96392">
        <ele>296.609375</ele>
        <time>2015-05-17T07:07:47Z</time>
      </trkpt>
      <trkpt lat="43.27994" lon="5.9631">
        <ele>297.7421875</ele>
        <time>2015-05-17T07:08:00Z</time>
      </trkpt>
      <trkpt lat="43.2797" lon="5.96224">
        <ele>297.640625</ele>
        <time>2015-05-17T07:08:14Z</time>
      </trkpt>
      <trkpt lat="43.27953" lon="5.96162">
        <ele>299.91015625</ele>
        <time>2015-05-17T07:08:29Z</time>
      </trkpt>
      <trkpt lat="43.27941" lon="5.96095">
        <ele>301.47265625</ele>
        <time>2015-05-17T07:08:45Z</time>
      </trkpt>
      <trkpt lat="43.27945" lon="5.9604">
        <ele>305.015625</ele>
        <time>2015-05-17T07:08:57Z</time>
      </trkpt>
      <trkpt lat="43.27952" lon="5.95974">
        <ele>310.81640625</ele>
        <time>2015-05-17T07:09:12Z</time>
      </trkpt>
      <trkpt lat="43.2794" lon="5.95912">
        <ele>305.9375</ele>
        <time>2015-05-17T07:09:27Z</time>
      </trkpt>
      <trkpt lat="43.27916" lon="5.95861">
        <ele>299.29296875</ele>
        <time>2015-05-17T07:09:39Z</time>
      </trkpt>
      <trkpt lat="43.27915" lon="5.95856">
        <ele>300.06640625</ele>
        <time>2015-05-17T07:09:40Z</time>
      </trkpt>
      <trkpt lat="43.27914" lon="5.95851">
        <ele>300.76953125</ele>
        <time>2015-05-17T07:09:41Z</time>
      </trkpt>
      <trkpt lat="43.27914" lon="5.95846">
        <ele>301.3984375</ele>
        <time>2015-05-17T07:09:42Z</time>
      </trkpt>
      <trkpt lat="43.27914" lon="5.95841">
        <ele>301.95703125</ele>
        <time>2015-05-17T07:09:43Z</time>
      </trkpt>
      <trkpt lat="43.27914" lon="5.95836">
        <ele>302.515625</ele>
        <time>2015-05-17T07:09:44Z</time>
      </trkpt>
      <trkpt lat="43.27928" lon="5.95765">
        <ele>310.71484375</ele>
        <time>2015-05-17T07:10:00Z</time>
      </trkpt>
      <trkpt lat="43.27941" lon="5.95698">
        <ele>305.953125</ele>
        <time>2015-05-17T07:10:15Z</time>
      </trkpt>
      <trkpt lat="43.27953" lon="5.95623">
        <ele>306.1640625</ele>
        <time>2015-05-17T07:10:32Z</time>
      </trkpt>
      <trkpt lat="43.27952" lon="5.95552">
        <ele>310.71484375</ele>
        <time>2015-05-17T07:10:47Z</time>
      </trkpt>
      <trkpt lat="43.27957" lon="5.95487">
        <ele>313.3984375</ele>
        <time>2015-05-17T07:11:02Z</time>
      </trkpt>
      <trkpt lat="43.2797" lon="5.95427">
        <ele>313.171875</ele>
        <time>2015-05-17T07:11:16Z</time>
      </trkpt>
      <trkpt lat="43.27961" lon="5.95358">
        <ele>314.63671875</ele>
        <time>2015-05-17T07:11:31Z</time>
      </trkpt>
      <trkpt lat="43.27945" lon="5.95301">
        <ele>315.0390625</ele>
        <time>2015-05-17T07:11:45Z</time>
      </trkpt>
      <trkpt lat="43.27948" lon="5.95256">
        <ele>315.91796875</ele>
        <time>2015-05-17T07:11:58Z</time>
      </trkpt>
      <trkpt lat="43.27947" lon="5.95205">
        <ele>319.15234375</ele>
        <time>2015-05-17T07:12:10Z</time>
      </trkpt>
      <trkpt lat="43.27926" lon="5.95138">
        <ele>319.80859375</ele>
        <time>2015-05-17T07:12:25Z</time>
      </trkpt>
      <trkpt lat="43.27912" lon="5.95086">
        <ele>319.47265625</ele>
        <time>2015-05-17T07:12:38Z</time>
      </trkpt>
      <trkpt lat="43.27904" lon="5.95014">
        <ele>320.93359375</ele>
        <time>2015-05-17T07:12:54Z</time>
      </trkpt>
      <trkpt lat="43.27896" lon="5.94956">
        <ele>321.296875</ele>
        <time>2015-05-17T07:13:09Z</time>
      </trkpt>
      <trkpt lat="43.27904" lon="5.94946">
        <ele>321.90625</ele>
        <time>2015-05-17T07:13:14Z</time>
      </trkpt>
      <trkpt lat="43.27908" lon="5.94948">
        <ele>322.15234375</ele>
        <time>2015-05-17T07:13:15Z</time>
      </trkpt>
      <trkpt lat="43.27912" lon="5.9495">
        <ele>322.3515625</ele>
        <time>2015-05-17T07:13:16Z</time>
      </trkpt>
      <trkpt lat="43.27916" lon="5.94953">
        <ele>322.46875</ele>
        <time>2015-05-17T07:13:17Z</time>
      </trkpt>
      <trkpt lat="43.27918" lon="5.94955">
        <ele>322.5546875</ele>
        <time>2015-05-17T07:13:18Z</time>
      </trkpt>
      <trkpt lat="43.2792" lon="5.94956">
        <ele>322.93359375</ele>
        <time>2015-05-17T07:13:19Z</time>
      </trkpt>
      <trkpt lat="43.27922" lon="5.94957">
        <ele>323.31640625</ele>
        <time>2015-05-17T07:13:20Z</time>
      </trkpt>
      <trkpt lat="43.27941" lon="5.94965">
        <ele>327.171875</ele>
        <time>2015-05-17T07:13:33Z</time>
      </trkpt>
      <trkpt lat="43.27943" lon="5.94964">
        <ele>327.46484375</ele>
        <time>2015-05-17T07:13:34Z</time>
      </trkpt>
      <trkpt lat="43.27944" lon="5.94963">
        <ele>327.765625</ele>
        <time>2015-05-17T07:13:35Z</time>
      </trkpt>
      <trkpt lat="43.27952" lon="5.94952">
        <ele>330.015625</ele>
        <time>2015-05-17T07:13:43Z</time>
      </trkpt>
      <trkpt lat="43.27952" lon="5.9495">
        <ele>330.20703125</ele>
        <time>2015-05-17T07:13:44Z</time>
      </trkpt>
      <trkpt lat="43.27956" lon="5.9494">
        <ele>331.578125</ele>
        <time>2015-05-17T07:13:50Z</time>
      </trkpt>
      <trkpt lat="43.27956" lon="5.94938">
        <ele>331.7734375</ele>
        <time>2015-05-17T07:13:51Z</time>
      </trkpt>
      <trkpt lat="43.27957" lon="5.94937">
        <ele>331.9375</ele>
        <time>2015-05-17T07:13:52Z</time>
      </trkpt>
      <trkpt lat="43.27963" lon="5.94903">
        <ele>335.1640625</ele>
        <time>2015-05-17T07:14:09Z</time>
      </trkpt>
      <trkpt lat="43.27971" lon="5.94876">
        <ele>338.40234375</ele>
        <time>2015-05-17T07:14:24Z</time>
      </trkpt>
      <trkpt lat="43.27972" lon="5.94873">
        <ele>338.71875</ele>
        <time>2015-05-17T07:14:26Z</time>
      </trkpt>
      <trkpt lat="43.27972" lon="5.94871">
        <ele>338.87890625</ele>
        <time>2015-05-17T07:14:27Z</time>
      </trkpt>
      <trkpt lat="43.27973" lon="5.94869">
        <ele>339.140625</ele>
        <time>2015-05-17T07:14:28Z</time>
      </trkpt>
      <trkpt lat="43.27973" lon="5.94867">
        <ele>339.43359375</ele>
        <time>2015-05-17T07:14:29Z</time>
      </trkpt>
      <trkpt lat="43.27974" lon="5.94865">
        <ele>339.69140625</ele>
        <time>2015-05-17T07:14:30Z</time>
      </trkpt>
      <trkpt lat="43.27981" lon="5.9485">
        <ele>343.625</ele>
        <time>2015-05-17T07:14:39Z</time>
      </trkpt>
      <trkpt lat="43.27986" lon="5.94847">
        <ele>346.55859375</ele>
        <time>2015-05-17T07:14:43Z</time>
      </trkpt>
      <trkpt lat="43.27988" lon="5.94847">
        <ele>347.390625</ele>
        <time>2015-05-17T07:14:44Z</time>
      </trkpt>
      <trkpt lat="43.27989" lon="5.94848">
        <ele>348.03515625</ele>
        <time>2015-05-17T07:14:45Z</time>
      </trkpt>
      <trkpt lat="43.2799" lon="5.94849">
        <ele>348.59765625</ele>
        <time>2015-05-17T07:14:46Z</time>
      </trkpt>
      <trkpt lat="43.27991" lon="5.9485">
        <ele>349.19921875</ele>
        <time>2015-05-17T07:14:47Z</time>
      </trkpt>
      <trkpt lat="43.27992" lon="5.94852">
        <ele>349.69921875</ele>
        <time>2015-05-17T07:14:48Z</time>
      </trkpt>
      <trkpt lat="43.27993" lon="5.94853">
        <ele>350.16015625</ele>
        <time>2015-05-17T07:14:49Z</time>
      </trkpt>
      <trkpt lat="43.27994" lon="5.94855">
        <ele>350.625</ele>
        <time>2015-05-17T07:14:50Z</time>
      </trkpt>
      <trkpt lat="43.28" lon="5.94892">
        <ele>352.1484375</ele>
        <time>2015-05-17T07:15:07Z</time>
      </trkpt>
      <trkpt lat="43.28001" lon="5.94898">
        <ele>352.296875</ele>
        <time>2015-05-17T07:15:10Z</time>
      </trkpt>
      <trkpt lat="43.28009" lon="5.94941">
        <ele>355.14453125</ele>
        <time>2015-05-17T07:15:29Z</time>
      </trkpt>
      <trkpt lat="43.28022" lon="5.94989">
        <ele>360.29296875</ele>
        <time>2015-05-17T07:15:48Z</time>
      </trkpt>
      <trkpt lat="43.28031" lon="5.95026">
        <ele>363.1484375</ele>
        <time>2015-05-17T07:16:02Z</time>
      </trkpt>
      <trkpt lat="43.28037" lon="5.95057">
        <ele>363.02734375</ele>
        <time>2015-05-17T07:16:16Z</time>
      </trkpt>
      <trkpt lat="43.28046" lon="5.95089">
        <ele>364.609375</ele>
        <time>2015-05-17T07:16:32Z</time>
      </trkpt>
      <trkpt lat="43.28046" lon="5.95091">
        <ele>364.42578125</ele>
        <time>2015-05-17T07:16:33Z</time>
      </trkpt>
      <trkpt lat="43.28046" lon="5.95093">
        <ele>364.203125</ele>
        <time>2015-05-17T07:16:34Z</time>
      </trkpt>
      <trkpt lat="43.2805" lon="5.95123">
        <ele>363.95703125</ele>
        <time>2015-05-17T07:16:49Z</time>
      </trkpt>
      <trkpt lat="43.2805" lon="5.95153">
        <ele>362</ele>
        <time>2015-05-17T07:17:03Z</time>
      </trkpt>
      <trkpt lat="43.28058" lon="5.95178">
        <ele>364.42578125</ele>
        <time>2015-05-17T07:17:16Z</time>
      </trkpt>
      <trkpt lat="43.28072" lon="5.95204">
        <ele>368.7578125</ele>
        <time>2015-05-17T07:17:32Z</time>
      </trkpt>
      <trkpt lat="43.28074" lon="5.9521">
        <ele>369.16015625</ele>
        <time>2015-05-17T07:17:36Z</time>
      </trkpt>
      <trkpt lat="43.28082" lon="5.95245">
        <ele>370.84765625</ele>
        <time>2015-05-17T07:17:52Z</time>
      </trkpt>
      <trkpt lat="43.28086" lon="5.95283">
        <ele>371.23046875</ele>
        <time>2015-05-17T07:18:10Z</time>
      </trkpt>
      <trkpt lat="43.28095" lon="5.95309">
        <ele>373.5859375</ele>
        <time>2015-05-17T07:18:24Z</time>
      </trkpt>
      <trkpt lat="43.281" lon="5.9534">
        <ele>375.94921875</ele>
        <time>2015-05-17T07:18:39Z</time>
      </trkpt>
      <trkpt lat="43.281" lon="5.95342">
        <ele>376.10546875</ele>
        <time>2015-05-17T07:18:40Z</time>
      </trkpt>
      <trkpt lat="43.28101" lon="5.95344">
        <ele>376.2890625</ele>
        <time>2015-05-17T07:18:41Z</time>
      </trkpt>
      <trkpt lat="43.28101" lon="5.95345">
        <ele>376.328125</ele>
        <time>2015-05-17T07:18:42Z</time>
      </trkpt>
      <trkpt lat="43.28101" lon="5.95347">
        <ele>376.25390625</ele>
        <time>2015-05-17T07:18:43Z</time>
      </trkpt>
      <trkpt lat="43.281" lon="5.95349">
        <ele>376.19921875</ele>
        <time>2015-05-17T07:18:44Z</time>
      </trkpt>
      <trkpt lat="43.281" lon="5.95351">
        <ele>376.0625</ele>
        <time>2015-05-17T07:18:45Z</time>
      </trkpt>
      <trkpt lat="43.28099" lon="5.95352">
        <ele>375.8515625</ele>
        <time>2015-05-17T07:18:46Z</time>
      </trkpt>
      <trkpt lat="43.28098" lon="5.95354">
        <ele>375.65625</ele>
        <time>2015-05-17T07:18:47Z</time>
      </trkpt>
      <trkpt lat="43.28103" lon="5.95379">
        <ele>377.85546875</ele>
        <time>2015-05-17T07:19:01Z</time>
      </trkpt>
      <trkpt lat="43.28114" lon="5.95409">
        <ele>381.9765625</ele>
        <time>2015-05-17T07:19:17Z</time>
      </trkpt>
      <trkpt lat="43.28107" lon="5.95441">
        <ele>381.09375</ele>
        <time>2015-05-17T07:19:32Z</time>
      </trkpt>
      <trkpt lat="43.2811" lon="5.9548">
        <ele>383.09765625</ele>
        <time>2015-05-17T07:19:49Z</time>
      </trkpt>
      <trkpt lat="43.28119" lon="5.95523">
        <ele>385.4765625</ele>
        <time>2015-05-17T07:20:09Z</time>
      </trkpt>
      <trkpt lat="43.28129" lon="5.95561">
        <ele>388.6875</ele>
        <time>2015-05-17T07:20:27Z</time>
      </trkpt>
      <trkpt lat="43.28136" lon="5.95592">
        <ele>391.4375</ele>
        <time>2015-05-17T07:20:42Z</time>
      </trkpt>
      <trkpt lat="43.28137" lon="5.95609">
        <ele>392.203125</ele>
        <time>2015-05-17T07:20:50Z</time>
      </trkpt>
      <trkpt lat="43.28137" lon="5.95611">
        <ele>392.3515625</ele>
        <time>2015-05-17T07:20:51Z</time>
      </trkpt>
      <trkpt lat="43.28137" lon="5.95613">
        <ele>392.55859375</ele>
        <time>2015-05-17T07:20:52Z</time>
      </trkpt>
      <trkpt lat="43.28138" lon="5.9565">
        <ele>395.203125</ele>
        <time>2015-05-17T07:21:08Z</time>
      </trkpt>
      <trkpt lat="43.28133" lon="5.95678">
        <ele>396.1015625</ele>
        <time>2015-05-17T07:21:21Z</time>
      </trkpt>
      <trkpt lat="43.28133" lon="5.9568">
        <ele>396.19140625</ele>
        <time>2015-05-17T07:21:22Z</time>
      </trkpt>
      <trkpt lat="43.28133" lon="5.95682">
        <ele>396.38671875</ele>
        <time>2015-05-17T07:21:23Z</time>
      </trkpt>
      <trkpt lat="43.28134" lon="5.95684">
        <ele>396.71484375</ele>
        <time>2015-05-17T07:21:24Z</time>
      </trkpt>
      <trkpt lat="43.28135" lon="5.95686">
        <ele>397.09765625</ele>
        <time>2015-05-17T07:21:25Z</time>
      </trkpt>
      <trkpt lat="43.28136" lon="5.95687">
        <ele>397.49609375</ele>
        <time>2015-05-17T07:21:26Z</time>
      </trkpt>
      <trkpt lat="43.28137" lon="5.95689">
        <ele>397.8125</ele>
        <time>2015-05-17T07:21:27Z</time>
      </trkpt>
      <trkpt lat="43.28138" lon="5.9569">
        <ele>398.18359375</ele>
        <time>2015-05-17T07:21:28Z</time>
      </trkpt>
      <trkpt lat="43.2814" lon="5.9569">
        <ele>398.52734375</ele>
        <time>2015-05-17T07:21:29Z</time>
      </trkpt>
      <trkpt lat="43.28141" lon="5.9569">
        <ele>398.85546875</ele>
        <time>2015-05-17T07:21:30Z</time>
      </trkpt>
      <trkpt lat="43.28142" lon="5.95688">
        <ele>399.203125</ele>
        <time>2015-05-17T07:21:31Z</time>
      </trkpt>
      <trkpt lat="43.28144" lon="5.95686">
        <ele>399.52734375</ele>
        <time>2015-05-17T07:21:32Z</time>
      </trkpt>
      <trkpt lat="43.28145" lon="5.95684">
        <ele>399.75</ele>
        <time>2015-05-17T07:21:33Z</time>
      </trkpt>
      <trkpt lat="43.28146" lon="5.95682">
        <ele>399.8359375</ele>
        <time>2015-05-17T07:21:34Z</time>
      </trkpt>
      <trkpt lat="43.28147" lon="5.95679">
        <ele>399.8671875</ele>
        <time>2015-05-17T07:21:35Z</time>
      </trkpt>
      <trkpt lat="43.28162" lon="5.95631">
        <ele>400.0625</ele>
        <time>2015-05-17T07:21:47Z</time>
      </trkpt>
      <trkpt lat="43.28175" lon="5.9559">
        <ele>401.12890625</ele>
        <time>2015-05-17T07:22:00Z</time>
      </trkpt>
      <trkpt lat="43.28181" lon="5.95545">
        <ele>401.265625</ele>
        <time>2015-05-17T07:22:14Z</time>
      </trkpt>
      <trkpt lat="43.28187" lon="5.95504">
        <ele>402.1953125</ele>
        <time>2015-05-17T07:22:28Z</time>
      </trkpt>
      <trkpt lat="43.282" lon="5.95452">
        <ele>404.51171875</ele>
        <time>2015-05-17T07:22:44Z</time>
      </trkpt>
      <trkpt lat="43.28206" lon="5.95398">
        <ele>406.2890625</ele>
        <time>2015-05-17T07:22:59Z</time>
      </trkpt>
      <trkpt lat="43.28204" lon="5.95332">
        <ele>405.61328125</ele>
        <time>2015-05-17T07:23:15Z</time>
      </trkpt>
      <trkpt lat="43.28201" lon="5.95289">
        <ele>405.8828125</ele>
        <time>2015-05-17T07:23:30Z</time>
      </trkpt>
      <trkpt lat="43.28197" lon="5.95257">
        <ele>405.8515625</ele>
        <time>2015-05-17T07:23:43Z</time>
      </trkpt>
      <trkpt lat="43.28196" lon="5.95228">
        <ele>407.46484375</ele>
        <time>2015-05-17T07:23:57Z</time>
      </trkpt>
      <trkpt lat="43.282" lon="5.95194">
        <ele>409.70703125</ele>
        <time>2015-05-17T07:24:14Z</time>
      </trkpt>
      <trkpt lat="43.28207" lon="5.95159">
        <ele>410.61328125</ele>
        <time>2015-05-17T07:24:31Z</time>
      </trkpt>
      <trkpt lat="43.28222" lon="5.95139">
        <ele>412.65625</ele>
        <time>2015-05-17T07:24:45Z</time>
      </trkpt>
      <trkpt lat="43.28242" lon="5.95113">
        <ele>413.74609375</ele>
        <time>2015-05-17T07:25:03Z</time>
      </trkpt>
      <trkpt lat="43.2826" lon="5.951">
        <ele>413.3515625</ele>
        <time>2015-05-17T07:25:14Z</time>
      </trkpt>
      <trkpt lat="43.28287" lon="5.95104">
        <ele>412.27734375</ele>
        <time>2015-05-17T07:25:25Z</time>
      </trkpt>
      <trkpt lat="43.28317" lon="5.95115">
        <ele>411.62890625</ele>
        <time>2015-05-17T07:25:34Z</time>
      </trkpt>
      <trkpt lat="43.28321" lon="5.95119">
        <ele>411.96484375</ele>
        <time>2015-05-17T07:25:35Z</time>
      </trkpt>
      <trkpt lat="43.28325" lon="5.95122">
        <ele>412.3515625</ele>
        <time>2015-05-17T07:25:36Z</time>
      </trkpt>
      <trkpt lat="43.28361" lon="5.95155">
        <ele>418.40234375</ele>
        <time>2015-05-17T07:25:47Z</time>
      </trkpt>
      <trkpt lat="43.28381" lon="5.95165">
        <ele>421.98046875</ele>
        <time>2015-05-17T07:25:55Z</time>
      </trkpt>
      <trkpt lat="43.28383" lon="5.95165">
        <ele>422.23046875</ele>
        <time>2015-05-17T07:25:56Z</time>
      </trkpt>
      <trkpt lat="43.28385" lon="5.95165">
        <ele>422.45703125</ele>
        <time>2015-05-17T07:25:57Z</time>
      </trkpt>
      <trkpt lat="43.28392" lon="5.95164">
        <ele>422.9921875</ele>
        <time>2015-05-17T07:26:02Z</time>
      </trkpt>
      <trkpt lat="43.28412" lon="5.95131">
        <ele>421</ele>
        <time>2015-05-17T07:26:17Z</time>
      </trkpt>
      <trkpt lat="43.28425" lon="5.95103">
        <ele>420.24609375</ele>
        <time>2015-05-17T07:26:32Z</time>
      </trkpt>
      <trkpt lat="43.28447" lon="5.95084">
        <ele>421.02734375</ele>
        <time>2015-05-17T07:26:45Z</time>
      </trkpt>
      <trkpt lat="43.28456" lon="5.95071">
        <ele>419.87109375</ele>
        <time>2015-05-17T07:26:52Z</time>
      </trkpt>
      <trkpt lat="43.28487" lon="5.95065">
        <ele>417.48046875</ele>
        <time>2015-05-17T07:27:04Z</time>
      </trkpt>
      <trkpt lat="43.28516" lon="5.95067">
        <ele>416.1796875</ele>
        <time>2015-05-17T07:27:11Z</time>
      </trkpt>
      <trkpt lat="43.28522" lon="5.95066">
        <ele>416.02734375</ele>
        <time>2015-05-17T07:27:12Z</time>
      </trkpt>
      <trkpt lat="43.28528" lon="5.95064">
        <ele>415.77734375</ele>
        <time>2015-05-17T07:27:13Z</time>
      </trkpt>
      <trkpt lat="43.28534" lon="5.95062">
        <ele>415.4609375</ele>
        <time>2015-05-17T07:27:14Z</time>
      </trkpt>
      <trkpt lat="43.2854" lon="5.9506">
        <ele>415.08984375</ele>
        <time>2015-05-17T07:27:15Z</time>
      </trkpt>
      <trkpt lat="43.28557" lon="5.95052">
        <ele>414.015625</ele>
        <time>2015-05-17T07:27:18Z</time>
      </trkpt>
      <trkpt lat="43.28561" lon="5.95049">
        <ele>413.97265625</ele>
        <time>2015-05-17T07:27:19Z</time>
      </trkpt>
      <trkpt lat="43.28574" lon="5.95039">
        <ele>413.67578125</ele>
        <time>2015-05-17T07:27:22Z</time>
      </trkpt>
      <trkpt lat="43.28578" lon="5.95037">
        <ele>413.53515625</ele>
        <time>2015-05-17T07:27:23Z</time>
      </trkpt>
      <trkpt lat="43.28581" lon="5.95035">
        <ele>413.38671875</ele>
        <time>2015-05-17T07:27:24Z</time>
      </trkpt>
      <trkpt lat="43.28585" lon="5.95033">
        <ele>413.23046875</ele>
        <time>2015-05-17T07:27:25Z</time>
      </trkpt>
      <trkpt lat="43.28589" lon="5.95031">
        <ele>413.4375</ele>
        <time>2015-05-17T07:27:26Z</time>
      </trkpt>
      <trkpt lat="43.28593" lon="5.95029">
        <ele>413.66015625</ele>
        <time>2015-05-17T07:27:27Z</time>
      </trkpt>
      <trkpt lat="43.28597" lon="5.95027">
        <ele>413.85546875</ele>
        <time>2015-05-17T07:27:28Z</time>
      </trkpt>
      <trkpt lat="43.286" lon="5.95024">
        <ele>414.0703125</ele>
        <time>2015-05-17T07:27:29Z</time>
      </trkpt>
      <trkpt lat="43.28603" lon="5.9502">
        <ele>414.2109375</ele>
        <time>2015-05-17T07:27:30Z</time>
      </trkpt>
      <trkpt lat="43.28631" lon="5.94977">
        <ele>415.44140625</ele>
        <time>2015-05-17T07:27:40Z</time>
      </trkpt>
      <trkpt lat="43.28648" lon="5.94971">
        <ele>416.55078125</ele>
        <time>2015-05-17T07:27:49Z</time>
      </trkpt>
      <trkpt lat="43.28668" lon="5.94972">
        <ele>417.97265625</ele>
        <time>2015-05-17T07:27:57Z</time>
      </trkpt>
      <trkpt lat="43.2867" lon="5.94971">
        <ele>418.109375</ele>
        <time>2015-05-17T07:27:58Z</time>
      </trkpt>
      <trkpt lat="43.28672" lon="5.9497">
        <ele>418.27734375</ele>
        <time>2015-05-17T07:27:59Z</time>
      </trkpt>
      <trkpt lat="43.28674" lon="5.94969">
        <ele>418.41015625</ele>
        <time>2015-05-17T07:28:00Z</time>
      </trkpt>
      <trkpt lat="43.28676" lon="5.94968">
        <ele>418.55859375</ele>
        <time>2015-05-17T07:28:01Z</time>
      </trkpt>
      <trkpt lat="43.28705" lon="5.94947">
        <ele>419.0859375</ele>
        <time>2015-05-17T07:28:13Z</time>
      </trkpt>
      <trkpt lat="43.28736" lon="5.94953">
        <ele>419.453125</ele>
        <time>2015-05-17T07:28:24Z</time>
      </trkpt>
      <trkpt lat="43.28739" lon="5.94952">
        <ele>419.53515625</ele>
        <time>2015-05-17T07:28:25Z</time>
      </trkpt>
      <trkpt lat="43.2874" lon="5.9495">
        <ele>419.6015625</ele>
        <time>2015-05-17T07:28:26Z</time>
      </trkpt>
      <trkpt lat="43.28741" lon="5.94948">
        <ele>419.640625</ele>
        <time>2015-05-17T07:28:27Z</time>
      </trkpt>
      <trkpt lat="43.28742" lon="5.94945">
        <ele>419.6640625</ele>
        <time>2015-05-17T07:28:28Z</time>
      </trkpt>
      <trkpt lat="43.28743" lon="5.94942">
        <ele>419.6875</ele>
        <time>2015-05-17T07:28:29Z</time>
      </trkpt>
      <trkpt lat="43.28757" lon="5.949">
        <ele>420.1953125</ele>
        <time>2015-05-17T07:28:41Z</time>
      </trkpt>
      <trkpt lat="43.28742" lon="5.94864">
        <ele>419.1015625</ele>
        <time>2015-05-17T07:28:52Z</time>
      </trkpt>
      <trkpt lat="43.28723" lon="5.94827">
        <ele>417.9765625</ele>
        <time>2015-05-17T07:29:02Z</time>
      </trkpt>
      <trkpt lat="43.28723" lon="5.94762">
        <ele>417.95703125</ele>
        <time>2015-05-17T07:29:15Z</time>
      </trkpt>
      <trkpt lat="43.28719" lon="5.94694">
        <ele>418.6328125</ele>
        <time>2015-05-17T07:29:29Z</time>
      </trkpt>
      <trkpt lat="43.28698" lon="5.94656">
        <ele>417.53125</ele>
        <time>2015-05-17T07:29:40Z</time>
      </trkpt>
      <trkpt lat="43.28691" lon="5.94643">
        <ele>417.4609375</ele>
        <time>2015-05-17T07:29:45Z</time>
      </trkpt>
      <trkpt lat="43.2869" lon="5.94639">
        <ele>417.55078125</ele>
        <time>2015-05-17T07:29:46Z</time>
      </trkpt>
      <trkpt lat="43.28689" lon="5.94634">
        <ele>417.66015625</ele>
        <time>2015-05-17T07:29:47Z</time>
      </trkpt>
      <trkpt lat="43.2869" lon="5.94629">
        <ele>417.84375</ele>
        <time>2015-05-17T07:29:48Z</time>
      </trkpt>
      <trkpt lat="43.2869" lon="5.94625">
        <ele>418.03125</ele>
        <time>2015-05-17T07:29:49Z</time>
      </trkpt>
      <trkpt lat="43.2869" lon="5.94591">
        <ele>418.6015625</ele>
        <time>2015-05-17T07:30:01Z</time>
      </trkpt>
      <trkpt lat="43.28691" lon="5.9458">
        <ele>418.72265625</ele>
        <time>2015-05-17T07:30:05Z</time>
      </trkpt>
      <trkpt lat="43.28692" lon="5.94578">
        <ele>418.86328125</ele>
        <time>2015-05-17T07:30:06Z</time>
      </trkpt>
      <trkpt lat="43.28693" lon="5.94576">
        <ele>419.00390625</ele>
        <time>2015-05-17T07:30:07Z</time>
      </trkpt>
      <trkpt lat="43.28694" lon="5.94575">
        <ele>419.12109375</ele>
        <time>2015-05-17T07:30:08Z</time>
      </trkpt>
      <trkpt lat="43.28694" lon="5.94568">
        <ele>419.37890625</ele>
        <time>2015-05-17T07:30:14Z</time>
      </trkpt>
      <trkpt lat="43.28694" lon="5.94555">
        <ele>419.83984375</ele>
        <time>2015-05-17T07:30:20Z</time>
      </trkpt>
      <trkpt lat="43.28694" lon="5.94553">
        <ele>419.9140625</ele>
        <time>2015-05-17T07:30:21Z</time>
      </trkpt>
      <trkpt lat="43.28696" lon="5.94524">
        <ele>420.92578125</ele>
        <time>2015-05-17T07:30:28Z</time>
      </trkpt>
      <trkpt lat="43.28697" lon="5.94505">
        <ele>420.30859375</ele>
        <time>2015-05-17T07:30:31Z</time>
      </trkpt>
      <trkpt lat="43.28697" lon="5.94493">
        <ele>419.86328125</ele>
        <time>2015-05-17T07:30:33Z</time>
      </trkpt>
      <trkpt lat="43.28696" lon="5.94486">
        <ele>419.5390625</ele>
        <time>2015-05-17T07:30:34Z</time>
      </trkpt>
      <trkpt lat="43.28695" lon="5.94479">
        <ele>419.234375</ele>
        <time>2015-05-17T07:30:35Z</time>
      </trkpt>
      <trkpt lat="43.28694" lon="5.94464">
        <ele>418.9140625</ele>
        <time>2015-05-17T07:30:37Z</time>
      </trkpt>
      <trkpt lat="43.28693" lon="5.94457">
        <ele>418.83203125</ele>
        <time>2015-05-17T07:30:38Z</time>
      </trkpt>
      <trkpt lat="43.28691" lon="5.9445">
        <ele>418.69921875</ele>
        <time>2015-05-17T07:30:39Z</time>
      </trkpt>
      <trkpt lat="43.28689" lon="5.94444">
        <ele>418.5234375</ele>
        <time>2015-05-17T07:30:40Z</time>
      </trkpt>
      <trkpt lat="43.28688" lon="5.94437">
        <ele>418.40625</ele>
        <time>2015-05-17T07:30:41Z</time>
      </trkpt>
      <trkpt lat="43.28685" lon="5.94428">
        <ele>418.1875</ele>
        <time>2015-05-17T07:30:43Z</time>
      </trkpt>
      <trkpt lat="43.28682" lon="5.94423">
        <ele>417.98828125</ele>
        <time>2015-05-17T07:30:45Z</time>
      </trkpt>
      <trkpt lat="43.28673" lon="5.94399">
        <ele>417.859375</ele>
        <time>2015-05-17T07:30:56Z</time>
      </trkpt>
      <trkpt lat="43.28674" lon="5.94385">
        <ele>418.296875</ele>
        <time>2015-05-17T07:31:02Z</time>
      </trkpt>
      <trkpt lat="43.28674" lon="5.94383">
        <ele>418.34375</ele>
        <time>2015-05-17T07:31:03Z</time>
      </trkpt>
      <trkpt lat="43.28672" lon="5.94381">
        <ele>418.37109375</ele>
        <time>2015-05-17T07:31:04Z</time>
      </trkpt>
      <trkpt lat="43.28666" lon="5.94361">
        <ele>418.86328125</ele>
        <time>2015-05-17T07:31:13Z</time>
      </trkpt>
      <trkpt lat="43.28666" lon="5.94359">
        <ele>418.93359375</ele>
        <time>2015-05-17T07:31:14Z</time>
      </trkpt>
      <trkpt lat="43.28667" lon="5.94357">
        <ele>418.97265625</ele>
        <time>2015-05-17T07:31:15Z</time>
      </trkpt>
      <trkpt lat="43.28671" lon="5.94349">
        <ele>419.03515625</ele>
        <time>2015-05-17T07:31:19Z</time>
      </trkpt>
      <trkpt lat="43.28671" lon="5.94347">
        <ele>419.046875</ele>
        <time>2015-05-17T07:31:20Z</time>
      </trkpt>
      <trkpt lat="43.28671" lon="5.94344">
        <ele>419.0625</ele>
        <time>2015-05-17T07:31:21Z</time>
      </trkpt>
      <trkpt lat="43.28671" lon="5.9433">
        <ele>419.19140625</ele>
        <time>2015-05-17T07:31:28Z</time>
      </trkpt>
      <trkpt lat="43.28671" lon="5.94328">
        <ele>419.27734375</ele>
        <time>2015-05-17T07:31:29Z</time>
      </trkpt>
      <trkpt lat="43.28672" lon="5.94326">
        <ele>419.37109375</ele>
        <time>2015-05-17T07:31:30Z</time>
      </trkpt>
      <trkpt lat="43.28673" lon="5.94323">
        <ele>419.53515625</ele>
        <time>2015-05-17T07:31:32Z</time>
      </trkpt>
      <trkpt lat="43.28674" lon="5.9432">
        <ele>419.65234375</ele>
        <time>2015-05-17T07:31:34Z</time>
      </trkpt>
      <trkpt lat="43.28656" lon="5.94287">
        <ele>420.6328125</ele>
        <time>2015-05-17T07:31:44Z</time>
      </trkpt>
      <trkpt lat="43.28648" lon="5.94246">
        <ele>421.10546875</ele>
        <time>2015-05-17T07:31:55Z</time>
      </trkpt>
      <trkpt lat="43.28642" lon="5.94221">
        <ele>422.00390625</ele>
        <time>2015-05-17T07:32:06Z</time>
      </trkpt>
      <trkpt lat="43.28642" lon="5.94219">
        <ele>422.09375</ele>
        <time>2015-05-17T07:32:07Z</time>
      </trkpt>
      <trkpt lat="43.28642" lon="5.94216">
        <ele>422.2109375</ele>
        <time>2015-05-17T07:32:08Z</time>
      </trkpt>
      <trkpt lat="43.28642" lon="5.94212">
        <ele>422.3359375</ele>
        <time>2015-05-17T07:32:09Z</time>
      </trkpt>
      <trkpt lat="43.28642" lon="5.94209">
        <ele>422.46484375</ele>
        <time>2015-05-17T07:32:10Z</time>
      </trkpt>
      <trkpt lat="43.28644" lon="5.94206">
        <ele>422.59765625</ele>
        <time>2015-05-17T07:32:11Z</time>
      </trkpt>
      <trkpt lat="43.28646" lon="5.94204">
        <ele>422.72265625</ele>
        <time>2015-05-17T07:32:12Z</time>
      </trkpt>
      <trkpt lat="43.28648" lon="5.94203">
        <ele>422.8203125</ele>
        <time>2015-05-17T07:32:13Z</time>
      </trkpt>
      <trkpt lat="43.2865" lon="5.94203">
        <ele>422.88671875</ele>
        <time>2015-05-17T07:32:14Z</time>
      </trkpt>
      <trkpt lat="43.28652" lon="5.94203">
        <ele>422.92578125</ele>
        <time>2015-05-17T07:32:15Z</time>
      </trkpt>
      <trkpt lat="43.28655" lon="5.94204">
        <ele>422.94140625</ele>
        <time>2015-05-17T07:32:16Z</time>
      </trkpt>
      <trkpt lat="43.28657" lon="5.94205">
        <ele>422.94921875</ele>
        <time>2015-05-17T07:32:17Z</time>
      </trkpt>
      <trkpt lat="43.28659" lon="5.94205">
        <ele>422.9609375</ele>
        <time>2015-05-17T07:32:18Z</time>
      </trkpt>
      <trkpt lat="43.28689" lon="5.94202">
        <ele>423.6015625</ele>
        <time>2015-05-17T07:32:31Z</time>
      </trkpt>
      <trkpt lat="43.2871" lon="5.94207">
        <ele>424.0390625</ele>
        <time>2015-05-17T07:32:43Z</time>
      </trkpt>
      <trkpt lat="43.28737" lon="5.94212">
        <ele>425.3203125</ele>
        <time>2015-05-17T07:32:55Z</time>
      </trkpt>
      <trkpt lat="43.28776" lon="5.94212">
        <ele>428.13671875</ele>
        <time>2015-05-17T07:33:09Z</time>
      </trkpt>
      <trkpt lat="43.28802" lon="5.94211">
        <ele>431.359375</ele>
        <time>2015-05-17T07:33:22Z</time>
      </trkpt>
      <trkpt lat="43.28808" lon="5.94181">
        <ele>432.66015625</ele>
        <time>2015-05-17T07:33:34Z</time>
      </trkpt>
      <trkpt lat="43.28808" lon="5.94144">
        <ele>434.6953125</ele>
        <time>2015-05-17T07:33:49Z</time>
      </trkpt>
      <trkpt lat="43.2881" lon="5.94104">
        <ele>436.87890625</ele>
        <time>2015-05-17T07:34:05Z</time>
      </trkpt>
      <trkpt lat="43.28816" lon="5.94072">
        <ele>439.31640625</ele>
        <time>2015-05-17T07:34:19Z</time>
      </trkpt>
      <trkpt lat="43.28816" lon="5.94037">
        <ele>440.57421875</ele>
        <time>2015-05-17T07:34:34Z</time>
      </trkpt>
      <trkpt lat="43.2882" lon="5.94004">
        <ele>442.19921875</ele>
        <time>2015-05-17T07:34:47Z</time>
      </trkpt>
      <trkpt lat="43.28833" lon="5.93967">
        <ele>444.8046875</ele>
        <time>2015-05-17T07:35:02Z</time>
      </trkpt>
      <trkpt lat="43.28847" lon="5.93927">
        <ele>446.33984375</ele>
        <time>2015-05-17T07:35:18Z</time>
      </trkpt>
      <trkpt lat="43.28851" lon="5.93902">
        <ele>447.06640625</ele>
        <time>2015-05-17T07:35:28Z</time>
      </trkpt>
      <trkpt lat="43.28859" lon="5.9386">
        <ele>448.47265625</ele>
        <time>2015-05-17T07:35:44Z</time>
      </trkpt>
      <trkpt lat="43.28865" lon="5.93807">
        <ele>449.5625</ele>
        <time>2015-05-17T07:35:53Z</time>
      </trkpt>
      <trkpt lat="43.28866" lon="5.93745">
        <ele>450.953125</ele>
        <time>2015-05-17T07:36:05Z</time>
      </trkpt>
      <trkpt lat="43.2887" lon="5.9368">
        <ele>454.05859375</ele>
        <time>2015-05-17T07:36:19Z</time>
      </trkpt>
      <trkpt lat="43.28873" lon="5.93639">
        <ele>457.0546875</ele>
        <time>2015-05-17T07:36:31Z</time>
      </trkpt>
      <trkpt lat="43.28872" lon="5.93594">
        <ele>458.38671875</ele>
        <time>2015-05-17T07:36:44Z</time>
      </trkpt>
      <trkpt lat="43.28857" lon="5.93538">
        <ele>454.8203125</ele>
        <time>2015-05-17T07:36:57Z</time>
      </trkpt>
      <trkpt lat="43.28845" lon="5.93482">
        <ele>454.125</ele>
        <time>2015-05-17T07:37:10Z</time>
      </trkpt>
      <trkpt lat="43.28841" lon="5.93448">
        <ele>455.4765625</ele>
        <time>2015-05-17T07:37:15Z</time>
      </trkpt>
      <trkpt lat="43.28842" lon="5.93442">
        <ele>455.9375</ele>
        <time>2015-05-17T07:37:16Z</time>
      </trkpt>
      <trkpt lat="43.28843" lon="5.93436">
        <ele>456.44140625</ele>
        <time>2015-05-17T07:37:17Z</time>
      </trkpt>
      <trkpt lat="43.28852" lon="5.93385">
        <ele>458.92578125</ele>
        <time>2015-05-17T07:37:29Z</time>
      </trkpt>
      <trkpt lat="43.28874" lon="5.93343">
        <ele>461</ele>
        <time>2015-05-17T07:37:42Z</time>
      </trkpt>
      <trkpt lat="43.28898" lon="5.93306">
        <ele>463.0078125</ele>
        <time>2015-05-17T07:37:56Z</time>
      </trkpt>
      <trkpt lat="43.28915" lon="5.93258">
        <ele>462.9765625</ele>
        <time>2015-05-17T07:38:11Z</time>
      </trkpt>
      <trkpt lat="43.28931" lon="5.93197">
        <ele>463.00390625</ele>
        <time>2015-05-17T07:38:25Z</time>
      </trkpt>
      <trkpt lat="43.28963" lon="5.93138">
        <ele>464.5234375</ele>
        <time>2015-05-17T07:38:38Z</time>
      </trkpt>
      <trkpt lat="43.28984" lon="5.93092">
        <ele>465.6953125</ele>
        <time>2015-05-17T07:38:51Z</time>
      </trkpt>
      <trkpt lat="43.28992" lon="5.93058">
        <ele>466.42578125</ele>
        <time>2015-05-17T07:39:04Z</time>
      </trkpt>
      <trkpt lat="43.29007" lon="5.93052">
        <ele>468.65625</ele>
        <time>2015-05-17T07:39:16Z</time>
      </trkpt>
      <trkpt lat="43.29017" lon="5.9305">
        <ele>469.921875</ele>
        <time>2015-05-17T07:39:25Z</time>
      </trkpt>
      <trkpt lat="43.29028" lon="5.93045">
        <ele>471.07421875</ele>
        <time>2015-05-17T07:39:39Z</time>
      </trkpt>
      <trkpt lat="43.2903" lon="5.93046">
        <ele>471.45703125</ele>
        <time>2015-05-17T07:39:43Z</time>
      </trkpt>
      <trkpt lat="43.29031" lon="5.93047">
        <ele>471.703125</ele>
        <time>2015-05-17T07:39:44Z</time>
      </trkpt>
      <trkpt lat="43.29033" lon="5.93047">
        <ele>471.953125</ele>
        <time>2015-05-17T07:39:45Z</time>
      </trkpt>
      <trkpt lat="43.29034" lon="5.93048">
        <ele>472.19921875</ele>
        <time>2015-05-17T07:39:46Z</time>
      </trkpt>
      <trkpt lat="43.29036" lon="5.93049">
        <ele>472.43359375</ele>
        <time>2015-05-17T07:39:47Z</time>
      </trkpt>
      <trkpt lat="43.29041" lon="5.93051">
        <ele>473.33984375</ele>
        <time>2015-05-17T07:39:52Z</time>
      </trkpt>
      <trkpt lat="43.29042" lon="5.93051">
        <ele>473.55078125</ele>
        <time>2015-05-17T07:39:53Z</time>
      </trkpt>
      <trkpt lat="43.29043" lon="5.93052">
        <ele>473.82421875</ele>
        <time>2015-05-17T07:39:54Z</time>
      </trkpt>
      <trkpt lat="43.29045" lon="5.93054">
        <ele>474.10546875</ele>
        <time>2015-05-17T07:39:55Z</time>
      </trkpt>
      <trkpt lat="43.29046" lon="5.93055">
        <ele>474.37890625</ele>
        <time>2015-05-17T07:39:56Z</time>
      </trkpt>
      <trkpt lat="43.29047" lon="5.93055">
        <ele>474.6171875</ele>
        <time>2015-05-17T07:39:57Z</time>
      </trkpt>
      <trkpt lat="43.29048" lon="5.93056">
        <ele>474.859375</ele>
        <time>2015-05-17T07:39:58Z</time>
      </trkpt>
      <trkpt lat="43.2905" lon="5.93057">
        <ele>475.12890625</ele>
        <time>2015-05-17T07:39:59Z</time>
      </trkpt>
      <trkpt lat="43.29051" lon="5.93057">
        <ele>475.375</ele>
        <time>2015-05-17T07:40:00Z</time>
      </trkpt>
      <trkpt lat="43.29053" lon="5.93057">
        <ele>475.6171875</ele>
        <time>2015-05-17T07:40:01Z</time>
      </trkpt>
      <trkpt lat="43.29055" lon="5.93057">
        <ele>475.88671875</ele>
        <time>2015-05-17T07:40:02Z</time>
      </trkpt>
      <trkpt lat="43.29056" lon="5.93057">
        <ele>476.1640625</ele>
        <time>2015-05-17T07:40:03Z</time>
      </trkpt>
      <trkpt lat="43.2908" lon="5.93062">
        <ele>477.796875</ele>
        <time>2015-05-17T07:40:19Z</time>
      </trkpt>
      <trkpt lat="43.29103" lon="5.93064">
        <ele>478.1796875</ele>
        <time>2015-05-17T07:40:33Z</time>
      </trkpt>
      <trkpt lat="43.29124" lon="5.93076">
        <ele>479.046875</ele>
        <time>2015-05-17T07:40:48Z</time>
      </trkpt>
      <trkpt lat="43.29125" lon="5.93079">
        <ele>479.49609375</ele>
        <time>2015-05-17T07:40:50Z</time>
      </trkpt>
      <trkpt lat="43.29126" lon="5.93081">
        <ele>479.73046875</ele>
        <time>2015-05-17T07:40:51Z</time>
      </trkpt>
      <trkpt lat="43.29127" lon="5.93083">
        <ele>479.98046875</ele>
        <time>2015-05-17T07:40:52Z</time>
      </trkpt>
      <trkpt lat="43.29144" lon="5.93109">
        <ele>485.41015625</ele>
        <time>2015-05-17T07:41:08Z</time>
      </trkpt>
      <trkpt lat="43.2916" lon="5.93122">
        <ele>488.65234375</ele>
        <time>2015-05-17T07:41:21Z</time>
      </trkpt>
      <trkpt lat="43.29174" lon="5.93123">
        <ele>489.19140625</ele>
        <time>2015-05-17T07:41:33Z</time>
      </trkpt>
      <trkpt lat="43.29185" lon="5.93128">
        <ele>490.75</ele>
        <time>2015-05-17T07:41:41Z</time>
      </trkpt>
      <trkpt lat="43.29186" lon="5.93128">
        <ele>490.859375</ele>
        <time>2015-05-17T07:41:42Z</time>
      </trkpt>
      <trkpt lat="43.29199" lon="5.93132">
        <ele>492.1171875</ele>
        <time>2015-05-17T07:41:52Z</time>
      </trkpt>
      <trkpt lat="43.29199" lon="5.93133">
        <ele>492.53125</ele>
        <time>2015-05-17T07:41:53Z</time>
      </trkpt>
      <trkpt lat="43.292" lon="5.93134">
        <ele>492.82421875</ele>
        <time>2015-05-17T07:41:54Z</time>
      </trkpt>
      <trkpt lat="43.29211" lon="5.9314">
        <ele>495.17578125</ele>
        <time>2015-05-17T07:42:04Z</time>
      </trkpt>
      <trkpt lat="43.29212" lon="5.93142">
        <ele>495.8125</ele>
        <time>2015-05-17T07:42:05Z</time>
      </trkpt>
      <trkpt lat="43.29212" lon="5.93144">
        <ele>496.4140625</ele>
        <time>2015-05-17T07:42:06Z</time>
      </trkpt>
      <trkpt lat="43.29231" lon="5.93162">
        <ele>503.5859375</ele>
        <time>2015-05-17T07:42:19Z</time>
      </trkpt>
      <trkpt lat="43.29269" lon="5.93149">
        <ele>502.5390625</ele>
        <time>2015-05-17T07:42:33Z</time>
      </trkpt>
      <trkpt lat="43.29293" lon="5.93144">
        <ele>503.48046875</ele>
        <time>2015-05-17T07:42:46Z</time>
      </trkpt>
      <trkpt lat="43.29297" lon="5.93144">
        <ele>503.7578125</ele>
        <time>2015-05-17T07:42:49Z</time>
      </trkpt>
      <trkpt lat="43.29298" lon="5.93144">
        <ele>503.93359375</ele>
        <time>2015-05-17T07:42:50Z</time>
      </trkpt>
      <trkpt lat="43.29318" lon="5.93145">
        <ele>506.05859375</ele>
        <time>2015-05-17T07:43:03Z</time>
      </trkpt>
      <trkpt lat="43.29335" lon="5.93151">
        <ele>509.15234375</ele>
        <time>2015-05-17T07:43:15Z</time>
      </trkpt>
      <trkpt lat="43.29354" lon="5.93153">
        <ele>511.39453125</ele>
        <time>2015-05-17T07:43:29Z</time>
      </trkpt>
      <trkpt lat="43.29373" lon="5.9315">
        <ele>512.01953125</ele>
        <time>2015-05-17T07:43:42Z</time>
      </trkpt>
      <trkpt lat="43.29375" lon="5.93151">
        <ele>512.34375</ele>
        <time>2015-05-17T07:43:43Z</time>
      </trkpt>
      <trkpt lat="43.29397" lon="5.93148">
        <ele>513.33203125</ele>
        <time>2015-05-17T07:43:55Z</time>
      </trkpt>
      <trkpt lat="43.29427" lon="5.93153">
        <ele>519.17578125</ele>
        <time>2015-05-17T07:44:07Z</time>
      </trkpt>
      <trkpt lat="43.29431" lon="5.93155">
        <ele>520.375</ele>
        <time>2015-05-17T07:44:08Z</time>
      </trkpt>
      <trkpt lat="43.29436" lon="5.93156">
        <ele>521.296875</ele>
        <time>2015-05-17T07:44:09Z</time>
      </trkpt>
      <trkpt lat="43.2944" lon="5.93156">
        <ele>521.94921875</ele>
        <time>2015-05-17T07:44:10Z</time>
      </trkpt>
      <trkpt lat="43.29446" lon="5.93155">
        <ele>522.546875</ele>
        <time>2015-05-17T07:44:11Z</time>
      </trkpt>
      <trkpt lat="43.29451" lon="5.93153">
        <ele>523.5078125</ele>
        <time>2015-05-17T07:44:12Z</time>
      </trkpt>
      <trkpt lat="43.29456" lon="5.93152">
        <ele>524.29296875</ele>
        <time>2015-05-17T07:44:13Z</time>
      </trkpt>
      <trkpt lat="43.29478" lon="5.93144">
        <ele>527.0390625</ele>
        <time>2015-05-17T07:44:22Z</time>
      </trkpt>
      <trkpt lat="43.29492" lon="5.93138">
        <ele>528.7265625</ele>
        <time>2015-05-17T07:44:34Z</time>
      </trkpt>
      <trkpt lat="43.29494" lon="5.93138">
        <ele>529.0859375</ele>
        <time>2015-05-17T07:44:35Z</time>
      </trkpt>
      <trkpt lat="43.29496" lon="5.93137">
        <ele>529.46484375</ele>
        <time>2015-05-17T07:44:36Z</time>
      </trkpt>
      <trkpt lat="43.29498" lon="5.93137">
        <ele>529.828125</ele>
        <time>2015-05-17T07:44:37Z</time>
      </trkpt>
      <trkpt lat="43.29499" lon="5.93137">
        <ele>530.21484375</ele>
        <time>2015-05-17T07:44:38Z</time>
      </trkpt>
      <trkpt lat="43.29501" lon="5.93136">
        <ele>530.5703125</ele>
        <time>2015-05-17T07:44:39Z</time>
      </trkpt>
      <trkpt lat="43.29503" lon="5.93136">
        <ele>530.99609375</ele>
        <time>2015-05-17T07:44:40Z</time>
      </trkpt>
      <trkpt lat="43.29504" lon="5.93135">
        <ele>531.33984375</ele>
        <time>2015-05-17T07:44:41Z</time>
      </trkpt>
      <trkpt lat="43.29506" lon="5.93134">
        <ele>531.5390625</ele>
        <time>2015-05-17T07:44:42Z</time>
      </trkpt>
      <trkpt lat="43.2952" lon="5.93124">
        <ele>533.08203125</ele>
        <time>2015-05-17T07:44:54Z</time>
      </trkpt>
      <trkpt lat="43.29523" lon="5.93122">
        <ele>533.4296875</ele>
        <time>2015-05-17T07:44:57Z</time>
      </trkpt>
      <trkpt lat="43.29543" lon="5.93112">
        <ele>535.4140625</ele>
        <time>2015-05-17T07:45:13Z</time>
      </trkpt>
      <trkpt lat="43.29561" lon="5.93102">
        <ele>537.2265625</ele>
        <time>2015-05-17T07:45:27Z</time>
      </trkpt>
      <trkpt lat="43.29578" lon="5.93097">
        <ele>538.51953125</ele>
        <time>2015-05-17T07:45:41Z</time>
      </trkpt>
      <trkpt lat="43.29599" lon="5.93091">
        <ele>540.2109375</ele>
        <time>2015-05-17T07:45:58Z</time>
      </trkpt>
      <trkpt lat="43.29613" lon="5.93095">
        <ele>543.59375</ele>
        <time>2015-05-17T07:46:10Z</time>
      </trkpt>
      <trkpt lat="43.29625" lon="5.93099">
        <ele>546.2734375</ele>
        <time>2015-05-17T07:46:19Z</time>
      </trkpt>
      <trkpt lat="43.29627" lon="5.93099">
        <ele>546.36328125</ele>
        <time>2015-05-17T07:46:20Z</time>
      </trkpt>
      <trkpt lat="43.29647" lon="5.93092">
        <ele>546.61328125</ele>
        <time>2015-05-17T07:46:35Z</time>
      </trkpt>
      <trkpt lat="43.29656" lon="5.93088">
        <ele>546.33203125</ele>
        <time>2015-05-17T07:46:42Z</time>
      </trkpt>
      <trkpt lat="43.29657" lon="5.93087">
        <ele>546.16796875</ele>
        <time>2015-05-17T07:46:43Z</time>
      </trkpt>
      <trkpt lat="43.29659" lon="5.93086">
        <ele>546.125</ele>
        <time>2015-05-17T07:46:44Z</time>
      </trkpt>
      <trkpt lat="43.2966" lon="5.93086">
        <ele>546.12109375</ele>
        <time>2015-05-17T07:46:45Z</time>
      </trkpt>
      <trkpt lat="43.29661" lon="5.93085">
        <ele>546.01953125</ele>
        <time>2015-05-17T07:46:46Z</time>
      </trkpt>
      <trkpt lat="43.29668" lon="5.93082">
        <ele>546.02734375</ele>
        <time>2015-05-17T07:46:59Z</time>
      </trkpt>
      <trkpt lat="43.29667" lon="5.9308">
        <ele>545.5234375</ele>
        <time>2015-05-17T07:47:19Z</time>
      </trkpt>
      <trkpt lat="43.29666" lon="5.93077">
        <ele>545.015625</ele>
        <time>2015-05-17T07:47:43Z</time>
      </trkpt>
      <trkpt lat="43.29667" lon="5.93081">
        <ele>545.59375</ele>
        <time>2015-05-17T07:48:08Z</time>
      </trkpt>
      <trkpt lat="43.29667" lon="5.93083">
        <ele>545.890625</ele>
        <time>2015-05-17T07:48:30Z</time>
      </trkpt>
      <trkpt lat="43.29667" lon="5.93082">
        <ele>545.8828125</ele>
        <time>2015-05-17T07:48:32Z</time>
      </trkpt>
      <trkpt lat="43.29666" lon="5.93086">
        <ele>546.73046875</ele>
        <time>2015-05-17T07:48:54Z</time>
      </trkpt>
      <trkpt lat="43.29666" lon="5.93086">
        <ele>546.80078125</ele>
        <time>2015-05-17T07:48:55Z</time>
      </trkpt>
      <trkpt lat="43.2967" lon="5.93086">
        <ele>547.5546875</ele>
        <time>2015-05-17T07:49:09Z</time>
      </trkpt>
      <trkpt lat="43.2967" lon="5.93085">
        <ele>547.45703125</ele>
        <time>2015-05-17T07:49:10Z</time>
      </trkpt>
      <trkpt lat="43.29671" lon="5.9308">
        <ele>546.3125</ele>
        <time>2015-05-17T07:49:30Z</time>
      </trkpt>
      <trkpt lat="43.29672" lon="5.9308">
        <ele>546.578125</ele>
        <time>2015-05-17T07:49:33Z</time>
      </trkpt>
      <trkpt lat="43.29672" lon="5.9308">
        <ele>546.60546875</ele>
        <time>2015-05-17T07:49:34Z</time>
      </trkpt>
      <trkpt lat="43.2967" lon="5.93081">
        <ele>546.43359375</ele>
        <time>2015-05-17T07:49:54Z</time>
      </trkpt>
      <trkpt lat="43.29669" lon="5.9308">
        <ele>545.99609375</ele>
        <time>2015-05-17T07:50:11Z</time>
      </trkpt>
      <trkpt lat="43.2967" lon="5.93079">
        <ele>546.05078125</ele>
        <time>2015-05-17T07:50:34Z</time>
      </trkpt>
      <trkpt lat="43.29671" lon="5.93078">
        <ele>546.13671875</ele>
        <time>2015-05-17T07:50:51Z</time>
      </trkpt>
      <trkpt lat="43.29671" lon="5.93078">
        <ele>546.140625</ele>
        <time>2015-05-17T07:50:52Z</time>
      </trkpt>
      <trkpt lat="43.29672" lon="5.93079">
        <ele>546.4453125</ele>
        <time>2015-05-17T07:51:14Z</time>
      </trkpt>
      <trkpt lat="43.29673" lon="5.93079">
        <ele>546.7109375</ele>
        <time>2015-05-17T07:51:37Z</time>
      </trkpt>
      <trkpt lat="43.29671" lon="5.93081">
        <ele>546.59375</ele>
        <time>2015-05-17T07:52:02Z</time>
      </trkpt>
      <trkpt lat="43.29673" lon="5.9308">
        <ele>546.71875</ele>
        <time>2015-05-17T07:52:24Z</time>
      </trkpt>
      <trkpt lat="43.29673" lon="5.93078">
        <ele>546.6796875</ele>
        <time>2015-05-17T07:52:26Z</time>
      </trkpt>
      <trkpt lat="43.29684" lon="5.93073">
        <ele>548.13671875</ele>
        <time>2015-05-17T07:52:37Z</time>
      </trkpt>
      <trkpt lat="43.29685" lon="5.93072">
        <ele>548.30859375</ele>
        <time>2015-05-17T07:52:38Z</time>
      </trkpt>
      <trkpt lat="43.29686" lon="5.93071">
        <ele>548.40625</ele>
        <time>2015-05-17T07:52:39Z</time>
      </trkpt>
      <trkpt lat="43.29687" lon="5.9307">
        <ele>548.5234375</ele>
        <time>2015-05-17T07:52:40Z</time>
      </trkpt>
      <trkpt lat="43.29689" lon="5.9307">
        <ele>548.65234375</ele>
        <time>2015-05-17T07:52:41Z</time>
      </trkpt>
      <trkpt lat="43.2969" lon="5.93069">
        <ele>548.87109375</ele>
        <time>2015-05-17T07:52:42Z</time>
      </trkpt>
      <trkpt lat="43.29708" lon="5.93062">
        <ele>551.8671875</ele>
        <time>2015-05-17T07:52:56Z</time>
      </trkpt>
      <trkpt lat="43.29728" lon="5.93051">
        <ele>554.0546875</ele>
        <time>2015-05-17T07:53:12Z</time>
      </trkpt>
      <trkpt lat="43.29746" lon="5.93044">
        <ele>555.83203125</ele>
        <time>2015-05-17T07:53:27Z</time>
      </trkpt>
      <trkpt lat="43.29762" lon="5.93038">
        <ele>556.9140625</ele>
        <time>2015-05-17T07:53:40Z</time>
      </trkpt>
      <trkpt lat="43.29764" lon="5.93038">
        <ele>557.10546875</ele>
        <time>2015-05-17T07:53:41Z</time>
      </trkpt>
      <trkpt lat="43.29765" lon="5.93038">
        <ele>557.2734375</ele>
        <time>2015-05-17T07:53:42Z</time>
      </trkpt>
      <trkpt lat="43.29766" lon="5.93038">
        <ele>557.390625</ele>
        <time>2015-05-17T07:53:43Z</time>
      </trkpt>
      <trkpt lat="43.29768" lon="5.93037">
        <ele>557.47265625</ele>
        <time>2015-05-17T07:53:44Z</time>
      </trkpt>
      <trkpt lat="43.29769" lon="5.93037">
        <ele>557.51171875</ele>
        <time>2015-05-17T07:53:45Z</time>
      </trkpt>
      <trkpt lat="43.2977" lon="5.93036">
        <ele>557.578125</ele>
        <time>2015-05-17T07:53:46Z</time>
      </trkpt>
      <trkpt lat="43.29771" lon="5.93036">
        <ele>557.71484375</ele>
        <time>2015-05-17T07:53:47Z</time>
      </trkpt>
      <trkpt lat="43.29773" lon="5.93036">
        <ele>557.875</ele>
        <time>2015-05-17T07:53:48Z</time>
      </trkpt>
      <trkpt lat="43.29774" lon="5.93036">
        <ele>557.90234375</ele>
        <time>2015-05-17T07:53:49Z</time>
      </trkpt>
      <trkpt lat="43.2978" lon="5.93034">
        <ele>558.203125</ele>
        <time>2015-05-17T07:53:55Z</time>
      </trkpt>
      <trkpt lat="43.29782" lon="5.93034">
        <ele>558.45703125</ele>
        <time>2015-05-17T07:53:56Z</time>
      </trkpt>
      <trkpt lat="43.29791" lon="5.93031">
        <ele>558.16015625</ele>
        <time>2015-05-17T07:54:04Z</time>
      </trkpt>
      <trkpt lat="43.29794" lon="5.9303">
        <ele>558.0546875</ele>
        <time>2015-05-17T07:54:06Z</time>
      </trkpt>
      <trkpt lat="43.29816" lon="5.93025">
        <ele>560.43359375</ele>
        <time>2015-05-17T07:54:23Z</time>
      </trkpt>
      <trkpt lat="43.29839" lon="5.93016">
        <ele>565.734375</ele>
        <time>2015-05-17T07:54:36Z</time>
      </trkpt>
      <trkpt lat="43.29849" lon="5.93011">
        <ele>568.34375</ele>
        <time>2015-05-17T07:54:42Z</time>
      </trkpt>
      <trkpt lat="43.29851" lon="5.93009">
        <ele>568.375</ele>
        <time>2015-05-17T07:54:43Z</time>
      </trkpt>
      <trkpt lat="43.29852" lon="5.93007">
        <ele>568.37109375</ele>
        <time>2015-05-17T07:54:44Z</time>
      </trkpt>
      <trkpt lat="43.29856" lon="5.93003">
        <ele>568.72265625</ele>
        <time>2015-05-17T07:54:47Z</time>
      </trkpt>
      <trkpt lat="43.29857" lon="5.93001">
        <ele>568.69140625</ele>
        <time>2015-05-17T07:54:48Z</time>
      </trkpt>
      <trkpt lat="43.29866" lon="5.92975">
        <ele>566.41015625</ele>
        <time>2015-05-17T07:55:02Z</time>
      </trkpt>
      <trkpt lat="43.2988" lon="5.92955">
        <ele>566.31640625</ele>
        <time>2015-05-17T07:55:18Z</time>
      </trkpt>
      <trkpt lat="43.29892" lon="5.92944">
        <ele>566.57421875</ele>
        <time>2015-05-17T07:55:29Z</time>
      </trkpt>
      <trkpt lat="43.29898" lon="5.92941">
        <ele>567.94140625</ele>
        <time>2015-05-17T07:55:34Z</time>
      </trkpt>
      <trkpt lat="43.29901" lon="5.92938">
        <ele>568.46484375</ele>
        <time>2015-05-17T07:55:37Z</time>
      </trkpt>
      <trkpt lat="43.29917" lon="5.92932">
        <ele>571.2421875</ele>
        <time>2015-05-17T07:55:52Z</time>
      </trkpt>
      <trkpt lat="43.29936" lon="5.92933">
        <ele>576.73046875</ele>
        <time>2015-05-17T07:56:06Z</time>
      </trkpt>
      <trkpt lat="43.29956" lon="5.9293">
        <ele>582.29296875</ele>
        <time>2015-05-17T07:56:21Z</time>
      </trkpt>
      <trkpt lat="43.2997" lon="5.92927">
        <ele>586.36328125</ele>
        <time>2015-05-17T07:56:34Z</time>
      </trkpt>
      <trkpt lat="43.29983" lon="5.92921">
        <ele>589.23046875</ele>
        <time>2015-05-17T07:56:47Z</time>
      </trkpt>
      <trkpt lat="43.29993" lon="5.92917">
        <ele>591.14453125</ele>
        <time>2015-05-17T07:57:01Z</time>
      </trkpt>
      <trkpt lat="43.30008" lon="5.92908">
        <ele>593.20703125</ele>
        <time>2015-05-17T07:57:18Z</time>
      </trkpt>
      <trkpt lat="43.30021" lon="5.92902">
        <ele>595.3515625</ele>
        <time>2015-05-17T07:57:34Z</time>
      </trkpt>
      <trkpt lat="43.30032" lon="5.92899">
        <ele>598.41796875</ele>
        <time>2015-05-17T07:57:48Z</time>
      </trkpt>
      <trkpt lat="43.30035" lon="5.92897">
        <ele>598.9765625</ele>
        <time>2015-05-17T07:57:51Z</time>
      </trkpt>
      <trkpt lat="43.30036" lon="5.92896">
        <ele>599.1015625</ele>
        <time>2015-05-17T07:57:52Z</time>
      </trkpt>
      <trkpt lat="43.30038" lon="5.92895">
        <ele>599.3046875</ele>
        <time>2015-05-17T07:57:53Z</time>
      </trkpt>
      <trkpt lat="43.30039" lon="5.92895">
        <ele>599.67578125</ele>
        <time>2015-05-17T07:57:54Z</time>
      </trkpt>
      <trkpt lat="43.3004" lon="5.92895">
        <ele>600.09765625</ele>
        <time>2015-05-17T07:57:55Z</time>
      </trkpt>
      <trkpt lat="43.30051" lon="5.92892">
        <ele>604.2578125</ele>
        <time>2015-05-17T07:58:05Z</time>
      </trkpt>
      <trkpt lat="43.30053" lon="5.92891">
        <ele>604.421875</ele>
        <time>2015-05-17T07:58:06Z</time>
      </trkpt>
      <trkpt lat="43.30054" lon="5.92891">
        <ele>604.77734375</ele>
        <time>2015-05-17T07:58:07Z</time>
      </trkpt>
      <trkpt lat="43.30055" lon="5.92891">
        <ele>605.17578125</ele>
        <time>2015-05-17T07:58:08Z</time>
      </trkpt>
      <trkpt lat="43.30056" lon="5.9289">
        <ele>605.64453125</ele>
        <time>2015-05-17T07:58:09Z</time>
      </trkpt>
      <trkpt lat="43.30058" lon="5.9289">
        <ele>605.97265625</ele>
        <time>2015-05-17T07:58:10Z</time>
      </trkpt>
      <trkpt lat="43.30073" lon="5.92879">
        <ele>610.01171875</ele>
        <time>2015-05-17T07:58:23Z</time>
      </trkpt>
      <trkpt lat="43.30082" lon="5.92866">
        <ele>611.18359375</ele>
        <time>2015-05-17T07:58:32Z</time>
      </trkpt>
      <trkpt lat="43.30095" lon="5.92839">
        <ele>611.09765625</ele>
        <time>2015-05-17T07:58:49Z</time>
      </trkpt>
      <trkpt lat="43.30101" lon="5.92819">
        <ele>610.38671875</ele>
        <time>2015-05-17T07:59:00Z</time>
      </trkpt>
      <trkpt lat="43.30101" lon="5.92817">
        <ele>610.22265625</ele>
        <time>2015-05-17T07:59:01Z</time>
      </trkpt>
      <trkpt lat="43.30102" lon="5.92815">
        <ele>610.046875</ele>
        <time>2015-05-17T07:59:02Z</time>
      </trkpt>
      <trkpt lat="43.30102" lon="5.92813">
        <ele>609.859375</ele>
        <time>2015-05-17T07:59:03Z</time>
      </trkpt>
      <trkpt lat="43.30102" lon="5.92811">
        <ele>609.63671875</ele>
        <time>2015-05-17T07:59:04Z</time>
      </trkpt>
      <trkpt lat="43.30102" lon="5.92809">
        <ele>609.4609375</ele>
        <time>2015-05-17T07:59:05Z</time>
      </trkpt>
      <trkpt lat="43.30106" lon="5.92778">
        <ele>606.33203125</ele>
        <time>2015-05-17T07:59:21Z</time>
      </trkpt>
      <trkpt lat="43.30118" lon="5.92744">
        <ele>606.29296875</ele>
        <time>2015-05-17T07:59:39Z</time>
      </trkpt>
      <trkpt lat="43.30134" lon="5.92722">
        <ele>609.38671875</ele>
        <time>2015-05-17T07:59:55Z</time>
      </trkpt>
      <trkpt lat="43.30153" lon="5.92696">
        <ele>612.2890625</ele>
        <time>2015-05-17T08:00:12Z</time>
      </trkpt>
      <trkpt lat="43.30155" lon="5.92693">
        <ele>612.6328125</ele>
        <time>2015-05-17T08:00:14Z</time>
      </trkpt>
      <trkpt lat="43.30156" lon="5.92691">
        <ele>612.60546875</ele>
        <time>2015-05-17T08:00:15Z</time>
      </trkpt>
      <trkpt lat="43.30156" lon="5.92689">
        <ele>612.62109375</ele>
        <time>2015-05-17T08:00:16Z</time>
      </trkpt>
      <trkpt lat="43.30157" lon="5.92687">
        <ele>612.7265625</ele>
        <time>2015-05-17T08:00:17Z</time>
      </trkpt>
      <trkpt lat="43.30157" lon="5.92686">
        <ele>612.78125</ele>
        <time>2015-05-17T08:00:18Z</time>
      </trkpt>
      <trkpt lat="43.30158" lon="5.92684">
        <ele>612.76953125</ele>
        <time>2015-05-17T08:00:19Z</time>
      </trkpt>
      <trkpt lat="43.30158" lon="5.92682">
        <ele>612.6875</ele>
        <time>2015-05-17T08:00:20Z</time>
      </trkpt>
      <trkpt lat="43.30161" lon="5.92676">
        <ele>612.99609375</ele>
        <time>2015-05-17T08:00:23Z</time>
      </trkpt>
      <trkpt lat="43.30175" lon="5.92653">
        <ele>615.62890625</ele>
        <time>2015-05-17T08:00:38Z</time>
      </trkpt>
      <trkpt lat="43.30182" lon="5.92641">
        <ele>616.58984375</ele>
        <time>2015-05-17T08:00:46Z</time>
      </trkpt>
      <trkpt lat="43.30183" lon="5.92639">
        <ele>616.67578125</ele>
        <time>2015-05-17T08:00:47Z</time>
      </trkpt>
      <trkpt lat="43.30184" lon="5.92637">
        <ele>616.81640625</ele>
        <time>2015-05-17T08:00:48Z</time>
      </trkpt>
      <trkpt lat="43.30185" lon="5.92636">
        <ele>616.890625</ele>
        <time>2015-05-17T08:00:49Z</time>
      </trkpt>
      <trkpt lat="43.30186" lon="5.92634">
        <ele>616.953125</ele>
        <time>2015-05-17T08:00:50Z</time>
      </trkpt>
      <trkpt lat="43.30186" lon="5.92633">
        <ele>617.01953125</ele>
        <time>2015-05-17T08:00:51Z</time>
      </trkpt>
      <trkpt lat="43.30187" lon="5.92631">
        <ele>617.0546875</ele>
        <time>2015-05-17T08:00:52Z</time>
      </trkpt>
      <trkpt lat="43.30188" lon="5.9263">
        <ele>617.10546875</ele>
        <time>2015-05-17T08:00:53Z</time>
      </trkpt>
      <trkpt lat="43.30206" lon="5.92602">
        <ele>619.0546875</ele>
        <time>2015-05-17T08:01:12Z</time>
      </trkpt>
      <trkpt lat="43.3022" lon="5.9258">
        <ele>622.6328125</ele>
        <time>2015-05-17T08:01:27Z</time>
      </trkpt>
      <trkpt lat="43.3024" lon="5.92553">
        <ele>625.875</ele>
        <time>2015-05-17T08:01:41Z</time>
      </trkpt>
      <trkpt lat="43.30256" lon="5.92533">
        <ele>628.8125</ele>
        <time>2015-05-17T08:01:54Z</time>
      </trkpt>
      <trkpt lat="43.30272" lon="5.92498">
        <ele>628.625</ele>
        <time>2015-05-17T08:02:09Z</time>
      </trkpt>
      <trkpt lat="43.30278" lon="5.92487">
        <ele>628.16796875</ele>
        <time>2015-05-17T08:02:14Z</time>
      </trkpt>
      <trkpt lat="43.3028" lon="5.92486">
        <ele>628.18359375</ele>
        <time>2015-05-17T08:02:15Z</time>
      </trkpt>
      <trkpt lat="43.30281" lon="5.92484">
        <ele>628.25</ele>
        <time>2015-05-17T08:02:16Z</time>
      </trkpt>
      <trkpt lat="43.30303" lon="5.92465">
        <ele>628.859375</ele>
        <time>2015-05-17T08:02:29Z</time>
      </trkpt>
      <trkpt lat="43.3033" lon="5.92447">
        <ele>628.390625</ele>
        <time>2015-05-17T08:02:45Z</time>
      </trkpt>
      <trkpt lat="43.30356" lon="5.92438">
        <ele>629.83203125</ele>
        <time>2015-05-17T08:03:00Z</time>
      </trkpt>
      <trkpt lat="43.30378" lon="5.92438">
        <ele>633.59765625</ele>
        <time>2015-05-17T08:03:15Z</time>
      </trkpt>
      <trkpt lat="43.30389" lon="5.92437">
        <ele>635.26953125</ele>
        <time>2015-05-17T08:03:23Z</time>
      </trkpt>
      <trkpt lat="43.30391" lon="5.92436">
        <ele>635.578125</ele>
        <time>2015-05-17T08:03:24Z</time>
      </trkpt>
      <trkpt lat="43.30412" lon="5.92423">
        <ele>640.828125</ele>
        <time>2015-05-17T08:03:39Z</time>
      </trkpt>
      <trkpt lat="43.30426" lon="5.92416">
        <ele>644.890625</ele>
        <time>2015-05-17T08:03:49Z</time>
      </trkpt>
      <trkpt lat="43.30427" lon="5.92414">
        <ele>645.11328125</ele>
        <time>2015-05-17T08:03:50Z</time>
      </trkpt>
      <trkpt lat="43.30428" lon="5.92413">
        <ele>645.3125</ele>
        <time>2015-05-17T08:03:51Z</time>
      </trkpt>
      <trkpt lat="43.30429" lon="5.92411">
        <ele>645.46875</ele>
        <time>2015-05-17T08:03:52Z</time>
      </trkpt>
      <trkpt lat="43.3043" lon="5.9241">
        <ele>645.59765625</ele>
        <time>2015-05-17T08:03:53Z</time>
      </trkpt>
      <trkpt lat="43.30438" lon="5.92399">
        <ele>647.09765625</ele>
        <time>2015-05-17T08:04:02Z</time>
      </trkpt>
      <trkpt lat="43.30452" lon="5.92376">
        <ele>649.78125</ele>
        <time>2015-05-17T08:04:19Z</time>
      </trkpt>
      <trkpt lat="43.30456" lon="5.92369">
        <ele>650.92578125</ele>
        <time>2015-05-17T08:04:31Z</time>
      </trkpt>
      <trkpt lat="43.30455" lon="5.92369">
        <ele>650.74609375</ele>
        <time>2015-05-17T08:04:54Z</time>
      </trkpt>
      <trkpt lat="43.30463" lon="5.92355">
        <ele>652.640625</ele>
        <time>2015-05-17T08:05:08Z</time>
      </trkpt>
      <trkpt lat="43.30476" lon="5.92327">
        <ele>653.75390625</ele>
        <time>2015-05-17T08:05:24Z</time>
      </trkpt>
      <trkpt lat="43.30488" lon="5.92299">
        <ele>655.42578125</ele>
        <time>2015-05-17T08:05:39Z</time>
      </trkpt>
      <trkpt lat="43.305" lon="5.92265">
        <ele>656.8671875</ele>
        <time>2015-05-17T08:05:55Z</time>
      </trkpt>
      <trkpt lat="43.30511" lon="5.92242">
        <ele>659.5</ele>
        <time>2015-05-17T08:06:05Z</time>
      </trkpt>
      <trkpt lat="43.30511" lon="5.9224">
        <ele>659.58984375</ele>
        <time>2015-05-17T08:06:06Z</time>
      </trkpt>
      <trkpt lat="43.30512" lon="5.92237">
        <ele>659.72265625</ele>
        <time>2015-05-17T08:06:07Z</time>
      </trkpt>
      <trkpt lat="43.30513" lon="5.92234">
        <ele>659.84375</ele>
        <time>2015-05-17T08:06:08Z</time>
      </trkpt>
      <trkpt lat="43.30514" lon="5.92232">
        <ele>660.12890625</ele>
        <time>2015-05-17T08:06:09Z</time>
      </trkpt>
      <trkpt lat="43.30515" lon="5.92229">
        <ele>660.31640625</ele>
        <time>2015-05-17T08:06:10Z</time>
      </trkpt>
      <trkpt lat="43.30516" lon="5.92226">
        <ele>660.390625</ele>
        <time>2015-05-17T08:06:11Z</time>
      </trkpt>
      <trkpt lat="43.30527" lon="5.92183">
        <ele>659.5859375</ele>
        <time>2015-05-17T08:06:26Z</time>
      </trkpt>
      <trkpt lat="43.30529" lon="5.92146">
        <ele>658</ele>
        <time>2015-05-17T08:06:41Z</time>
      </trkpt>
      <trkpt lat="43.30527" lon="5.92144">
        <ele>657.1328125</ele>
        <time>2015-05-17T08:06:55Z</time>
      </trkpt>
      <trkpt lat="43.30526" lon="5.92143">
        <ele>657.03125</ele>
        <time>2015-05-17T08:07:20Z</time>
      </trkpt>
      <trkpt lat="43.30526" lon="5.92142">
        <ele>656.984375</ele>
        <time>2015-05-17T08:07:48Z</time>
      </trkpt>
      <trkpt lat="43.30526" lon="5.92138">
        <ele>656.9140625</ele>
        <time>2015-05-17T08:08:13Z</time>
      </trkpt>
      <trkpt lat="43.30529" lon="5.92144">
        <ele>657.6796875</ele>
        <time>2015-05-17T08:08:40Z</time>
      </trkpt>
      <trkpt lat="43.3053" lon="5.92144">
        <ele>658.23828125</ele>
        <time>2015-05-17T08:09:02Z</time>
      </trkpt>
      <trkpt lat="43.30527" lon="5.92139">
        <ele>656.953125</ele>
        <time>2015-05-17T08:09:25Z</time>
      </trkpt>
      <trkpt lat="43.30527" lon="5.92132">
        <ele>656.9765625</ele>
        <time>2015-05-17T08:09:51Z</time>
      </trkpt>
      <trkpt lat="43.30527" lon="5.92131">
        <ele>656.96484375</ele>
        <time>2015-05-17T08:09:52Z</time>
      </trkpt>
      <trkpt lat="43.30526" lon="5.92129">
        <ele>656.95703125</ele>
        <time>2015-05-17T08:09:53Z</time>
      </trkpt>
      <trkpt lat="43.30526" lon="5.92128">
        <ele>656.95703125</ele>
        <time>2015-05-17T08:09:54Z</time>
      </trkpt>
      <trkpt lat="43.30526" lon="5.92126">
        <ele>656.9609375</ele>
        <time>2015-05-17T08:09:55Z</time>
      </trkpt>
      <trkpt lat="43.30526" lon="5.92124">
        <ele>656.9609375</ele>
        <time>2015-05-17T08:09:56Z</time>
      </trkpt>
      <trkpt lat="43.30526" lon="5.92122">
        <ele>656.96875</ele>
        <time>2015-05-17T08:09:57Z</time>
      </trkpt>
      <trkpt lat="43.30526" lon="5.9212">
        <ele>656.9765625</ele>
        <time>2015-05-17T08:09:58Z</time>
      </trkpt>
      <trkpt lat="43.30526" lon="5.92119">
        <ele>656.98046875</ele>
        <time>2015-05-17T08:09:59Z</time>
      </trkpt>
      <trkpt lat="43.30532" lon="5.9209">
        <ele>659.19921875</ele>
        <time>2015-05-17T08:10:14Z</time>
      </trkpt>
      <trkpt lat="43.30537" lon="5.92064">
        <ele>662.40625</ele>
        <time>2015-05-17T08:10:28Z</time>
      </trkpt>
      <trkpt lat="43.30535" lon="5.92056">
        <ele>662.14453125</ele>
        <time>2015-05-17T08:10:33Z</time>
      </trkpt>
      <trkpt lat="43.30535" lon="5.92054">
        <ele>662.08984375</ele>
        <time>2015-05-17T08:10:34Z</time>
      </trkpt>
      <trkpt lat="43.30535" lon="5.92052">
        <ele>661.890625</ele>
        <time>2015-05-17T08:10:35Z</time>
      </trkpt>
      <trkpt lat="43.30534" lon="5.9205">
        <ele>661.69140625</ele>
        <time>2015-05-17T08:10:36Z</time>
      </trkpt>
      <trkpt lat="43.30533" lon="5.92049">
        <ele>661.5234375</ele>
        <time>2015-05-17T08:10:37Z</time>
      </trkpt>
      <trkpt lat="43.30533" lon="5.92047">
        <ele>661.41796875</ele>
        <time>2015-05-17T08:10:38Z</time>
      </trkpt>
      <trkpt lat="43.30533" lon="5.92045">
        <ele>661.359375</ele>
        <time>2015-05-17T08:10:39Z</time>
      </trkpt>
      <trkpt lat="43.30532" lon="5.92044">
        <ele>661.2578125</ele>
        <time>2015-05-17T08:10:40Z</time>
      </trkpt>
      <trkpt lat="43.30532" lon="5.92042">
        <ele>661.1015625</ele>
        <time>2015-05-17T08:10:41Z</time>
      </trkpt>
      <trkpt lat="43.30532" lon="5.9204">
        <ele>660.984375</ele>
        <time>2015-05-17T08:10:42Z</time>
      </trkpt>
      <trkpt lat="43.30531" lon="5.92039">
        <ele>660.765625</ele>
        <time>2015-05-17T08:10:43Z</time>
      </trkpt>
      <trkpt lat="43.30529" lon="5.92028">
        <ele>660.2734375</ele>
        <time>2015-05-17T08:10:50Z</time>
      </trkpt>
      <trkpt lat="43.30529" lon="5.92026">
        <ele>660.4453125</ele>
        <time>2015-05-17T08:10:51Z</time>
      </trkpt>
      <trkpt lat="43.30529" lon="5.92024">
        <ele>660.609375</ele>
        <time>2015-05-17T08:10:52Z</time>
      </trkpt>
      <trkpt lat="43.30529" lon="5.92022">
        <ele>660.828125</ele>
        <time>2015-05-17T08:10:53Z</time>
      </trkpt>
      <trkpt lat="43.30529" lon="5.9202">
        <ele>660.91015625</ele>
        <time>2015-05-17T08:10:54Z</time>
      </trkpt>
      <trkpt lat="43.30529" lon="5.92018">
        <ele>660.95703125</ele>
        <time>2015-05-17T08:10:55Z</time>
      </trkpt>
      <trkpt lat="43.30529" lon="5.92017">
        <ele>661.15625</ele>
        <time>2015-05-17T08:10:56Z</time>
      </trkpt>
      <trkpt lat="43.30529" lon="5.92014">
        <ele>661.3828125</ele>
        <time>2015-05-17T08:10:57Z</time>
      </trkpt>
      <trkpt lat="43.30529" lon="5.92012">
        <ele>661.58203125</ele>
        <time>2015-05-17T08:10:58Z</time>
      </trkpt>
      <trkpt lat="43.3054" lon="5.91986">
        <ele>666.48828125</ele>
        <time>2015-05-17T08:11:11Z</time>
      </trkpt>
      <trkpt lat="43.30558" lon="5.91948">
        <ele>671.43359375</ele>
        <time>2015-05-17T08:11:26Z</time>
      </trkpt>
      <trkpt lat="43.30562" lon="5.9192">
        <ele>671.7578125</ele>
        <time>2015-05-17T08:11:40Z</time>
      </trkpt>
      <trkpt lat="43.30564" lon="5.91892">
        <ele>670.75390625</ele>
        <time>2015-05-17T08:11:55Z</time>
      </trkpt>
      <trkpt lat="43.30561" lon="5.9188">
        <ele>670.58984375</ele>
        <time>2015-05-17T08:12:02Z</time>
      </trkpt>
      <trkpt lat="43.30561" lon="5.91863">
        <ele>670.97265625</ele>
        <time>2015-05-17T08:12:13Z</time>
      </trkpt>
      <trkpt lat="43.30561" lon="5.91861">
        <ele>671.01171875</ele>
        <time>2015-05-17T08:12:14Z</time>
      </trkpt>
      <trkpt lat="43.30561" lon="5.91859">
        <ele>671.0703125</ele>
        <time>2015-05-17T08:12:15Z</time>
      </trkpt>
      <trkpt lat="43.30561" lon="5.91858">
        <ele>671.1171875</ele>
        <time>2015-05-17T08:12:16Z</time>
      </trkpt>
      <trkpt lat="43.30561" lon="5.91855">
        <ele>671.20703125</ele>
        <time>2015-05-17T08:12:18Z</time>
      </trkpt>
      <trkpt lat="43.3056" lon="5.91853">
        <ele>671.25390625</ele>
        <time>2015-05-17T08:12:19Z</time>
      </trkpt>
      <trkpt lat="43.3056" lon="5.91852">
        <ele>671.30078125</ele>
        <time>2015-05-17T08:12:20Z</time>
      </trkpt>
      <trkpt lat="43.3056" lon="5.9185">
        <ele>671.36328125</ele>
        <time>2015-05-17T08:12:21Z</time>
      </trkpt>
      <trkpt lat="43.3056" lon="5.91847">
        <ele>671.43359375</ele>
        <time>2015-05-17T08:12:22Z</time>
      </trkpt>
      <trkpt lat="43.30557" lon="5.91816">
        <ele>673.26171875</ele>
        <time>2015-05-17T08:12:40Z</time>
      </trkpt>
      <trkpt lat="43.30555" lon="5.91787">
        <ele>675.4453125</ele>
        <time>2015-05-17T08:12:56Z</time>
      </trkpt>
      <trkpt lat="43.30558" lon="5.91783">
        <ele>675.6015625</ele>
        <time>2015-05-17T08:12:59Z</time>
      </trkpt>
      <trkpt lat="43.30587" lon="5.91772">
        <ele>675.45703125</ele>
        <time>2015-05-17T08:13:13Z</time>
      </trkpt>
      <trkpt lat="43.30613" lon="5.91738">
        <ele>677.875</ele>
        <time>2015-05-17T08:13:25Z</time>
      </trkpt>
      <trkpt lat="43.30615" lon="5.91727">
        <ele>678.66796875</ele>
        <time>2015-05-17T08:13:29Z</time>
      </trkpt>
      <trkpt lat="43.30616" lon="5.91726">
        <ele>678.80078125</ele>
        <time>2015-05-17T08:13:30Z</time>
      </trkpt>
      <trkpt lat="43.30619" lon="5.91725">
        <ele>678.8359375</ele>
        <time>2015-05-17T08:13:31Z</time>
      </trkpt>
      <trkpt lat="43.30621" lon="5.91726">
        <ele>678.80078125</ele>
        <time>2015-05-17T08:13:32Z</time>
      </trkpt>
      <trkpt lat="43.30624" lon="5.91727">
        <ele>678.7265625</ele>
        <time>2015-05-17T08:13:33Z</time>
      </trkpt>
      <trkpt lat="43.30626" lon="5.91728">
        <ele>678.60546875</ele>
        <time>2015-05-17T08:13:34Z</time>
      </trkpt>
      <trkpt lat="43.30629" lon="5.9173">
        <ele>678.45703125</ele>
        <time>2015-05-17T08:13:35Z</time>
      </trkpt>
      <trkpt lat="43.30636" lon="5.91739">
        <ele>677.80859375</ele>
        <time>2015-05-17T08:13:38Z</time>
      </trkpt>
      <trkpt lat="43.30658" lon="5.91763">
        <ele>676.03125</ele>
        <time>2015-05-17T08:13:50Z</time>
      </trkpt>
      <trkpt lat="43.30685" lon="5.91758">
        <ele>677.5234375</ele>
        <time>2015-05-17T08:13:57Z</time>
      </trkpt>
      <trkpt lat="43.30691" lon="5.91755">
        <ele>677.8671875</ele>
        <time>2015-05-17T08:13:58Z</time>
      </trkpt>
      <trkpt lat="43.30696" lon="5.91751">
        <ele>678.13671875</ele>
        <time>2015-05-17T08:13:59Z</time>
      </trkpt>
      <trkpt lat="43.307" lon="5.91744">
        <ele>678.53515625</ele>
        <time>2015-05-17T08:14:00Z</time>
      </trkpt>
      <trkpt lat="43.30704" lon="5.91737">
        <ele>678.703125</ele>
        <time>2015-05-17T08:14:01Z</time>
      </trkpt>
      <trkpt lat="43.30707" lon="5.9173">
        <ele>678.69140625</ele>
        <time>2015-05-17T08:14:02Z</time>
      </trkpt>
      <trkpt lat="43.30715" lon="5.9171">
        <ele>678.5234375</ele>
        <time>2015-05-17T08:14:05Z</time>
      </trkpt>
      <trkpt lat="43.30737" lon="5.91668">
        <ele>678.53125</ele>
        <time>2015-05-17T08:14:16Z</time>
      </trkpt>
      <trkpt lat="43.30747" lon="5.91627">
        <ele>679.4765625</ele>
        <time>2015-05-17T08:14:28Z</time>
      </trkpt>
      <trkpt lat="43.30772" lon="5.91572">
        <ele>686.0546875</ele>
        <time>2015-05-17T08:14:42Z</time>
      </trkpt>
      <trkpt lat="43.30798" lon="5.91527">
        <ele>693.51171875</ele>
        <time>2015-05-17T08:14:57Z</time>
      </trkpt>
      <trkpt lat="43.30825" lon="5.91488">
        <ele>694.55078125</ele>
        <time>2015-05-17T08:15:14Z</time>
      </trkpt>
      <trkpt lat="43.30852" lon="5.9147">
        <ele>695.0625</ele>
        <time>2015-05-17T08:15:27Z</time>
      </trkpt>
      <trkpt lat="43.30874" lon="5.91464">
        <ele>697.328125</ele>
        <time>2015-05-17T08:15:40Z</time>
      </trkpt>
      <trkpt lat="43.30893" lon="5.9147">
        <ele>699.578125</ele>
        <time>2015-05-17T08:15:54Z</time>
      </trkpt>
      <trkpt lat="43.30904" lon="5.91472">
        <ele>701.11328125</ele>
        <time>2015-05-17T08:16:02Z</time>
      </trkpt>
      <trkpt lat="43.30905" lon="5.91472">
        <ele>701.3125</ele>
        <time>2015-05-17T08:16:03Z</time>
      </trkpt>
      <trkpt lat="43.30907" lon="5.91471">
        <ele>701.515625</ele>
        <time>2015-05-17T08:16:04Z</time>
      </trkpt>
      <trkpt lat="43.30923" lon="5.91467">
        <ele>704.01953125</ele>
        <time>2015-05-17T08:16:16Z</time>
      </trkpt>
      <trkpt lat="43.30924" lon="5.91467">
        <ele>704.3125</ele>
        <time>2015-05-17T08:16:17Z</time>
      </trkpt>
      <trkpt lat="43.30925" lon="5.91466">
        <ele>704.54296875</ele>
        <time>2015-05-17T08:16:18Z</time>
      </trkpt>
      <trkpt lat="43.30927" lon="5.91465">
        <ele>704.734375</ele>
        <time>2015-05-17T08:16:19Z</time>
      </trkpt>
      <trkpt lat="43.30928" lon="5.91464">
        <ele>704.94140625</ele>
        <time>2015-05-17T08:16:20Z</time>
      </trkpt>
      <trkpt lat="43.30929" lon="5.91463">
        <ele>705.1875</ele>
        <time>2015-05-17T08:16:21Z</time>
      </trkpt>
      <trkpt lat="43.3093" lon="5.91462">
        <ele>705.359375</ele>
        <time>2015-05-17T08:16:22Z</time>
      </trkpt>
      <trkpt lat="43.30931" lon="5.91461">
        <ele>705.49609375</ele>
        <time>2015-05-17T08:16:23Z</time>
      </trkpt>
      <trkpt lat="43.30932" lon="5.9146">
        <ele>705.60546875</ele>
        <time>2015-05-17T08:16:24Z</time>
      </trkpt>
      <trkpt lat="43.3095" lon="5.91439">
        <ele>709.06640625</ele>
        <time>2015-05-17T08:16:41Z</time>
      </trkpt>
      <trkpt lat="43.30955" lon="5.91406">
        <ele>709.17578125</ele>
        <time>2015-05-17T08:16:55Z</time>
      </trkpt>
      <trkpt lat="43.30949" lon="5.91375">
        <ele>707.1875</ele>
        <time>2015-05-17T08:17:11Z</time>
      </trkpt>
      <trkpt lat="43.3094" lon="5.91353">
        <ele>706.7734375</ele>
        <time>2015-05-17T08:17:24Z</time>
      </trkpt>
      <trkpt lat="43.30935" lon="5.91341">
        <ele>707.609375</ele>
        <time>2015-05-17T08:17:37Z</time>
      </trkpt>
      <trkpt lat="43.30931" lon="5.91336">
        <ele>707.89453125</ele>
        <time>2015-05-17T08:17:55Z</time>
      </trkpt>
      <trkpt lat="43.30921" lon="5.91321">
        <ele>709.35546875</ele>
        <time>2015-05-17T08:18:08Z</time>
      </trkpt>
      <trkpt lat="43.30914" lon="5.91303">
        <ele>711.5234375</ele>
        <time>2015-05-17T08:18:24Z</time>
      </trkpt>
      <trkpt lat="43.30909" lon="5.91297">
        <ele>712.34765625</ele>
        <time>2015-05-17T08:18:30Z</time>
      </trkpt>
      <trkpt lat="43.30908" lon="5.91296">
        <ele>712.4453125</ele>
        <time>2015-05-17T08:18:31Z</time>
      </trkpt>
      <trkpt lat="43.30902" lon="5.91286">
        <ele>713.3203125</ele>
        <time>2015-05-17T08:18:41Z</time>
      </trkpt>
      <trkpt lat="43.30901" lon="5.91285">
        <ele>713.3359375</ele>
        <time>2015-05-17T08:18:42Z</time>
      </trkpt>
      <trkpt lat="43.309" lon="5.91284">
        <ele>713.37890625</ele>
        <time>2015-05-17T08:18:43Z</time>
      </trkpt>
      <trkpt lat="43.30889" lon="5.91267">
        <ele>714.33984375</ele>
        <time>2015-05-17T08:18:59Z</time>
      </trkpt>
      <trkpt lat="43.30891" lon="5.91244">
        <ele>717.0390625</ele>
        <time>2015-05-17T08:19:16Z</time>
      </trkpt>
      <trkpt lat="43.30892" lon="5.91235">
        <ele>718.43359375</ele>
        <time>2015-05-17T08:19:23Z</time>
      </trkpt>
      <trkpt lat="43.30892" lon="5.9123">
        <ele>719.18359375</ele>
        <time>2015-05-17T08:19:27Z</time>
      </trkpt>
      <trkpt lat="43.30892" lon="5.91211">
        <ele>722.4140625</ele>
        <time>2015-05-17T08:19:41Z</time>
      </trkpt>
      <trkpt lat="43.30895" lon="5.91193">
        <ele>725.85546875</ele>
        <time>2015-05-17T08:19:57Z</time>
      </trkpt>
      <trkpt lat="43.30896" lon="5.91189">
        <ele>726.6015625</ele>
        <time>2015-05-17T08:20:04Z</time>
      </trkpt>
      <trkpt lat="43.30901" lon="5.91184">
        <ele>727.8515625</ele>
        <time>2015-05-17T08:20:10Z</time>
      </trkpt>
      <trkpt lat="43.30906" lon="5.91184">
        <ele>728.3046875</ele>
        <time>2015-05-17T08:20:15Z</time>
      </trkpt>
      <trkpt lat="43.30922" lon="5.91188">
        <ele>728.7734375</ele>
        <time>2015-05-17T08:20:32Z</time>
      </trkpt>
      <trkpt lat="43.30932" lon="5.91193">
        <ele>728.96484375</ele>
        <time>2015-05-17T08:20:47Z</time>
      </trkpt>
      <trkpt lat="43.30948" lon="5.912">
        <ele>730.07421875</ele>
        <time>2015-05-17T08:21:00Z</time>
      </trkpt>
      <trkpt lat="43.3096" lon="5.912">
        <ele>732.4296875</ele>
        <time>2015-05-17T08:21:09Z</time>
      </trkpt>
      <trkpt lat="43.30961" lon="5.912">
        <ele>732.6796875</ele>
        <time>2015-05-17T08:21:10Z</time>
      </trkpt>
      <trkpt lat="43.30962" lon="5.912">
        <ele>732.890625</ele>
        <time>2015-05-17T08:21:11Z</time>
      </trkpt>
      <trkpt lat="43.30963" lon="5.91199">
        <ele>733.1484375</ele>
        <time>2015-05-17T08:21:12Z</time>
      </trkpt>
      <trkpt lat="43.30965" lon="5.91199">
        <ele>733.4140625</ele>
        <time>2015-05-17T08:21:13Z</time>
      </trkpt>
      <trkpt lat="43.30982" lon="5.91181">
        <ele>737.5546875</ele>
        <time>2015-05-17T08:21:29Z</time>
      </trkpt>
      <trkpt lat="43.30999" lon="5.91145">
        <ele>739.1328125</ele>
        <time>2015-05-17T08:21:42Z</time>
      </trkpt>
      <trkpt lat="43.31023" lon="5.91125">
        <ele>741.03515625</ele>
        <time>2015-05-17T08:21:58Z</time>
      </trkpt>
      <trkpt lat="43.31026" lon="5.91121">
        <ele>741.22265625</ele>
        <time>2015-05-17T08:22:01Z</time>
      </trkpt>
      <trkpt lat="43.31028" lon="5.91121">
        <ele>741.3359375</ele>
        <time>2015-05-17T08:22:02Z</time>
      </trkpt>
      <trkpt lat="43.3103" lon="5.91121">
        <ele>741.4140625</ele>
        <time>2015-05-17T08:22:03Z</time>
      </trkpt>
      <trkpt lat="43.31032" lon="5.91121">
        <ele>741.48828125</ele>
        <time>2015-05-17T08:22:04Z</time>
      </trkpt>
      <trkpt lat="43.31052" lon="5.91115">
        <ele>742.05859375</ele>
        <time>2015-05-17T08:22:16Z</time>
      </trkpt>
      <trkpt lat="43.31073" lon="5.91119">
        <ele>742.9765625</ele>
        <time>2015-05-17T08:22:30Z</time>
      </trkpt>
      <trkpt lat="43.31099" lon="5.91122">
        <ele>742.78515625</ele>
        <time>2015-05-17T08:22:45Z</time>
      </trkpt>
      <trkpt lat="43.31123" lon="5.91152">
        <ele>742.17578125</ele>
        <time>2015-05-17T08:22:58Z</time>
      </trkpt>
      <trkpt lat="43.31154" lon="5.91153">
        <ele>740.44140625</ele>
        <time>2015-05-17T08:23:10Z</time>
      </trkpt>
      <trkpt lat="43.31209" lon="5.91156">
        <ele>738.25390625</ele>
        <time>2015-05-17T08:23:23Z</time>
      </trkpt>
      <trkpt lat="43.31224" lon="5.9116">
        <ele>737.7109375</ele>
        <time>2015-05-17T08:23:26Z</time>
      </trkpt>
      <trkpt lat="43.31229" lon="5.91162">
        <ele>737.8125</ele>
        <time>2015-05-17T08:23:27Z</time>
      </trkpt>
      <trkpt lat="43.31234" lon="5.91167">
        <ele>737.97265625</ele>
        <time>2015-05-17T08:23:28Z</time>
      </trkpt>
      <trkpt lat="43.31238" lon="5.91173">
        <ele>738</ele>
        <time>2015-05-17T08:23:29Z</time>
      </trkpt>
      <trkpt lat="43.31241" lon="5.91181">
        <ele>738</ele>
        <time>2015-05-17T08:23:30Z</time>
      </trkpt>
      <trkpt lat="43.31243" lon="5.91189">
        <ele>738</ele>
        <time>2015-05-17T08:23:31Z</time>
      </trkpt>
      <trkpt lat="43.31244" lon="5.91196">
        <ele>738.0234375</ele>
        <time>2015-05-17T08:23:32Z</time>
      </trkpt>
      <trkpt lat="43.31244" lon="5.91203">
        <ele>738.27734375</ele>
        <time>2015-05-17T08:23:33Z</time>
      </trkpt>
      <trkpt lat="43.31244" lon="5.9121">
        <ele>738.51171875</ele>
        <time>2015-05-17T08:23:34Z</time>
      </trkpt>
      <trkpt lat="43.31243" lon="5.91216">
        <ele>738.734375</ele>
        <time>2015-05-17T08:23:35Z</time>
      </trkpt>
      <trkpt lat="43.31242" lon="5.91222">
        <ele>738.9453125</ele>
        <time>2015-05-17T08:23:36Z</time>
      </trkpt>
      <trkpt lat="43.3125" lon="5.91253">
        <ele>739</ele>
        <time>2015-05-17T08:23:45Z</time>
      </trkpt>
      <trkpt lat="43.31251" lon="5.91257">
        <ele>739.00390625</ele>
        <time>2015-05-17T08:23:46Z</time>
      </trkpt>
      <trkpt lat="43.3125" lon="5.9126">
        <ele>739</ele>
        <time>2015-05-17T08:23:47Z</time>
      </trkpt>
      <trkpt lat="43.31249" lon="5.91263">
        <ele>739</ele>
        <time>2015-05-17T08:23:48Z</time>
      </trkpt>
      <trkpt lat="43.3125" lon="5.91267">
        <ele>739</ele>
        <time>2015-05-17T08:23:49Z</time>
      </trkpt>
      <trkpt lat="43.31251" lon="5.91269">
        <ele>739.0234375</ele>
        <time>2015-05-17T08:23:50Z</time>
      </trkpt>
      <trkpt lat="43.31252" lon="5.91272">
        <ele>739.06640625</ele>
        <time>2015-05-17T08:23:51Z</time>
      </trkpt>
      <trkpt lat="43.31254" lon="5.91275">
        <ele>739.12890625</ele>
        <time>2015-05-17T08:23:52Z</time>
      </trkpt>
      <trkpt lat="43.31273" lon="5.9132">
        <ele>741.3046875</ele>
        <time>2015-05-17T08:24:07Z</time>
      </trkpt>
      <trkpt lat="43.31269" lon="5.91356">
        <ele>742.21875</ele>
        <time>2015-05-17T08:24:20Z</time>
      </trkpt>
      <trkpt lat="43.31261" lon="5.91395">
        <ele>743.13671875</ele>
        <time>2015-05-17T08:24:33Z</time>
      </trkpt>
      <trkpt lat="43.31249" lon="5.91435">
        <ele>744.6171875</ele>
        <time>2015-05-17T08:24:46Z</time>
      </trkpt>
      <trkpt lat="43.31249" lon="5.91446">
        <ele>745.08203125</ele>
        <time>2015-05-17T08:24:49Z</time>
      </trkpt>
      <trkpt lat="43.3125" lon="5.91449">
        <ele>745.29296875</ele>
        <time>2015-05-17T08:24:50Z</time>
      </trkpt>
      <trkpt lat="43.31251" lon="5.91452">
        <ele>745.5234375</ele>
        <time>2015-05-17T08:24:51Z</time>
      </trkpt>
      <trkpt lat="43.31252" lon="5.91454">
        <ele>745.7421875</ele>
        <time>2015-05-17T08:24:52Z</time>
      </trkpt>
      <trkpt lat="43.31253" lon="5.91457">
        <ele>745.98046875</ele>
        <time>2015-05-17T08:24:53Z</time>
      </trkpt>
      <trkpt lat="43.31254" lon="5.9146">
        <ele>746.20703125</ele>
        <time>2015-05-17T08:24:54Z</time>
      </trkpt>
      <trkpt lat="43.31255" lon="5.9149">
        <ele>748.43359375</ele>
        <time>2015-05-17T08:25:07Z</time>
      </trkpt>
      <trkpt lat="43.31255" lon="5.91511">
        <ele>749.875</ele>
        <time>2015-05-17T08:25:17Z</time>
      </trkpt>
      <trkpt lat="43.31255" lon="5.91515">
        <ele>750.1328125</ele>
        <time>2015-05-17T08:25:19Z</time>
      </trkpt>
      <trkpt lat="43.31254" lon="5.91536">
        <ele>751.32421875</ele>
        <time>2015-05-17T08:25:29Z</time>
      </trkpt>
      <trkpt lat="43.31251" lon="5.91551">
        <ele>751.8359375</ele>
        <time>2015-05-17T08:25:38Z</time>
      </trkpt>
      <trkpt lat="43.31251" lon="5.91553">
        <ele>751.90234375</ele>
        <time>2015-05-17T08:25:39Z</time>
      </trkpt>
      <trkpt lat="43.31251" lon="5.91555">
        <ele>751.98828125</ele>
        <time>2015-05-17T08:25:40Z</time>
      </trkpt>
      <trkpt lat="43.31253" lon="5.91587">
        <ele>753.01171875</ele>
        <time>2015-05-17T08:25:56Z</time>
      </trkpt>
      <trkpt lat="43.31253" lon="5.91623">
        <ele>753.12890625</ele>
        <time>2015-05-17T08:26:13Z</time>
      </trkpt>
      <trkpt lat="43.31252" lon="5.91654">
        <ele>753.06640625</ele>
        <time>2015-05-17T08:26:24Z</time>
      </trkpt>
      <trkpt lat="43.31253" lon="5.91656">
        <ele>753.1015625</ele>
        <time>2015-05-17T08:26:25Z</time>
      </trkpt>
      <trkpt lat="43.31253" lon="5.91659">
        <ele>753.125</ele>
        <time>2015-05-17T08:26:26Z</time>
      </trkpt>
      <trkpt lat="43.31258" lon="5.91692">
        <ele>752.15234375</ele>
        <time>2015-05-17T08:26:37Z</time>
      </trkpt>
      <trkpt lat="43.31261" lon="5.91739">
        <ele>750.765625</ele>
        <time>2015-05-17T08:26:49Z</time>
      </trkpt>
      <trkpt lat="43.31262" lon="5.91745">
        <ele>750.66796875</ele>
        <time>2015-05-17T08:26:50Z</time>
      </trkpt>
      <trkpt lat="43.31262" lon="5.9175">
        <ele>750.578125</ele>
        <time>2015-05-17T08:26:51Z</time>
      </trkpt>
      <trkpt lat="43.31261" lon="5.91756">
        <ele>750.59375</ele>
        <time>2015-05-17T08:26:52Z</time>
      </trkpt>
      <trkpt lat="43.31262" lon="5.91797">
        <ele>750.93359375</ele>
        <time>2015-05-17T08:27:01Z</time>
      </trkpt>
      <trkpt lat="43.31263" lon="5.91834">
        <ele>752.53515625</ele>
        <time>2015-05-17T08:27:13Z</time>
      </trkpt>
      <trkpt lat="43.31262" lon="5.91874">
        <ele>754.47265625</ele>
        <time>2015-05-17T08:27:28Z</time>
      </trkpt>
      <trkpt lat="43.31259" lon="5.91886">
        <ele>755.4375</ele>
        <time>2015-05-17T08:27:32Z</time>
      </trkpt>
      <trkpt lat="43.31256" lon="5.91895">
        <ele>756.16015625</ele>
        <time>2015-05-17T08:27:35Z</time>
      </trkpt>
      <trkpt lat="43.31257" lon="5.91898">
        <ele>756.359375</ele>
        <time>2015-05-17T08:27:36Z</time>
      </trkpt>
      <trkpt lat="43.3126" lon="5.91929">
        <ele>758.4765625</ele>
        <time>2015-05-17T08:27:48Z</time>
      </trkpt>
      <trkpt lat="43.3126" lon="5.91938">
        <ele>759.125</ele>
        <time>2015-05-17T08:27:52Z</time>
      </trkpt>
      <trkpt lat="43.31258" lon="5.91941">
        <ele>759.4453125</ele>
        <time>2015-05-17T08:27:54Z</time>
      </trkpt>
      <trkpt lat="43.31258" lon="5.91944">
        <ele>759.62890625</ele>
        <time>2015-05-17T08:27:55Z</time>
      </trkpt>
      <trkpt lat="43.31258" lon="5.91946">
        <ele>759.80859375</ele>
        <time>2015-05-17T08:27:56Z</time>
      </trkpt>
      <trkpt lat="43.31257" lon="5.91948">
        <ele>759.9765625</ele>
        <time>2015-05-17T08:27:57Z</time>
      </trkpt>
      <trkpt lat="43.31257" lon="5.9195">
        <ele>760.14453125</ele>
        <time>2015-05-17T08:27:58Z</time>
      </trkpt>
      <trkpt lat="43.31256" lon="5.91952">
        <ele>760.3046875</ele>
        <time>2015-05-17T08:27:59Z</time>
      </trkpt>
      <trkpt lat="43.31256" lon="5.91954">
        <ele>760.4609375</ele>
        <time>2015-05-17T08:28:00Z</time>
      </trkpt>
      <trkpt lat="43.31256" lon="5.91957">
        <ele>760.62890625</ele>
        <time>2015-05-17T08:28:01Z</time>
      </trkpt>
      <trkpt lat="43.31255" lon="5.91958">
        <ele>760.78125</ele>
        <time>2015-05-17T08:28:02Z</time>
      </trkpt>
      <trkpt lat="43.31255" lon="5.9196">
        <ele>760.9296875</ele>
        <time>2015-05-17T08:28:03Z</time>
      </trkpt>
      <trkpt lat="43.31253" lon="5.91968">
        <ele>761.546875</ele>
        <time>2015-05-17T08:28:07Z</time>
      </trkpt>
      <trkpt lat="43.31252" lon="5.91969">
        <ele>761.69921875</ele>
        <time>2015-05-17T08:28:08Z</time>
      </trkpt>
      <trkpt lat="43.31251" lon="5.91971">
        <ele>761.83984375</ele>
        <time>2015-05-17T08:28:09Z</time>
      </trkpt>
      <trkpt lat="43.31251" lon="5.91973">
        <ele>761.98046875</ele>
        <time>2015-05-17T08:28:10Z</time>
      </trkpt>
      <trkpt lat="43.3125" lon="5.91975">
        <ele>762.06640625</ele>
        <time>2015-05-17T08:28:11Z</time>
      </trkpt>
      <trkpt lat="43.31246" lon="5.91988">
        <ele>762.55859375</ele>
        <time>2015-05-17T08:28:19Z</time>
      </trkpt>
      <trkpt lat="43.31245" lon="5.9199">
        <ele>762.6171875</ele>
        <time>2015-05-17T08:28:20Z</time>
      </trkpt>
      <trkpt lat="43.31244" lon="5.91992">
        <ele>762.6875</ele>
        <time>2015-05-17T08:28:21Z</time>
      </trkpt>
      <trkpt lat="43.31243" lon="5.91994">
        <ele>762.765625</ele>
        <time>2015-05-17T08:28:22Z</time>
      </trkpt>
      <trkpt lat="43.31242" lon="5.91996">
        <ele>762.83984375</ele>
        <time>2015-05-17T08:28:23Z</time>
      </trkpt>
      <trkpt lat="43.31241" lon="5.91998">
        <ele>762.90234375</ele>
        <time>2015-05-17T08:28:24Z</time>
      </trkpt>
      <trkpt lat="43.31224" lon="5.92032">
        <ele>764.09375</ele>
        <time>2015-05-17T08:28:38Z</time>
      </trkpt>
      <trkpt lat="43.31218" lon="5.9207">
        <ele>765.4375</ele>
        <time>2015-05-17T08:28:49Z</time>
      </trkpt>
      <trkpt lat="43.3122" lon="5.92108">
        <ele>766.75</ele>
        <time>2015-05-17T08:29:00Z</time>
      </trkpt>
      <trkpt lat="43.31209" lon="5.92135">
        <ele>766.44921875</ele>
        <time>2015-05-17T08:29:09Z</time>
      </trkpt>
      <trkpt lat="43.31206" lon="5.92142">
        <ele>766.4296875</ele>
        <time>2015-05-17T08:29:12Z</time>
      </trkpt>
      <trkpt lat="43.31203" lon="5.92153">
        <ele>766.30859375</ele>
        <time>2015-05-17T08:29:23Z</time>
      </trkpt>
      <trkpt lat="43.31195" lon="5.92175">
        <ele>766.03125</ele>
        <time>2015-05-17T08:29:40Z</time>
      </trkpt>
      <trkpt lat="43.31176" lon="5.92194">
        <ele>765.3515625</ele>
        <time>2015-05-17T08:29:51Z</time>
      </trkpt>
      <trkpt lat="43.31152" lon="5.92224">
        <ele>765.48828125</ele>
        <time>2015-05-17T08:30:04Z</time>
      </trkpt>
      <trkpt lat="43.31144" lon="5.92236">
        <ele>765.4921875</ele>
        <time>2015-05-17T08:30:09Z</time>
      </trkpt>
      <trkpt lat="43.31143" lon="5.92239">
        <ele>765.5546875</ele>
        <time>2015-05-17T08:30:10Z</time>
      </trkpt>
      <trkpt lat="43.31142" lon="5.92241">
        <ele>765.63671875</ele>
        <time>2015-05-17T08:30:11Z</time>
      </trkpt>
      <trkpt lat="43.31141" lon="5.92243">
        <ele>765.7109375</ele>
        <time>2015-05-17T08:30:12Z</time>
      </trkpt>
      <trkpt lat="43.3114" lon="5.92245">
        <ele>765.77734375</ele>
        <time>2015-05-17T08:30:13Z</time>
      </trkpt>
      <trkpt lat="43.31128" lon="5.92272">
        <ele>766.68359375</ele>
        <time>2015-05-17T08:30:25Z</time>
      </trkpt>
      <trkpt lat="43.31129" lon="5.9228">
        <ele>766.6796875</ele>
        <time>2015-05-17T08:30:28Z</time>
      </trkpt>
      <trkpt lat="43.31127" lon="5.92287">
        <ele>766.671875</ele>
        <time>2015-05-17T08:30:31Z</time>
      </trkpt>
      <trkpt lat="43.31127" lon="5.92289">
        <ele>766.625</ele>
        <time>2015-05-17T08:30:32Z</time>
      </trkpt>
      <trkpt lat="43.31127" lon="5.92292">
        <ele>766.56640625</ele>
        <time>2015-05-17T08:30:33Z</time>
      </trkpt>
      <trkpt lat="43.31127" lon="5.92295">
        <ele>766.5078125</ele>
        <time>2015-05-17T08:30:35Z</time>
      </trkpt>
      <trkpt lat="43.31127" lon="5.92297">
        <ele>766.48828125</ele>
        <time>2015-05-17T08:30:36Z</time>
      </trkpt>
      <trkpt lat="43.31126" lon="5.92299">
        <ele>766.46875</ele>
        <time>2015-05-17T08:30:37Z</time>
      </trkpt>
      <trkpt lat="43.31126" lon="5.92302">
        <ele>766.4375</ele>
        <time>2015-05-17T08:30:38Z</time>
      </trkpt>
      <trkpt lat="43.31127" lon="5.92304">
        <ele>766.36328125</ele>
        <time>2015-05-17T08:30:39Z</time>
      </trkpt>
      <trkpt lat="43.31127" lon="5.92306">
        <ele>766.28515625</ele>
        <time>2015-05-17T08:30:40Z</time>
      </trkpt>
      <trkpt lat="43.3113" lon="5.92315">
        <ele>766</ele>
        <time>2015-05-17T08:30:45Z</time>
      </trkpt>
      <trkpt lat="43.31131" lon="5.92317">
        <ele>765.89453125</ele>
        <time>2015-05-17T08:30:46Z</time>
      </trkpt>
      <trkpt lat="43.31135" lon="5.92328">
        <ele>765.41015625</ele>
        <time>2015-05-17T08:30:51Z</time>
      </trkpt>
      <trkpt lat="43.31135" lon="5.9233">
        <ele>765.421875</ele>
        <time>2015-05-17T08:30:52Z</time>
      </trkpt>
      <trkpt lat="43.31128" lon="5.9236">
        <ele>766.17578125</ele>
        <time>2015-05-17T08:31:02Z</time>
      </trkpt>
      <trkpt lat="43.31125" lon="5.92375">
        <ele>766.0546875</ele>
        <time>2015-05-17T08:31:07Z</time>
      </trkpt>
      <trkpt lat="43.31123" lon="5.92377">
        <ele>766.125</ele>
        <time>2015-05-17T08:31:08Z</time>
      </trkpt>
      <trkpt lat="43.3111" lon="5.92397">
        <ele>767.06640625</ele>
        <time>2015-05-17T08:31:21Z</time>
      </trkpt>
      <trkpt lat="43.31095" lon="5.9242">
        <ele>768.0703125</ele>
        <time>2015-05-17T08:31:33Z</time>
      </trkpt>
      <trkpt lat="43.3107" lon="5.92439">
        <ele>769.59765625</ele>
        <time>2015-05-17T08:31:46Z</time>
      </trkpt>
      <trkpt lat="43.31052" lon="5.92478">
        <ele>767.80078125</ele>
        <time>2015-05-17T08:31:58Z</time>
      </trkpt>
      <trkpt lat="43.31043" lon="5.92491">
        <ele>767.3203125</ele>
        <time>2015-05-17T08:32:01Z</time>
      </trkpt>
      <trkpt lat="43.31035" lon="5.92502">
        <ele>766.9140625</ele>
        <time>2015-05-17T08:32:03Z</time>
      </trkpt>
      <trkpt lat="43.3102" lon="5.92518">
        <ele>766.2578125</ele>
        <time>2015-05-17T08:32:06Z</time>
      </trkpt>
      <trkpt lat="43.31015" lon="5.92521">
        <ele>766.1328125</ele>
        <time>2015-05-17T08:32:07Z</time>
      </trkpt>
      <trkpt lat="43.31003" lon="5.92532">
        <ele>765.828125</ele>
        <time>2015-05-17T08:32:11Z</time>
      </trkpt>
      <trkpt lat="43.31" lon="5.92539">
        <ele>765.6015625</ele>
        <time>2015-05-17T08:32:13Z</time>
      </trkpt>
      <trkpt lat="43.30972" lon="5.92565">
        <ele>763.66796875</ele>
        <time>2015-05-17T08:32:22Z</time>
      </trkpt>
      <trkpt lat="43.30969" lon="5.92569">
        <ele>763.43359375</ele>
        <time>2015-05-17T08:32:23Z</time>
      </trkpt>
      <trkpt lat="43.30965" lon="5.92575">
        <ele>763.23046875</ele>
        <time>2015-05-17T08:32:24Z</time>
      </trkpt>
      <trkpt lat="43.30961" lon="5.9258">
        <ele>763.06640625</ele>
        <time>2015-05-17T08:32:25Z</time>
      </trkpt>
      <trkpt lat="43.30957" lon="5.92586">
        <ele>763</ele>
        <time>2015-05-17T08:32:26Z</time>
      </trkpt>
      <trkpt lat="43.30953" lon="5.9259">
        <ele>763</ele>
        <time>2015-05-17T08:32:27Z</time>
      </trkpt>
      <trkpt lat="43.30949" lon="5.92594">
        <ele>763</ele>
        <time>2015-05-17T08:32:28Z</time>
      </trkpt>
      <trkpt lat="43.30925" lon="5.92621">
        <ele>761.5078125</ele>
        <time>2015-05-17T08:32:36Z</time>
      </trkpt>
      <trkpt lat="43.30895" lon="5.92657">
        <ele>759.421875</ele>
        <time>2015-05-17T08:32:44Z</time>
      </trkpt>
      <trkpt lat="43.3089" lon="5.92662">
        <ele>759.046875</ele>
        <time>2015-05-17T08:32:45Z</time>
      </trkpt>
      <trkpt lat="43.30884" lon="5.92666">
        <ele>758.8203125</ele>
        <time>2015-05-17T08:32:46Z</time>
      </trkpt>
      <trkpt lat="43.30878" lon="5.92669">
        <ele>758.61328125</ele>
        <time>2015-05-17T08:32:47Z</time>
      </trkpt>
      <trkpt lat="43.30872" lon="5.92672">
        <ele>758.40234375</ele>
        <time>2015-05-17T08:32:48Z</time>
      </trkpt>
      <trkpt lat="43.30867" lon="5.92675">
        <ele>758.19921875</ele>
        <time>2015-05-17T08:32:49Z</time>
      </trkpt>
      <trkpt lat="43.30862" lon="5.92678">
        <ele>758.01171875</ele>
        <time>2015-05-17T08:32:50Z</time>
      </trkpt>
      <trkpt lat="43.30853" lon="5.92688">
        <ele>757.69921875</ele>
        <time>2015-05-17T08:32:52Z</time>
      </trkpt>
      <trkpt lat="43.30849" lon="5.92692">
        <ele>757.578125</ele>
        <time>2015-05-17T08:32:53Z</time>
      </trkpt>
      <trkpt lat="43.30826" lon="5.92732">
        <ele>757.06640625</ele>
        <time>2015-05-17T08:33:03Z</time>
      </trkpt>
      <trkpt lat="43.30824" lon="5.92736">
        <ele>757.1484375</ele>
        <time>2015-05-17T08:33:04Z</time>
      </trkpt>
      <trkpt lat="43.30822" lon="5.9274">
        <ele>757.25</ele>
        <time>2015-05-17T08:33:05Z</time>
      </trkpt>
      <trkpt lat="43.3082" lon="5.92746">
        <ele>757.34765625</ele>
        <time>2015-05-17T08:33:06Z</time>
      </trkpt>
      <trkpt lat="43.30818" lon="5.92751">
        <ele>757.4296875</ele>
        <time>2015-05-17T08:33:07Z</time>
      </trkpt>
      <trkpt lat="43.30816" lon="5.92757">
        <ele>757.3515625</ele>
        <time>2015-05-17T08:33:08Z</time>
      </trkpt>
      <trkpt lat="43.30813" lon="5.92763">
        <ele>757.25</ele>
        <time>2015-05-17T08:33:09Z</time>
      </trkpt>
      <trkpt lat="43.3081" lon="5.92768">
        <ele>757.14453125</ele>
        <time>2015-05-17T08:33:10Z</time>
      </trkpt>
      <trkpt lat="43.30784" lon="5.92815">
        <ele>757.5625</ele>
        <time>2015-05-17T08:33:22Z</time>
      </trkpt>
      <trkpt lat="43.30769" lon="5.92838">
        <ele>757.875</ele>
        <time>2015-05-17T08:33:28Z</time>
      </trkpt>
      <trkpt lat="43.30767" lon="5.92844">
        <ele>757.98046875</ele>
        <time>2015-05-17T08:33:29Z</time>
      </trkpt>
      <trkpt lat="43.30764" lon="5.9285">
        <ele>758.1015625</ele>
        <time>2015-05-17T08:33:30Z</time>
      </trkpt>
      <trkpt lat="43.30754" lon="5.9287">
        <ele>758.4375</ele>
        <time>2015-05-17T08:33:35Z</time>
      </trkpt>
      <trkpt lat="43.30751" lon="5.92873">
        <ele>758.43359375</ele>
        <time>2015-05-17T08:33:36Z</time>
      </trkpt>
      <trkpt lat="43.30717" lon="5.92918">
        <ele>759.859375</ele>
        <time>2015-05-17T08:33:49Z</time>
      </trkpt>
      <trkpt lat="43.30694" lon="5.92951">
        <ele>761.46875</ele>
        <time>2015-05-17T08:34:02Z</time>
      </trkpt>
      <trkpt lat="43.30678" lon="5.9297">
        <ele>762.83984375</ele>
        <time>2015-05-17T08:34:15Z</time>
      </trkpt>
      <trkpt lat="43.30671" lon="5.92977">
        <ele>763.1953125</ele>
        <time>2015-05-17T08:34:21Z</time>
      </trkpt>
      <trkpt lat="43.30671" lon="5.92979">
        <ele>763.24609375</ele>
        <time>2015-05-17T08:34:22Z</time>
      </trkpt>
      <trkpt lat="43.30659" lon="5.93002">
        <ele>764.34765625</ele>
        <time>2015-05-17T08:34:37Z</time>
      </trkpt>
      <trkpt lat="43.30655" lon="5.93011">
        <ele>764.8046875</ele>
        <time>2015-05-17T08:34:43Z</time>
      </trkpt>
      <trkpt lat="43.30655" lon="5.93012">
        <ele>764.87890625</ele>
        <time>2015-05-17T08:34:44Z</time>
      </trkpt>
      <trkpt lat="43.30654" lon="5.93013">
        <ele>764.95703125</ele>
        <time>2015-05-17T08:34:45Z</time>
      </trkpt>
      <trkpt lat="43.30641" lon="5.93032">
        <ele>765.9375</ele>
        <time>2015-05-17T08:34:58Z</time>
      </trkpt>
      <trkpt lat="43.30618" lon="5.93055">
        <ele>766.77734375</ele>
        <time>2015-05-17T08:35:14Z</time>
      </trkpt>
      <trkpt lat="43.3059" lon="5.93076">
        <ele>767</ele>
        <time>2015-05-17T08:35:28Z</time>
      </trkpt>
      <trkpt lat="43.30588" lon="5.93079">
        <ele>767</ele>
        <time>2015-05-17T08:35:29Z</time>
      </trkpt>
      <trkpt lat="43.30583" lon="5.93127">
        <ele>767.984375</ele>
        <time>2015-05-17T08:35:41Z</time>
      </trkpt>
      <trkpt lat="43.30586" lon="5.93173">
        <ele>767.31640625</ele>
        <time>2015-05-17T08:35:49Z</time>
      </trkpt>
      <trkpt lat="43.30589" lon="5.93185">
        <ele>767.72265625</ele>
        <time>2015-05-17T08:35:51Z</time>
      </trkpt>
      <trkpt lat="43.3059" lon="5.93191">
        <ele>767.8984375</ele>
        <time>2015-05-17T08:35:52Z</time>
      </trkpt>
      <trkpt lat="43.30591" lon="5.93235">
        <ele>768.734375</ele>
        <time>2015-05-17T08:36:03Z</time>
      </trkpt>
      <trkpt lat="43.30587" lon="5.93286">
        <ele>770.03515625</ele>
        <time>2015-05-17T08:36:19Z</time>
      </trkpt>
      <trkpt lat="43.30584" lon="5.93314">
        <ele>770.015625</ele>
        <time>2015-05-17T08:36:31Z</time>
      </trkpt>
      <trkpt lat="43.30585" lon="5.93314">
        <ele>770.03515625</ele>
        <time>2015-05-17T08:36:44Z</time>
      </trkpt>
      <trkpt lat="43.30586" lon="5.93315">
        <ele>770.08203125</ele>
        <time>2015-05-17T08:37:04Z</time>
      </trkpt>
      <trkpt lat="43.30585" lon="5.93315">
        <ele>770.0390625</ele>
        <time>2015-05-17T08:37:35Z</time>
      </trkpt>
      <trkpt lat="43.30584" lon="5.93318">
        <ele>770.01171875</ele>
        <time>2015-05-17T08:38:19Z</time>
      </trkpt>
      <trkpt lat="43.30584" lon="5.93314">
        <ele>770.015625</ele>
        <time>2015-05-17T08:38:50Z</time>
      </trkpt>
      <trkpt lat="43.30585" lon="5.93314">
        <ele>770.0390625</ele>
        <time>2015-05-17T08:39:20Z</time>
      </trkpt>
      <trkpt lat="43.30584" lon="5.93314">
        <ele>770.00390625</ele>
        <time>2015-05-17T08:39:59Z</time>
      </trkpt>
      <trkpt lat="43.30585" lon="5.93315">
        <ele>770.05859375</ele>
        <time>2015-05-17T08:40:26Z</time>
      </trkpt>
      <trkpt lat="43.30585" lon="5.93314">
        <ele>770.04296875</ele>
        <time>2015-05-17T08:41:02Z</time>
      </trkpt>
      <trkpt lat="43.30585" lon="5.93315">
        <ele>770.04296875</ele>
        <time>2015-05-17T08:41:44Z</time>
      </trkpt>
      <trkpt lat="43.30585" lon="5.93315">
        <ele>770.0625</ele>
        <time>2015-05-17T08:42:34Z</time>
      </trkpt>
      <trkpt lat="43.30585" lon="5.93315">
        <ele>770.03515625</ele>
        <time>2015-05-17T08:43:04Z</time>
      </trkpt>
      <trkpt lat="43.30585" lon="5.93314">
        <ele>770.06640625</ele>
        <time>2015-05-17T08:43:35Z</time>
      </trkpt>
      <trkpt lat="43.30586" lon="5.93314">
        <ele>770.08984375</ele>
        <time>2015-05-17T08:44:10Z</time>
      </trkpt>
      <trkpt lat="43.30586" lon="5.93314">
        <ele>770.09375</ele>
        <time>2015-05-17T08:44:44Z</time>
      </trkpt>
      <trkpt lat="43.30585" lon="5.93312">
        <ele>770.05078125</ele>
        <time>2015-05-17T08:45:16Z</time>
      </trkpt>
      <trkpt lat="43.30585" lon="5.93313">
        <ele>770.0546875</ele>
        <time>2015-05-17T08:45:43Z</time>
      </trkpt>
      <trkpt lat="43.30585" lon="5.93314">
        <ele>770.0625</ele>
        <time>2015-05-17T08:46:01Z</time>
      </trkpt>
      <trkpt lat="43.30586" lon="5.93314">
        <ele>770.08203125</ele>
        <time>2015-05-17T08:46:31Z</time>
      </trkpt>
      <trkpt lat="43.30587" lon="5.93314">
        <ele>770.10546875</ele>
        <time>2015-05-17T08:47:03Z</time>
      </trkpt>
      <trkpt lat="43.30587" lon="5.93312">
        <ele>770.1328125</ele>
        <time>2015-05-17T08:47:35Z</time>
      </trkpt>
      <trkpt lat="43.30585" lon="5.93313">
        <ele>770.0546875</ele>
        <time>2015-05-17T08:48:05Z</time>
      </trkpt>
      <trkpt lat="43.30587" lon="5.93313">
        <ele>770.12109375</ele>
        <time>2015-05-17T08:48:45Z</time>
      </trkpt>
      <trkpt lat="43.30587" lon="5.93312">
        <ele>770.10546875</ele>
        <time>2015-05-17T08:49:22Z</time>
      </trkpt>
      <trkpt lat="43.30587" lon="5.93313">
        <ele>770.1171875</ele>
        <time>2015-05-17T08:49:46Z</time>
      </trkpt>
      <trkpt lat="43.30589" lon="5.93315">
        <ele>770.18359375</ele>
        <time>2015-05-17T08:50:09Z</time>
      </trkpt>
      <trkpt lat="43.3059" lon="5.93315">
        <ele>770.23046875</ele>
        <time>2015-05-17T08:50:10Z</time>
      </trkpt>
      <trkpt lat="43.30591" lon="5.93317">
        <ele>770.265625</ele>
        <time>2015-05-17T08:50:11Z</time>
      </trkpt>
      <trkpt lat="43.30592" lon="5.93318">
        <ele>770.29296875</ele>
        <time>2015-05-17T08:50:12Z</time>
      </trkpt>
      <trkpt lat="43.30592" lon="5.93319">
        <ele>770.30859375</ele>
        <time>2015-05-17T08:50:13Z</time>
      </trkpt>
      <trkpt lat="43.30593" lon="5.93321">
        <ele>770.3203125</ele>
        <time>2015-05-17T08:50:14Z</time>
      </trkpt>
      <trkpt lat="43.30593" lon="5.93323">
        <ele>770.33984375</ele>
        <time>2015-05-17T08:50:15Z</time>
      </trkpt>
      <trkpt lat="43.30593" lon="5.93324">
        <ele>770.3515625</ele>
        <time>2015-05-17T08:50:16Z</time>
      </trkpt>
      <trkpt lat="43.30594" lon="5.93326">
        <ele>770.375</ele>
        <time>2015-05-17T08:50:17Z</time>
      </trkpt>
      <trkpt lat="43.30595" lon="5.93327">
        <ele>770.39453125</ele>
        <time>2015-05-17T08:50:18Z</time>
      </trkpt>
      <trkpt lat="43.30595" lon="5.93329">
        <ele>770.4140625</ele>
        <time>2015-05-17T08:50:19Z</time>
      </trkpt>
      <trkpt lat="43.30596" lon="5.93331">
        <ele>770.4375</ele>
        <time>2015-05-17T08:50:20Z</time>
      </trkpt>
      <trkpt lat="43.30596" lon="5.93333">
        <ele>770.45703125</ele>
        <time>2015-05-17T08:50:21Z</time>
      </trkpt>
      <trkpt lat="43.30597" lon="5.93335">
        <ele>770.48828125</ele>
        <time>2015-05-17T08:50:22Z</time>
      </trkpt>
      <trkpt lat="43.30598" lon="5.93337">
        <ele>770.52734375</ele>
        <time>2015-05-17T08:50:23Z</time>
      </trkpt>
      <trkpt lat="43.30599" lon="5.93339">
        <ele>770.5625</ele>
        <time>2015-05-17T08:50:24Z</time>
      </trkpt>
      <trkpt lat="43.306" lon="5.93341">
        <ele>770.5859375</ele>
        <time>2015-05-17T08:50:25Z</time>
      </trkpt>
      <trkpt lat="43.30601" lon="5.93343">
        <ele>770.625</ele>
        <time>2015-05-17T08:50:26Z</time>
      </trkpt>
      <trkpt lat="43.30602" lon="5.93345">
        <ele>770.66015625</ele>
        <time>2015-05-17T08:50:27Z</time>
      </trkpt>
      <trkpt lat="43.30603" lon="5.93346">
        <ele>770.69140625</ele>
        <time>2015-05-17T08:50:28Z</time>
      </trkpt>
      <trkpt lat="43.30604" lon="5.93348">
        <ele>770.73046875</ele>
        <time>2015-05-17T08:50:29Z</time>
      </trkpt>
      <trkpt lat="43.30605" lon="5.9335">
        <ele>770.7734375</ele>
        <time>2015-05-17T08:50:30Z</time>
      </trkpt>
      <trkpt lat="43.30606" lon="5.93352">
        <ele>770.8203125</ele>
        <time>2015-05-17T08:50:31Z</time>
      </trkpt>
      <trkpt lat="43.30608" lon="5.93354">
        <ele>770.87109375</ele>
        <time>2015-05-17T08:50:32Z</time>
      </trkpt>
      <trkpt lat="43.30609" lon="5.93355">
        <ele>770.92578125</ele>
        <time>2015-05-17T08:50:33Z</time>
      </trkpt>
      <trkpt lat="43.30636" lon="5.93374">
        <ele>770.94140625</ele>
        <time>2015-05-17T08:50:45Z</time>
      </trkpt>
      <trkpt lat="43.30654" lon="5.93423">
        <ele>772.34765625</ele>
        <time>2015-05-17T08:51:01Z</time>
      </trkpt>
      <trkpt lat="43.30681" lon="5.93456">
        <ele>774.21875</ele>
        <time>2015-05-17T08:51:13Z</time>
      </trkpt>
      <trkpt lat="43.30715" lon="5.93469">
        <ele>775.6328125</ele>
        <time>2015-05-17T08:51:25Z</time>
      </trkpt>
      <trkpt lat="43.30768" lon="5.93499">
        <ele>775.3671875</ele>
        <time>2015-05-17T08:51:44Z</time>
      </trkpt>
      <trkpt lat="43.30792" lon="5.93524">
        <ele>775.37890625</ele>
        <time>2015-05-17T08:51:55Z</time>
      </trkpt>
      <trkpt lat="43.3079" lon="5.93574">
        <ele>775.82421875</ele>
        <time>2015-05-17T08:52:09Z</time>
      </trkpt>
      <trkpt lat="43.308" lon="5.93597">
        <ele>774.5</ele>
        <time>2015-05-17T08:52:15Z</time>
      </trkpt>
      <trkpt lat="43.30808" lon="5.93605">
        <ele>773.8046875</ele>
        <time>2015-05-17T08:52:17Z</time>
      </trkpt>
      <trkpt lat="43.30815" lon="5.93616">
        <ele>772.86328125</ele>
        <time>2015-05-17T08:52:19Z</time>
      </trkpt>
      <trkpt lat="43.30818" lon="5.93623">
        <ele>772.44140625</ele>
        <time>2015-05-17T08:52:20Z</time>
      </trkpt>
      <trkpt lat="43.3082" lon="5.9363">
        <ele>772.08984375</ele>
        <time>2015-05-17T08:52:21Z</time>
      </trkpt>
      <trkpt lat="43.30825" lon="5.93645">
        <ele>771.5859375</ele>
        <time>2015-05-17T08:52:23Z</time>
      </trkpt>
      <trkpt lat="43.30835" lon="5.93664">
        <ele>770.83203125</ele>
        <time>2015-05-17T08:52:26Z</time>
      </trkpt>
      <trkpt lat="43.3084" lon="5.93679">
        <ele>770.3359375</ele>
        <time>2015-05-17T08:52:28Z</time>
      </trkpt>
      <trkpt lat="43.30848" lon="5.93711">
        <ele>768.5234375</ele>
        <time>2015-05-17T08:52:32Z</time>
      </trkpt>
      <trkpt lat="43.3085" lon="5.93718">
        <ele>767.9765625</ele>
        <time>2015-05-17T08:52:33Z</time>
      </trkpt>
      <trkpt lat="43.30854" lon="5.93723">
        <ele>767.5234375</ele>
        <time>2015-05-17T08:52:34Z</time>
      </trkpt>
      <trkpt lat="43.30859" lon="5.93727">
        <ele>767.1875</ele>
        <time>2015-05-17T08:52:35Z</time>
      </trkpt>
      <trkpt lat="43.30864" lon="5.9373">
        <ele>766.7109375</ele>
        <time>2015-05-17T08:52:36Z</time>
      </trkpt>
      <trkpt lat="43.3087" lon="5.93734">
        <ele>766.10546875</ele>
        <time>2015-05-17T08:52:37Z</time>
      </trkpt>
      <trkpt lat="43.30875" lon="5.93738">
        <ele>765.4921875</ele>
        <time>2015-05-17T08:52:38Z</time>
      </trkpt>
      <trkpt lat="43.3088" lon="5.93743">
        <ele>764.9765625</ele>
        <time>2015-05-17T08:52:39Z</time>
      </trkpt>
      <trkpt lat="43.30883" lon="5.9375">
        <ele>764.6015625</ele>
        <time>2015-05-17T08:52:40Z</time>
      </trkpt>
      <trkpt lat="43.30886" lon="5.93757">
        <ele>764.5859375</ele>
        <time>2015-05-17T08:52:41Z</time>
      </trkpt>
      <trkpt lat="43.30888" lon="5.93765">
        <ele>764.69140625</ele>
        <time>2015-05-17T08:52:42Z</time>
      </trkpt>
      <trkpt lat="43.30889" lon="5.93773">
        <ele>764.87890625</ele>
        <time>2015-05-17T08:52:43Z</time>
      </trkpt>
      <trkpt lat="43.3089" lon="5.93788">
        <ele>764.890625</ele>
        <time>2015-05-17T08:52:45Z</time>
      </trkpt>
      <trkpt lat="43.3089" lon="5.93795">
        <ele>764.87109375</ele>
        <time>2015-05-17T08:52:46Z</time>
      </trkpt>
      <trkpt lat="43.3089" lon="5.93809">
        <ele>764.859375</ele>
        <time>2015-05-17T08:52:48Z</time>
      </trkpt>
      <trkpt lat="43.30891" lon="5.93815">
        <ele>764.8359375</ele>
        <time>2015-05-17T08:52:49Z</time>
      </trkpt>
      <trkpt lat="43.3089" lon="5.93821">
        <ele>764.84765625</ele>
        <time>2015-05-17T08:52:50Z</time>
      </trkpt>
      <trkpt lat="43.30891" lon="5.93827">
        <ele>764.796875</ele>
        <time>2015-05-17T08:52:51Z</time>
      </trkpt>
      <trkpt lat="43.30892" lon="5.93835">
        <ele>764.64453125</ele>
        <time>2015-05-17T08:52:52Z</time>
      </trkpt>
      <trkpt lat="43.30896" lon="5.93872">
        <ele>762.50390625</ele>
        <time>2015-05-17T08:52:57Z</time>
      </trkpt>
      <trkpt lat="43.30899" lon="5.93889">
        <ele>761.203125</ele>
        <time>2015-05-17T08:52:59Z</time>
      </trkpt>
      <trkpt lat="43.30902" lon="5.93896">
        <ele>760.4609375</ele>
        <time>2015-05-17T08:53:00Z</time>
      </trkpt>
      <trkpt lat="43.30907" lon="5.93902">
        <ele>759.6875</ele>
        <time>2015-05-17T08:53:01Z</time>
      </trkpt>
      <trkpt lat="43.30913" lon="5.93907">
        <ele>758.91015625</ele>
        <time>2015-05-17T08:53:02Z</time>
      </trkpt>
      <trkpt lat="43.30919" lon="5.93912">
        <ele>758.10546875</ele>
        <time>2015-05-17T08:53:03Z</time>
      </trkpt>
      <trkpt lat="43.30924" lon="5.93914">
        <ele>757.34765625</ele>
        <time>2015-05-17T08:53:04Z</time>
      </trkpt>
      <trkpt lat="43.30928" lon="5.93917">
        <ele>756.7265625</ele>
        <time>2015-05-17T08:53:05Z</time>
      </trkpt>
      <trkpt lat="43.30931" lon="5.93921">
        <ele>756.09375</ele>
        <time>2015-05-17T08:53:06Z</time>
      </trkpt>
      <trkpt lat="43.30934" lon="5.93925">
        <ele>755.44140625</ele>
        <time>2015-05-17T08:53:07Z</time>
      </trkpt>
      <trkpt lat="43.30936" lon="5.93931">
        <ele>754.78125</ele>
        <time>2015-05-17T08:53:08Z</time>
      </trkpt>
      <trkpt lat="43.30938" lon="5.93938">
        <ele>754.1328125</ele>
        <time>2015-05-17T08:53:09Z</time>
      </trkpt>
      <trkpt lat="43.30938" lon="5.93946">
        <ele>753.6015625</ele>
        <time>2015-05-17T08:53:10Z</time>
      </trkpt>
      <trkpt lat="43.30937" lon="5.93953">
        <ele>753.1875</ele>
        <time>2015-05-17T08:53:11Z</time>
      </trkpt>
      <trkpt lat="43.30935" lon="5.93961">
        <ele>752.765625</ele>
        <time>2015-05-17T08:53:12Z</time>
      </trkpt>
      <trkpt lat="43.30933" lon="5.93978">
        <ele>751.875</ele>
        <time>2015-05-17T08:53:14Z</time>
      </trkpt>
      <trkpt lat="43.30933" lon="5.93986">
        <ele>751.44140625</ele>
        <time>2015-05-17T08:53:15Z</time>
      </trkpt>
      <trkpt lat="43.30934" lon="5.93994">
        <ele>750.9921875</ele>
        <time>2015-05-17T08:53:16Z</time>
      </trkpt>
      <trkpt lat="43.30936" lon="5.94018">
        <ele>749.265625</ele>
        <time>2015-05-17T08:53:19Z</time>
      </trkpt>
      <trkpt lat="43.30936" lon="5.94027">
        <ele>748.64453125</ele>
        <time>2015-05-17T08:53:20Z</time>
      </trkpt>
      <trkpt lat="43.30935" lon="5.94037">
        <ele>748.09375</ele>
        <time>2015-05-17T08:53:21Z</time>
      </trkpt>
      <trkpt lat="43.30935" lon="5.94047">
        <ele>747.4609375</ele>
        <time>2015-05-17T08:53:22Z</time>
      </trkpt>
      <trkpt lat="43.30936" lon="5.94057">
        <ele>746.8359375</ele>
        <time>2015-05-17T08:53:23Z</time>
      </trkpt>
      <trkpt lat="43.30938" lon="5.94078">
        <ele>745.87890625</ele>
        <time>2015-05-17T08:53:25Z</time>
      </trkpt>
      <trkpt lat="43.30941" lon="5.94097">
        <ele>744.359375</ele>
        <time>2015-05-17T08:53:27Z</time>
      </trkpt>
      <trkpt lat="43.30944" lon="5.94106">
        <ele>743.41015625</ele>
        <time>2015-05-17T08:53:28Z</time>
      </trkpt>
      <trkpt lat="43.30947" lon="5.94115">
        <ele>742.5234375</ele>
        <time>2015-05-17T08:53:29Z</time>
      </trkpt>
      <trkpt lat="43.30964" lon="5.94155">
        <ele>739.11328125</ele>
        <time>2015-05-17T08:53:33Z</time>
      </trkpt>
      <trkpt lat="43.30974" lon="5.94186">
        <ele>736.4453125</ele>
        <time>2015-05-17T08:53:36Z</time>
      </trkpt>
      <trkpt lat="43.30976" lon="5.94196">
        <ele>735.66796875</ele>
        <time>2015-05-17T08:53:37Z</time>
      </trkpt>
      <trkpt lat="43.30977" lon="5.94207">
        <ele>735.109375</ele>
        <time>2015-05-17T08:53:38Z</time>
      </trkpt>
      <trkpt lat="43.30979" lon="5.94218">
        <ele>734.44140625</ele>
        <time>2015-05-17T08:53:39Z</time>
      </trkpt>
      <trkpt lat="43.30982" lon="5.94228">
        <ele>733.546875</ele>
        <time>2015-05-17T08:53:40Z</time>
      </trkpt>
      <trkpt lat="43.30985" lon="5.94238">
        <ele>732.66796875</ele>
        <time>2015-05-17T08:53:41Z</time>
      </trkpt>
      <trkpt lat="43.30999" lon="5.94299">
        <ele>728.27734375</ele>
        <time>2015-05-17T08:53:47Z</time>
      </trkpt>
      <trkpt lat="43.31002" lon="5.94309">
        <ele>727.52734375</ele>
        <time>2015-05-17T08:53:48Z</time>
      </trkpt>
      <trkpt lat="43.31012" lon="5.94334">
        <ele>725.0703125</ele>
        <time>2015-05-17T08:53:51Z</time>
      </trkpt>
      <trkpt lat="43.31016" lon="5.9435">
        <ele>724.234375</ele>
        <time>2015-05-17T08:53:53Z</time>
      </trkpt>
      <trkpt lat="43.31018" lon="5.94355">
        <ele>723.8671875</ele>
        <time>2015-05-17T08:53:54Z</time>
      </trkpt>
      <trkpt lat="43.31022" lon="5.94361">
        <ele>723.43359375</ele>
        <time>2015-05-17T08:53:55Z</time>
      </trkpt>
      <trkpt lat="43.31026" lon="5.94365">
        <ele>722.94921875</ele>
        <time>2015-05-17T08:53:56Z</time>
      </trkpt>
      <trkpt lat="43.3103" lon="5.94369">
        <ele>722.53515625</ele>
        <time>2015-05-17T08:53:57Z</time>
      </trkpt>
      <trkpt lat="43.31033" lon="5.94371">
        <ele>722.20703125</ele>
        <time>2015-05-17T08:53:58Z</time>
      </trkpt>
      <trkpt lat="43.31036" lon="5.94372">
        <ele>722.0078125</ele>
        <time>2015-05-17T08:53:59Z</time>
      </trkpt>
      <trkpt lat="43.31037" lon="5.94372">
        <ele>721.8671875</ele>
        <time>2015-05-17T08:54:00Z</time>
      </trkpt>
      <trkpt lat="43.31039" lon="5.94373">
        <ele>721.7265625</ele>
        <time>2015-05-17T08:54:01Z</time>
      </trkpt>
      <trkpt lat="43.31041" lon="5.94373">
        <ele>721.56640625</ele>
        <time>2015-05-17T08:54:02Z</time>
      </trkpt>
      <trkpt lat="43.31043" lon="5.94374">
        <ele>721.375</ele>
        <time>2015-05-17T08:54:03Z</time>
      </trkpt>
      <trkpt lat="43.31046" lon="5.94375">
        <ele>721.1484375</ele>
        <time>2015-05-17T08:54:04Z</time>
      </trkpt>
      <trkpt lat="43.31049" lon="5.94377">
        <ele>720.8671875</ele>
        <time>2015-05-17T08:54:05Z</time>
      </trkpt>
      <trkpt lat="43.31057" lon="5.94382">
        <ele>720.15625</ele>
        <time>2015-05-17T08:54:07Z</time>
      </trkpt>
      <trkpt lat="43.3106" lon="5.94386">
        <ele>719.7421875</ele>
        <time>2015-05-17T08:54:08Z</time>
      </trkpt>
      <trkpt lat="43.31064" lon="5.94391">
        <ele>719.203125</ele>
        <time>2015-05-17T08:54:09Z</time>
      </trkpt>
      <trkpt lat="43.31067" lon="5.94397">
        <ele>718.55859375</ele>
        <time>2015-05-17T08:54:10Z</time>
      </trkpt>
      <trkpt lat="43.31069" lon="5.94404">
        <ele>717.875</ele>
        <time>2015-05-17T08:54:11Z</time>
      </trkpt>
      <trkpt lat="43.31071" lon="5.94412">
        <ele>717.15234375</ele>
        <time>2015-05-17T08:54:12Z</time>
      </trkpt>
      <trkpt lat="43.31079" lon="5.94436">
        <ele>715.6015625</ele>
        <time>2015-05-17T08:54:15Z</time>
      </trkpt>
      <trkpt lat="43.3108" lon="5.94445">
        <ele>715.11328125</ele>
        <time>2015-05-17T08:54:16Z</time>
      </trkpt>
      <trkpt lat="43.31081" lon="5.94454">
        <ele>714.39453125</ele>
        <time>2015-05-17T08:54:17Z</time>
      </trkpt>
      <trkpt lat="43.31081" lon="5.94463">
        <ele>713.734375</ele>
        <time>2015-05-17T08:54:18Z</time>
      </trkpt>
      <trkpt lat="43.31081" lon="5.94471">
        <ele>713.171875</ele>
        <time>2015-05-17T08:54:19Z</time>
      </trkpt>
      <trkpt lat="43.31079" lon="5.94479">
        <ele>712.7109375</ele>
        <time>2015-05-17T08:54:20Z</time>
      </trkpt>
      <trkpt lat="43.31078" lon="5.94487">
        <ele>712.27734375</ele>
        <time>2015-05-17T08:54:21Z</time>
      </trkpt>
      <trkpt lat="43.31077" lon="5.94495">
        <ele>711.80078125</ele>
        <time>2015-05-17T08:54:22Z</time>
      </trkpt>
      <trkpt lat="43.31076" lon="5.94503">
        <ele>711.25390625</ele>
        <time>2015-05-17T08:54:23Z</time>
      </trkpt>
      <trkpt lat="43.31077" lon="5.94511">
        <ele>710.61328125</ele>
        <time>2015-05-17T08:54:24Z</time>
      </trkpt>
      <trkpt lat="43.31079" lon="5.94519">
        <ele>709.890625</ele>
        <time>2015-05-17T08:54:25Z</time>
      </trkpt>
      <trkpt lat="43.31089" lon="5.94556">
        <ele>706.4765625</ele>
        <time>2015-05-17T08:54:29Z</time>
      </trkpt>
      <trkpt lat="43.31093" lon="5.94574">
        <ele>704.828125</ele>
        <time>2015-05-17T08:54:31Z</time>
      </trkpt>
      <trkpt lat="43.31096" lon="5.94593">
        <ele>703.35546875</ele>
        <time>2015-05-17T08:54:33Z</time>
      </trkpt>
      <trkpt lat="43.31097" lon="5.94607">
        <ele>702.19140625</ele>
        <time>2015-05-17T08:54:35Z</time>
      </trkpt>
      <trkpt lat="43.31097" lon="5.94615">
        <ele>701.59765625</ele>
        <time>2015-05-17T08:54:36Z</time>
      </trkpt>
      <trkpt lat="43.31095" lon="5.94628">
        <ele>700.4375</ele>
        <time>2015-05-17T08:54:38Z</time>
      </trkpt>
      <trkpt lat="43.31093" lon="5.94634">
        <ele>699.96484375</ele>
        <time>2015-05-17T08:54:39Z</time>
      </trkpt>
      <trkpt lat="43.3109" lon="5.9464">
        <ele>699.68359375</ele>
        <time>2015-05-17T08:54:40Z</time>
      </trkpt>
      <trkpt lat="43.31082" lon="5.9465">
        <ele>699.59765625</ele>
        <time>2015-05-17T08:54:42Z</time>
      </trkpt>
      <trkpt lat="43.31081" lon="5.94657">
        <ele>699.4375</ele>
        <time>2015-05-17T08:54:43Z</time>
      </trkpt>
      <trkpt lat="43.31081" lon="5.94663">
        <ele>699.16015625</ele>
        <time>2015-05-17T08:54:44Z</time>
      </trkpt>
      <trkpt lat="43.31083" lon="5.9467">
        <ele>698.6640625</ele>
        <time>2015-05-17T08:54:45Z</time>
      </trkpt>
      <trkpt lat="43.31086" lon="5.94677">
        <ele>697.984375</ele>
        <time>2015-05-17T08:54:46Z</time>
      </trkpt>
      <trkpt lat="43.3109" lon="5.94684">
        <ele>697.31640625</ele>
        <time>2015-05-17T08:54:47Z</time>
      </trkpt>
      <trkpt lat="43.31094" lon="5.94692">
        <ele>696.68359375</ele>
        <time>2015-05-17T08:54:48Z</time>
      </trkpt>
      <trkpt lat="43.31106" lon="5.94717">
        <ele>694.43359375</ele>
        <time>2015-05-17T08:54:51Z</time>
      </trkpt>
      <trkpt lat="43.31126" lon="5.94775">
        <ele>689.9765625</ele>
        <time>2015-05-17T08:54:57Z</time>
      </trkpt>
      <trkpt lat="43.31136" lon="5.94815">
        <ele>687.34375</ele>
        <time>2015-05-17T08:55:01Z</time>
      </trkpt>
      <trkpt lat="43.31138" lon="5.94825">
        <ele>686.55859375</ele>
        <time>2015-05-17T08:55:02Z</time>
      </trkpt>
      <trkpt lat="43.31139" lon="5.94835">
        <ele>685.875</ele>
        <time>2015-05-17T08:55:03Z</time>
      </trkpt>
      <trkpt lat="43.3114" lon="5.94844">
        <ele>685.44921875</ele>
        <time>2015-05-17T08:55:04Z</time>
      </trkpt>
      <trkpt lat="43.31143" lon="5.94852">
        <ele>685</ele>
        <time>2015-05-17T08:55:05Z</time>
      </trkpt>
      <trkpt lat="43.31146" lon="5.94859">
        <ele>684.51953125</ele>
        <time>2015-05-17T08:55:06Z</time>
      </trkpt>
      <trkpt lat="43.31149" lon="5.94866">
        <ele>683.84765625</ele>
        <time>2015-05-17T08:55:07Z</time>
      </trkpt>
      <trkpt lat="43.3115" lon="5.94873">
        <ele>683.24609375</ele>
        <time>2015-05-17T08:55:08Z</time>
      </trkpt>
      <trkpt lat="43.31151" lon="5.94877">
        <ele>682.83203125</ele>
        <time>2015-05-17T08:55:09Z</time>
      </trkpt>
      <trkpt lat="43.3115" lon="5.9488">
        <ele>682.7265625</ele>
        <time>2015-05-17T08:55:10Z</time>
      </trkpt>
      <trkpt lat="43.3115" lon="5.94881">
        <ele>682.71875</ele>
        <time>2015-05-17T08:55:11Z</time>
      </trkpt>
      <trkpt lat="43.31146" lon="5.94884">
        <ele>682.75390625</ele>
        <time>2015-05-17T08:55:25Z</time>
      </trkpt>
      <trkpt lat="43.31146" lon="5.94885">
        <ele>682.66015625</ele>
        <time>2015-05-17T08:55:39Z</time>
      </trkpt>
      <trkpt lat="43.31141" lon="5.9489">
        <ele>682.7265625</ele>
        <time>2015-05-17T08:56:00Z</time>
      </trkpt>
      <trkpt lat="43.31131" lon="5.94911">
        <ele>682.41796875</ele>
        <time>2015-05-17T08:56:06Z</time>
      </trkpt>
      <trkpt lat="43.31123" lon="5.94943">
        <ele>681.02734375</ele>
        <time>2015-05-17T08:56:12Z</time>
      </trkpt>
      <trkpt lat="43.3112" lon="5.94948">
        <ele>680.82421875</ele>
        <time>2015-05-17T08:56:13Z</time>
      </trkpt>
      <trkpt lat="43.3111" lon="5.94966">
        <ele>680.171875</ele>
        <time>2015-05-17T08:56:17Z</time>
      </trkpt>
      <trkpt lat="43.31107" lon="5.94968">
        <ele>680.10546875</ele>
        <time>2015-05-17T08:56:18Z</time>
      </trkpt>
      <trkpt lat="43.31103" lon="5.94969">
        <ele>680.06640625</ele>
        <time>2015-05-17T08:56:19Z</time>
      </trkpt>
      <trkpt lat="43.31099" lon="5.9497">
        <ele>680.03515625</ele>
        <time>2015-05-17T08:56:20Z</time>
      </trkpt>
      <trkpt lat="43.31095" lon="5.94971">
        <ele>680.00390625</ele>
        <time>2015-05-17T08:56:21Z</time>
      </trkpt>
      <trkpt lat="43.31078" lon="5.94973">
        <ele>679.91796875</ele>
        <time>2015-05-17T08:56:25Z</time>
      </trkpt>
      <trkpt lat="43.31058" lon="5.94973">
        <ele>679.84375</ele>
        <time>2015-05-17T08:56:30Z</time>
      </trkpt>
      <trkpt lat="43.31053" lon="5.94974">
        <ele>679.70703125</ele>
        <time>2015-05-17T08:56:31Z</time>
      </trkpt>
      <trkpt lat="43.31049" lon="5.94975">
        <ele>679.46875</ele>
        <time>2015-05-17T08:56:32Z</time>
      </trkpt>
      <trkpt lat="43.31044" lon="5.94977">
        <ele>679.15625</ele>
        <time>2015-05-17T08:56:33Z</time>
      </trkpt>
      <trkpt lat="43.3104" lon="5.94979">
        <ele>678.84765625</ele>
        <time>2015-05-17T08:56:34Z</time>
      </trkpt>
      <trkpt lat="43.31036" lon="5.94981">
        <ele>678.55078125</ele>
        <time>2015-05-17T08:56:35Z</time>
      </trkpt>
      <trkpt lat="43.31032" lon="5.94983">
        <ele>678.26171875</ele>
        <time>2015-05-17T08:56:36Z</time>
      </trkpt>
      <trkpt lat="43.31028" lon="5.94984">
        <ele>678.02734375</ele>
        <time>2015-05-17T08:56:37Z</time>
      </trkpt>
      <trkpt lat="43.31003" lon="5.94987">
        <ele>677.453125</ele>
        <time>2015-05-17T08:56:42Z</time>
      </trkpt>
      <trkpt lat="43.30999" lon="5.94987">
        <ele>677.35546875</ele>
        <time>2015-05-17T08:56:43Z</time>
      </trkpt>
      <trkpt lat="43.3097" lon="5.94968">
        <ele>677.21484375</ele>
        <time>2015-05-17T08:56:53Z</time>
      </trkpt>
      <trkpt lat="43.30964" lon="5.94958">
        <ele>677.76171875</ele>
        <time>2015-05-17T08:56:57Z</time>
      </trkpt>
      <trkpt lat="43.30961" lon="5.94958">
        <ele>677.765625</ele>
        <time>2015-05-17T08:56:58Z</time>
      </trkpt>
      <trkpt lat="43.30959" lon="5.94958">
        <ele>677.7265625</ele>
        <time>2015-05-17T08:56:59Z</time>
      </trkpt>
      <trkpt lat="43.30937" lon="5.94975">
        <ele>676.67578125</ele>
        <time>2015-05-17T08:57:09Z</time>
      </trkpt>
      <trkpt lat="43.30896" lon="5.94978">
        <ele>677.2578125</ele>
        <time>2015-05-17T08:57:23Z</time>
      </trkpt>
      <trkpt lat="43.30869" lon="5.94998">
        <ele>677.44921875</ele>
        <time>2015-05-17T08:57:34Z</time>
      </trkpt>
      <trkpt lat="43.30846" lon="5.95019">
        <ele>677.51953125</ele>
        <time>2015-05-17T08:57:45Z</time>
      </trkpt>
      <trkpt lat="43.30815" lon="5.95043">
        <ele>678.703125</ele>
        <time>2015-05-17T08:57:57Z</time>
      </trkpt>
      <trkpt lat="43.30791" lon="5.95065">
        <ele>680.171875</ele>
        <time>2015-05-17T08:58:08Z</time>
      </trkpt>
      <trkpt lat="43.30761" lon="5.95087">
        <ele>681.8046875</ele>
        <time>2015-05-17T08:58:22Z</time>
      </trkpt>
      <trkpt lat="43.30733" lon="5.9511">
        <ele>681.58203125</ele>
        <time>2015-05-17T08:58:35Z</time>
      </trkpt>
      <trkpt lat="43.30693" lon="5.95147">
        <ele>680.32421875</ele>
        <time>2015-05-17T08:58:48Z</time>
      </trkpt>
      <trkpt lat="43.30681" lon="5.95158">
        <ele>679.66015625</ele>
        <time>2015-05-17T08:58:51Z</time>
      </trkpt>
      <trkpt lat="43.30676" lon="5.9516">
        <ele>679.46484375</ele>
        <time>2015-05-17T08:58:52Z</time>
      </trkpt>
      <trkpt lat="43.30659" lon="5.95172">
        <ele>678.72265625</ele>
        <time>2015-05-17T08:58:56Z</time>
      </trkpt>
      <trkpt lat="43.30629" lon="5.95189">
        <ele>677.76171875</ele>
        <time>2015-05-17T08:59:06Z</time>
      </trkpt>
      <trkpt lat="43.3058" lon="5.95209">
        <ele>677.97265625</ele>
        <time>2015-05-17T08:59:20Z</time>
      </trkpt>
      <trkpt lat="43.30569" lon="5.95218">
        <ele>677.74609375</ele>
        <time>2015-05-17T08:59:23Z</time>
      </trkpt>
      <trkpt lat="43.30565" lon="5.95219">
        <ele>677.7578125</ele>
        <time>2015-05-17T08:59:24Z</time>
      </trkpt>
      <trkpt lat="43.30561" lon="5.95221">
        <ele>677.80859375</ele>
        <time>2015-05-17T08:59:25Z</time>
      </trkpt>
      <trkpt lat="43.30557" lon="5.95222">
        <ele>677.8828125</ele>
        <time>2015-05-17T08:59:26Z</time>
      </trkpt>
      <trkpt lat="43.30553" lon="5.95223">
        <ele>677.953125</ele>
        <time>2015-05-17T08:59:27Z</time>
      </trkpt>
      <trkpt lat="43.3055" lon="5.95224">
        <ele>678.01953125</ele>
        <time>2015-05-17T08:59:28Z</time>
      </trkpt>
      <trkpt lat="43.30546" lon="5.95224">
        <ele>678.09765625</ele>
        <time>2015-05-17T08:59:29Z</time>
      </trkpt>
      <trkpt lat="43.30526" lon="5.95228">
        <ele>678.55859375</ele>
        <time>2015-05-17T08:59:34Z</time>
      </trkpt>
      <trkpt lat="43.30522" lon="5.95229">
        <ele>678.8046875</ele>
        <time>2015-05-17T08:59:35Z</time>
      </trkpt>
      <trkpt lat="43.30517" lon="5.95229">
        <ele>679.09765625</ele>
        <time>2015-05-17T08:59:36Z</time>
      </trkpt>
      <trkpt lat="43.30514" lon="5.95228">
        <ele>679.3671875</ele>
        <time>2015-05-17T08:59:37Z</time>
      </trkpt>
      <trkpt lat="43.3051" lon="5.95228">
        <ele>679.6015625</ele>
        <time>2015-05-17T08:59:38Z</time>
      </trkpt>
      <trkpt lat="43.3048" lon="5.95217">
        <ele>682.01953125</ele>
        <time>2015-05-17T08:59:48Z</time>
      </trkpt>
      <trkpt lat="43.30473" lon="5.95214">
        <ele>682.4921875</ele>
        <time>2015-05-17T08:59:50Z</time>
      </trkpt>
      <trkpt lat="43.30437" lon="5.95212">
        <ele>684.9375</ele>
        <time>2015-05-17T09:00:02Z</time>
      </trkpt>
      <trkpt lat="43.30419" lon="5.95209">
        <ele>685.76171875</ele>
        <time>2015-05-17T09:00:10Z</time>
      </trkpt>
      <trkpt lat="43.30417" lon="5.95212">
        <ele>685.6640625</ele>
        <time>2015-05-17T09:00:11Z</time>
      </trkpt>
      <trkpt lat="43.30415" lon="5.95214">
        <ele>685.59375</ele>
        <time>2015-05-17T09:00:12Z</time>
      </trkpt>
      <trkpt lat="43.30403" lon="5.95224">
        <ele>685.90625</ele>
        <time>2015-05-17T09:00:19Z</time>
      </trkpt>
      <trkpt lat="43.30368" lon="5.95241">
        <ele>686.83984375</ele>
        <time>2015-05-17T09:00:32Z</time>
      </trkpt>
      <trkpt lat="43.30333" lon="5.95269">
        <ele>688</ele>
        <time>2015-05-17T09:00:46Z</time>
      </trkpt>
      <trkpt lat="43.30305" lon="5.95312">
        <ele>687.71484375</ele>
        <time>2015-05-17T09:01:01Z</time>
      </trkpt>
      <trkpt lat="43.30276" lon="5.95342">
        <ele>688</ele>
        <time>2015-05-17T09:01:14Z</time>
      </trkpt>
      <trkpt lat="43.30257" lon="5.95371">
        <ele>688.31640625</ele>
        <time>2015-05-17T09:01:24Z</time>
      </trkpt>
      <trkpt lat="43.30246" lon="5.95411">
        <ele>688.8515625</ele>
        <time>2015-05-17T09:01:35Z</time>
      </trkpt>
      <trkpt lat="43.30246" lon="5.95436">
        <ele>689.61328125</ele>
        <time>2015-05-17T09:01:43Z</time>
      </trkpt>
      <trkpt lat="43.30244" lon="5.95477">
        <ele>691.00390625</ele>
        <time>2015-05-17T09:01:55Z</time>
      </trkpt>
      <trkpt lat="43.30243" lon="5.95531">
        <ele>693.1875</ele>
        <time>2015-05-17T09:02:11Z</time>
      </trkpt>
      <trkpt lat="43.30238" lon="5.95574">
        <ele>694.72265625</ele>
        <time>2015-05-17T09:02:26Z</time>
      </trkpt>
      <trkpt lat="43.30234" lon="5.95623">
        <ele>695.71875</ele>
        <time>2015-05-17T09:02:42Z</time>
      </trkpt>
      <trkpt lat="43.30241" lon="5.95639">
        <ele>695.5859375</ele>
        <time>2015-05-17T09:02:49Z</time>
      </trkpt>
      <trkpt lat="43.30241" lon="5.95642">
        <ele>695.546875</ele>
        <time>2015-05-17T09:02:50Z</time>
      </trkpt>
      <trkpt lat="43.30241" lon="5.95644">
        <ele>695.50390625</ele>
        <time>2015-05-17T09:02:51Z</time>
      </trkpt>
      <trkpt lat="43.30241" lon="5.95646">
        <ele>695.4453125</ele>
        <time>2015-05-17T09:02:52Z</time>
      </trkpt>
      <trkpt lat="43.3024" lon="5.95648">
        <ele>695.3828125</ele>
        <time>2015-05-17T09:02:53Z</time>
      </trkpt>
      <trkpt lat="43.30239" lon="5.9565">
        <ele>695.31640625</ele>
        <time>2015-05-17T09:02:54Z</time>
      </trkpt>
      <trkpt lat="43.30238" lon="5.95653">
        <ele>695.25</ele>
        <time>2015-05-17T09:02:55Z</time>
      </trkpt>
      <trkpt lat="43.30237" lon="5.95655">
        <ele>695.19140625</ele>
        <time>2015-05-17T09:02:56Z</time>
      </trkpt>
      <trkpt lat="43.30237" lon="5.95656">
        <ele>695.16796875</ele>
        <time>2015-05-17T09:03:08Z</time>
      </trkpt>
      <trkpt lat="43.30235" lon="5.95661">
        <ele>695.06640625</ele>
        <time>2015-05-17T09:03:22Z</time>
      </trkpt>
      <trkpt lat="43.30236" lon="5.95659">
        <ele>695.09375</ele>
        <time>2015-05-17T09:03:53Z</time>
      </trkpt>
      <trkpt lat="43.30235" lon="5.95659">
        <ele>695.08984375</ele>
        <time>2015-05-17T09:04:18Z</time>
      </trkpt>
      <trkpt lat="43.30235" lon="5.95661">
        <ele>695.0546875</ele>
        <time>2015-05-17T09:04:24Z</time>
      </trkpt>
      <trkpt lat="43.30234" lon="5.95662">
        <ele>695.046875</ele>
        <time>2015-05-17T09:04:37Z</time>
      </trkpt>
      <trkpt lat="43.30233" lon="5.95662">
        <ele>695.04296875</ele>
        <time>2015-05-17T09:05:02Z</time>
      </trkpt>
      <trkpt lat="43.30233" lon="5.95664">
        <ele>695.01171875</ele>
        <time>2015-05-17T09:05:25Z</time>
      </trkpt>
      <trkpt lat="43.30233" lon="5.95664">
        <ele>695.015625</ele>
        <time>2015-05-17T09:05:43Z</time>
      </trkpt>
      <trkpt lat="43.30232" lon="5.95665">
        <ele>694.98828125</ele>
        <time>2015-05-17T09:06:04Z</time>
      </trkpt>
      <trkpt lat="43.3023" lon="5.95666">
        <ele>694.84375</ele>
        <time>2015-05-17T09:06:05Z</time>
      </trkpt>
      <trkpt lat="43.30208" lon="5.95684">
        <ele>692.2890625</ele>
        <time>2015-05-17T09:06:12Z</time>
      </trkpt>
      <trkpt lat="43.302" lon="5.95688">
        <ele>691.5546875</ele>
        <time>2015-05-17T09:06:14Z</time>
      </trkpt>
      <trkpt lat="43.30197" lon="5.95691">
        <ele>691.234375</ele>
        <time>2015-05-17T09:06:15Z</time>
      </trkpt>
      <trkpt lat="43.30194" lon="5.95694">
        <ele>690.8671875</ele>
        <time>2015-05-17T09:06:16Z</time>
      </trkpt>
      <trkpt lat="43.30189" lon="5.95702">
        <ele>689.8359375</ele>
        <time>2015-05-17T09:06:18Z</time>
      </trkpt>
      <trkpt lat="43.30186" lon="5.95707">
        <ele>689.29296875</ele>
        <time>2015-05-17T09:06:19Z</time>
      </trkpt>
      <trkpt lat="43.30183" lon="5.95713">
        <ele>688.6953125</ele>
        <time>2015-05-17T09:06:20Z</time>
      </trkpt>
      <trkpt lat="43.30173" lon="5.95735">
        <ele>685.2578125</ele>
        <time>2015-05-17T09:06:24Z</time>
      </trkpt>
      <trkpt lat="43.3017" lon="5.9574">
        <ele>684.34375</ele>
        <time>2015-05-17T09:06:25Z</time>
      </trkpt>
      <trkpt lat="43.30166" lon="5.95744">
        <ele>683.44140625</ele>
        <time>2015-05-17T09:06:26Z</time>
      </trkpt>
      <trkpt lat="43.30161" lon="5.95748">
        <ele>682.578125</ele>
        <time>2015-05-17T09:06:27Z</time>
      </trkpt>
      <trkpt lat="43.30157" lon="5.95751">
        <ele>681.71875</ele>
        <time>2015-05-17T09:06:28Z</time>
      </trkpt>
      <trkpt lat="43.30152" lon="5.95754">
        <ele>681.01953125</ele>
        <time>2015-05-17T09:06:29Z</time>
      </trkpt>
      <trkpt lat="43.30131" lon="5.95767">
        <ele>677.9375</ele>
        <time>2015-05-17T09:06:34Z</time>
      </trkpt>
      <trkpt lat="43.30126" lon="5.95769">
        <ele>677.3515625</ele>
        <time>2015-05-17T09:06:35Z</time>
      </trkpt>
      <trkpt lat="43.30106" lon="5.95785">
        <ele>674.54296875</ele>
        <time>2015-05-17T09:06:39Z</time>
      </trkpt>
      <trkpt lat="43.30101" lon="5.95788">
        <ele>673.85546875</ele>
        <time>2015-05-17T09:06:40Z</time>
      </trkpt>
      <trkpt lat="43.30071" lon="5.95805">
        <ele>670.36328125</ele>
        <time>2015-05-17T09:06:45Z</time>
      </trkpt>
      <trkpt lat="43.30066" lon="5.95807">
        <ele>669.8125</ele>
        <time>2015-05-17T09:06:46Z</time>
      </trkpt>
      <trkpt lat="43.30061" lon="5.95809">
        <ele>669.35546875</ele>
        <time>2015-05-17T09:06:47Z</time>
      </trkpt>
      <trkpt lat="43.30041" lon="5.95816">
        <ele>668.24609375</ele>
        <time>2015-05-17T09:06:51Z</time>
      </trkpt>
      <trkpt lat="43.30024" lon="5.95826">
        <ele>666.75390625</ele>
        <time>2015-05-17T09:06:55Z</time>
      </trkpt>
      <trkpt lat="43.30016" lon="5.95828">
        <ele>666.453125</ele>
        <time>2015-05-17T09:06:57Z</time>
      </trkpt>
      <trkpt lat="43.30008" lon="5.95828">
        <ele>666.3671875</ele>
        <time>2015-05-17T09:06:59Z</time>
      </trkpt>
      <trkpt lat="43.30003" lon="5.95828">
        <ele>666.37890625</ele>
        <time>2015-05-17T09:07:00Z</time>
      </trkpt>
      <trkpt lat="43.29999" lon="5.95829">
        <ele>666.30859375</ele>
        <time>2015-05-17T09:07:01Z</time>
      </trkpt>
      <trkpt lat="43.29977" lon="5.9583">
        <ele>666.109375</ele>
        <time>2015-05-17T09:07:07Z</time>
      </trkpt>
      <trkpt lat="43.29965" lon="5.95833">
        <ele>665.578125</ele>
        <time>2015-05-17T09:07:10Z</time>
      </trkpt>
      <trkpt lat="43.2996" lon="5.95834">
        <ele>665.32421875</ele>
        <time>2015-05-17T09:07:11Z</time>
      </trkpt>
      <trkpt lat="43.29949" lon="5.95836">
        <ele>664.81640625</ele>
        <time>2015-05-17T09:07:13Z</time>
      </trkpt>
      <trkpt lat="43.29944" lon="5.95837">
        <ele>664.53125</ele>
        <time>2015-05-17T09:07:14Z</time>
      </trkpt>
      <trkpt lat="43.29927" lon="5.95839">
        <ele>663.3203125</ele>
        <time>2015-05-17T09:07:17Z</time>
      </trkpt>
      <trkpt lat="43.29879" lon="5.95841">
        <ele>660.47265625</ele>
        <time>2015-05-17T09:07:25Z</time>
      </trkpt>
      <trkpt lat="43.29874" lon="5.95841">
        <ele>660.23828125</ele>
        <time>2015-05-17T09:07:26Z</time>
      </trkpt>
      <trkpt lat="43.29869" lon="5.95841">
        <ele>660.00390625</ele>
        <time>2015-05-17T09:07:27Z</time>
      </trkpt>
      <trkpt lat="43.29864" lon="5.9584">
        <ele>659.796875</ele>
        <time>2015-05-17T09:07:28Z</time>
      </trkpt>
      <trkpt lat="43.29859" lon="5.95839">
        <ele>659.3203125</ele>
        <time>2015-05-17T09:07:29Z</time>
      </trkpt>
      <trkpt lat="43.29854" lon="5.95837">
        <ele>658.6640625</ele>
        <time>2015-05-17T09:07:30Z</time>
      </trkpt>
      <trkpt lat="43.29849" lon="5.95836">
        <ele>657.99609375</ele>
        <time>2015-05-17T09:07:31Z</time>
      </trkpt>
      <trkpt lat="43.29826" lon="5.95832">
        <ele>654.7734375</ele>
        <time>2015-05-17T09:07:35Z</time>
      </trkpt>
      <trkpt lat="43.29815" lon="5.95829">
        <ele>653.390625</ele>
        <time>2015-05-17T09:07:41Z</time>
      </trkpt>
      <trkpt lat="43.29816" lon="5.95829">
        <ele>653.46875</ele>
        <time>2015-05-17T09:08:01Z</time>
      </trkpt>
      <trkpt lat="43.29815" lon="5.95826">
        <ele>653.515625</ele>
        <time>2015-05-17T09:08:29Z</time>
      </trkpt>
      <trkpt lat="43.29814" lon="5.95823">
        <ele>653.4921875</ele>
        <time>2015-05-17T09:08:31Z</time>
      </trkpt>
      <trkpt lat="43.29813" lon="5.95821">
        <ele>653.5546875</ele>
        <time>2015-05-17T09:08:32Z</time>
      </trkpt>
      <trkpt lat="43.29813" lon="5.95819">
        <ele>653.65234375</ele>
        <time>2015-05-17T09:08:33Z</time>
      </trkpt>
      <trkpt lat="43.29813" lon="5.95817">
        <ele>653.7421875</ele>
        <time>2015-05-17T09:08:34Z</time>
      </trkpt>
      <trkpt lat="43.29812" lon="5.95815">
        <ele>653.75390625</ele>
        <time>2015-05-17T09:08:35Z</time>
      </trkpt>
      <trkpt lat="43.2981" lon="5.95812">
        <ele>653.7265625</ele>
        <time>2015-05-17T09:08:36Z</time>
      </trkpt>
      <trkpt lat="43.29795" lon="5.95782">
        <ele>653.0859375</ele>
        <time>2015-05-17T09:08:49Z</time>
      </trkpt>
      <trkpt lat="43.29786" lon="5.95777">
        <ele>652.5234375</ele>
        <time>2015-05-17T09:09:00Z</time>
      </trkpt>
      <trkpt lat="43.29787" lon="5.95775">
        <ele>652.609375</ele>
        <time>2015-05-17T09:09:10Z</time>
      </trkpt>
      <trkpt lat="43.29788" lon="5.95765">
        <ele>652.15234375</ele>
        <time>2015-05-17T09:09:21Z</time>
      </trkpt>
      <trkpt lat="43.29788" lon="5.95772">
        <ele>652.5</ele>
        <time>2015-05-17T09:09:29Z</time>
      </trkpt>
      <trkpt lat="43.2979" lon="5.95774">
        <ele>652.703125</ele>
        <time>2015-05-17T09:09:31Z</time>
      </trkpt>
      <trkpt lat="43.29792" lon="5.95776">
        <ele>652.9921875</ele>
        <time>2015-05-17T09:09:34Z</time>
      </trkpt>
      <trkpt lat="43.29793" lon="5.95776">
        <ele>653.0703125</ele>
        <time>2015-05-17T09:09:35Z</time>
      </trkpt>
      <trkpt lat="43.29797" lon="5.95776">
        <ele>653.29296875</ele>
        <time>2015-05-17T09:09:38Z</time>
      </trkpt>
      <trkpt lat="43.29801" lon="5.9577">
        <ele>653.2265625</ele>
        <time>2015-05-17T09:09:47Z</time>
      </trkpt>
      <trkpt lat="43.29801" lon="5.95767">
        <ele>653.0546875</ele>
        <time>2015-05-17T09:09:50Z</time>
      </trkpt>
      <trkpt lat="43.29802" lon="5.95762">
        <ele>652.7890625</ele>
        <time>2015-05-17T09:09:52Z</time>
      </trkpt>
      <trkpt lat="43.29802" lon="5.95759">
        <ele>652.6015625</ele>
        <time>2015-05-17T09:09:53Z</time>
      </trkpt>
      <trkpt lat="43.298" lon="5.9574">
        <ele>651.08203125</ele>
        <time>2015-05-17T09:09:59Z</time>
      </trkpt>
      <trkpt lat="43.298" lon="5.95736">
        <ele>650.828125</ele>
        <time>2015-05-17T09:10:00Z</time>
      </trkpt>
      <trkpt lat="43.298" lon="5.95734">
        <ele>650.625</ele>
        <time>2015-05-17T09:10:01Z</time>
      </trkpt>
      <trkpt lat="43.29798" lon="5.95725">
        <ele>649.80078125</ele>
        <time>2015-05-17T09:10:05Z</time>
      </trkpt>
      <trkpt lat="43.29799" lon="5.95721">
        <ele>649.49609375</ele>
        <time>2015-05-17T09:10:07Z</time>
      </trkpt>
      <trkpt lat="43.29802" lon="5.95714">
        <ele>648.6015625</ele>
        <time>2015-05-17T09:10:18Z</time>
      </trkpt>
      <trkpt lat="43.298" lon="5.95712">
        <ele>648.06640625</ele>
        <time>2015-05-17T09:10:21Z</time>
      </trkpt>
      <trkpt lat="43.298" lon="5.95709">
        <ele>647.53125</ele>
        <time>2015-05-17T09:10:22Z</time>
      </trkpt>
      <trkpt lat="43.29798" lon="5.95704">
        <ele>646.73046875</ele>
        <time>2015-05-17T09:10:23Z</time>
      </trkpt>
      <trkpt lat="43.29797" lon="5.957">
        <ele>645.9453125</ele>
        <time>2015-05-17T09:10:24Z</time>
      </trkpt>
      <trkpt lat="43.29796" lon="5.95697">
        <ele>645.38671875</ele>
        <time>2015-05-17T09:10:25Z</time>
      </trkpt>
      <trkpt lat="43.29796" lon="5.95696">
        <ele>645.1484375</ele>
        <time>2015-05-17T09:10:26Z</time>
      </trkpt>
      <trkpt lat="43.29792" lon="5.95694">
        <ele>644.671875</ele>
        <time>2015-05-17T09:10:35Z</time>
      </trkpt>
      <trkpt lat="43.29792" lon="5.95691">
        <ele>644.2421875</ele>
        <time>2015-05-17T09:10:36Z</time>
      </trkpt>
      <trkpt lat="43.29792" lon="5.95688">
        <ele>643.7890625</ele>
        <time>2015-05-17T09:10:37Z</time>
      </trkpt>
      <trkpt lat="43.29793" lon="5.95675">
        <ele>641.9765625</ele>
        <time>2015-05-17T09:10:41Z</time>
      </trkpt>
      <trkpt lat="43.29794" lon="5.95673">
        <ele>641.71484375</ele>
        <time>2015-05-17T09:10:42Z</time>
      </trkpt>
      <trkpt lat="43.29795" lon="5.95671">
        <ele>641.44921875</ele>
        <time>2015-05-17T09:10:43Z</time>
      </trkpt>
      <trkpt lat="43.29797" lon="5.95669">
        <ele>641.30859375</ele>
        <time>2015-05-17T09:10:44Z</time>
      </trkpt>
      <trkpt lat="43.29798" lon="5.95668">
        <ele>641.1796875</ele>
        <time>2015-05-17T09:10:45Z</time>
      </trkpt>
      <trkpt lat="43.29798" lon="5.95666">
        <ele>640.8125</ele>
        <time>2015-05-17T09:10:47Z</time>
      </trkpt>
      <trkpt lat="43.29797" lon="5.95664">
        <ele>640.43359375</ele>
        <time>2015-05-17T09:10:48Z</time>
      </trkpt>
      <trkpt lat="43.29795" lon="5.95663">
        <ele>640.078125</ele>
        <time>2015-05-17T09:10:49Z</time>
      </trkpt>
      <trkpt lat="43.29792" lon="5.95661">
        <ele>639.62890625</ele>
        <time>2015-05-17T09:10:50Z</time>
      </trkpt>
      <trkpt lat="43.29789" lon="5.95659">
        <ele>639.02734375</ele>
        <time>2015-05-17T09:10:51Z</time>
      </trkpt>
      <trkpt lat="43.29785" lon="5.95656">
        <ele>638.23046875</ele>
        <time>2015-05-17T09:10:52Z</time>
      </trkpt>
      <trkpt lat="43.29782" lon="5.95651">
        <ele>637.23828125</ele>
        <time>2015-05-17T09:10:53Z</time>
      </trkpt>
      <trkpt lat="43.29781" lon="5.95647">
        <ele>636.2890625</ele>
        <time>2015-05-17T09:10:54Z</time>
      </trkpt>
      <trkpt lat="43.2978" lon="5.95643">
        <ele>635.3984375</ele>
        <time>2015-05-17T09:10:55Z</time>
      </trkpt>
      <trkpt lat="43.29779" lon="5.9564">
        <ele>634.60546875</ele>
        <time>2015-05-17T09:10:56Z</time>
      </trkpt>
      <trkpt lat="43.29778" lon="5.95637">
        <ele>634.0390625</ele>
        <time>2015-05-17T09:10:57Z</time>
      </trkpt>
      <trkpt lat="43.29778" lon="5.95635">
        <ele>633.56640625</ele>
        <time>2015-05-17T09:10:58Z</time>
      </trkpt>
      <trkpt lat="43.29779" lon="5.95633">
        <ele>633.21875</ele>
        <time>2015-05-17T09:10:59Z</time>
      </trkpt>
      <trkpt lat="43.29782" lon="5.95627">
        <ele>631.859375</ele>
        <time>2015-05-17T09:11:09Z</time>
      </trkpt>
      <trkpt lat="43.29789" lon="5.95621">
        <ele>630.98828125</ele>
        <time>2015-05-17T09:11:13Z</time>
      </trkpt>
      <trkpt lat="43.29793" lon="5.95619">
        <ele>630.6875</ele>
        <time>2015-05-17T09:11:15Z</time>
      </trkpt>
      <trkpt lat="43.29794" lon="5.95615">
        <ele>629.7109375</ele>
        <time>2015-05-17T09:11:19Z</time>
      </trkpt>
      <trkpt lat="43.29793" lon="5.95613">
        <ele>629.25</ele>
        <time>2015-05-17T09:11:20Z</time>
      </trkpt>
      <trkpt lat="43.29792" lon="5.9561">
        <ele>628.6171875</ele>
        <time>2015-05-17T09:11:21Z</time>
      </trkpt>
      <trkpt lat="43.2979" lon="5.95607">
        <ele>627.75390625</ele>
        <time>2015-05-17T09:11:22Z</time>
      </trkpt>
      <trkpt lat="43.29788" lon="5.95604">
        <ele>626.87890625</ele>
        <time>2015-05-17T09:11:23Z</time>
      </trkpt>
      <trkpt lat="43.29785" lon="5.95601">
        <ele>626.17578125</ele>
        <time>2015-05-17T09:11:24Z</time>
      </trkpt>
      <trkpt lat="43.29776" lon="5.95582">
        <ele>621.234375</ele>
        <time>2015-05-17T09:11:29Z</time>
      </trkpt>
      <trkpt lat="43.29767" lon="5.95561">
        <ele>616.69921875</ele>
        <time>2015-05-17T09:11:34Z</time>
      </trkpt>
      <trkpt lat="43.29761" lon="5.95542">
        <ele>611.921875</ele>
        <time>2015-05-17T09:11:39Z</time>
      </trkpt>
      <trkpt lat="43.29758" lon="5.95528">
        <ele>608.421875</ele>
        <time>2015-05-17T09:11:43Z</time>
      </trkpt>
      <trkpt lat="43.29757" lon="5.95527">
        <ele>607.94140625</ele>
        <time>2015-05-17T09:11:44Z</time>
      </trkpt>
      <trkpt lat="43.29755" lon="5.95522">
        <ele>606.69921875</ele>
        <time>2015-05-17T09:11:49Z</time>
      </trkpt>
      <trkpt lat="43.29755" lon="5.9552">
        <ele>606.11328125</ele>
        <time>2015-05-17T09:11:50Z</time>
      </trkpt>
      <trkpt lat="43.29754" lon="5.95517">
        <ele>605.36328125</ele>
        <time>2015-05-17T09:11:51Z</time>
      </trkpt>
      <trkpt lat="43.29753" lon="5.95514">
        <ele>604.45703125</ele>
        <time>2015-05-17T09:11:52Z</time>
      </trkpt>
      <trkpt lat="43.29752" lon="5.95511">
        <ele>603.73828125</ele>
        <time>2015-05-17T09:11:53Z</time>
      </trkpt>
      <trkpt lat="43.29751" lon="5.9551">
        <ele>603.21484375</ele>
        <time>2015-05-17T09:11:54Z</time>
      </trkpt>
      <trkpt lat="43.2975" lon="5.95507">
        <ele>602.7734375</ele>
        <time>2015-05-17T09:11:55Z</time>
      </trkpt>
      <trkpt lat="43.29749" lon="5.95505">
        <ele>602.328125</ele>
        <time>2015-05-17T09:11:56Z</time>
      </trkpt>
      <trkpt lat="43.29746" lon="5.955">
        <ele>601.3984375</ele>
        <time>2015-05-17T09:11:58Z</time>
      </trkpt>
      <trkpt lat="43.29746" lon="5.95499">
        <ele>601.00390625</ele>
        <time>2015-05-17T09:11:59Z</time>
      </trkpt>
      <trkpt lat="43.29745" lon="5.95497">
        <ele>600.6328125</ele>
        <time>2015-05-17T09:12:00Z</time>
      </trkpt>
      <trkpt lat="43.29744" lon="5.95494">
        <ele>599.984375</ele>
        <time>2015-05-17T09:12:01Z</time>
      </trkpt>
      <trkpt lat="43.29743" lon="5.9549">
        <ele>599.40625</ele>
        <time>2015-05-17T09:12:02Z</time>
      </trkpt>
      <trkpt lat="43.29741" lon="5.95487">
        <ele>598.91015625</ele>
        <time>2015-05-17T09:12:03Z</time>
      </trkpt>
      <trkpt lat="43.29738" lon="5.9548">
        <ele>597.38671875</ele>
        <time>2015-05-17T09:12:07Z</time>
      </trkpt>
      <trkpt lat="43.29737" lon="5.95477">
        <ele>596.80859375</ele>
        <time>2015-05-17T09:12:25Z</time>
      </trkpt>
      <trkpt lat="43.29735" lon="5.95477">
        <ele>597.14453125</ele>
        <time>2015-05-17T09:12:43Z</time>
      </trkpt>
      <trkpt lat="43.29735" lon="5.95475">
        <ele>596.49609375</ele>
        <time>2015-05-17T09:12:55Z</time>
      </trkpt>
      <trkpt lat="43.29734" lon="5.95472">
        <ele>595.875</ele>
        <time>2015-05-17T09:12:57Z</time>
      </trkpt>
      <trkpt lat="43.29731" lon="5.95464">
        <ele>593.8828125</ele>
        <time>2015-05-17T09:13:01Z</time>
      </trkpt>
      <trkpt lat="43.2973" lon="5.95462">
        <ele>593.5859375</ele>
        <time>2015-05-17T09:13:02Z</time>
      </trkpt>
      <trkpt lat="43.29728" lon="5.9546">
        <ele>593.12109375</ele>
        <time>2015-05-17T09:13:03Z</time>
      </trkpt>
      <trkpt lat="43.29718" lon="5.95448">
        <ele>591.1953125</ele>
        <time>2015-05-17T09:13:08Z</time>
      </trkpt>
      <trkpt lat="43.29713" lon="5.95441">
        <ele>589.51171875</ele>
        <time>2015-05-17T09:13:12Z</time>
      </trkpt>
      <trkpt lat="43.29713" lon="5.95438">
        <ele>588.953125</ele>
        <time>2015-05-17T09:13:13Z</time>
      </trkpt>
      <trkpt lat="43.29712" lon="5.95436">
        <ele>588.32421875</ele>
        <time>2015-05-17T09:13:14Z</time>
      </trkpt>
      <trkpt lat="43.29706" lon="5.95424">
        <ele>585.79296875</ele>
        <time>2015-05-17T09:13:19Z</time>
      </trkpt>
      <trkpt lat="43.29705" lon="5.95422">
        <ele>585.1328125</ele>
        <time>2015-05-17T09:13:20Z</time>
      </trkpt>
      <trkpt lat="43.29703" lon="5.95419">
        <ele>584.4921875</ele>
        <time>2015-05-17T09:13:21Z</time>
      </trkpt>
      <trkpt lat="43.29702" lon="5.95416">
        <ele>583.7734375</ele>
        <time>2015-05-17T09:13:22Z</time>
      </trkpt>
      <trkpt lat="43.29701" lon="5.95413">
        <ele>582.92578125</ele>
        <time>2015-05-17T09:13:23Z</time>
      </trkpt>
      <trkpt lat="43.29699" lon="5.95409">
        <ele>582.01953125</ele>
        <time>2015-05-17T09:13:24Z</time>
      </trkpt>
      <trkpt lat="43.29697" lon="5.95406">
        <ele>581.2578125</ele>
        <time>2015-05-17T09:13:25Z</time>
      </trkpt>
      <trkpt lat="43.29694" lon="5.95404">
        <ele>580.8125</ele>
        <time>2015-05-17T09:13:26Z</time>
      </trkpt>
      <trkpt lat="43.29691" lon="5.95402">
        <ele>580.46484375</ele>
        <time>2015-05-17T09:13:27Z</time>
      </trkpt>
      <trkpt lat="43.29673" lon="5.95391">
        <ele>578.7890625</ele>
        <time>2015-05-17T09:13:35Z</time>
      </trkpt>
      <trkpt lat="43.29663" lon="5.95383">
        <ele>576.9609375</ele>
        <time>2015-05-17T09:13:40Z</time>
      </trkpt>
      <trkpt lat="43.29661" lon="5.95381">
        <ele>576.3671875</ele>
        <time>2015-05-17T09:13:41Z</time>
      </trkpt>
      <trkpt lat="43.29659" lon="5.95379">
        <ele>575.7421875</ele>
        <time>2015-05-17T09:13:42Z</time>
      </trkpt>
      <trkpt lat="43.29659" lon="5.95376">
        <ele>574.9296875</ele>
        <time>2015-05-17T09:13:53Z</time>
      </trkpt>
      <trkpt lat="43.29672" lon="5.95366">
        <ele>570.8828125</ele>
        <time>2015-05-17T09:13:59Z</time>
      </trkpt>
      <trkpt lat="43.29675" lon="5.95364">
        <ele>570.1953125</ele>
        <time>2015-05-17T09:14:00Z</time>
      </trkpt>
      <trkpt lat="43.29677" lon="5.95363">
        <ele>569.81640625</ele>
        <time>2015-05-17T09:14:01Z</time>
      </trkpt>
      <trkpt lat="43.2968" lon="5.95363">
        <ele>569.5546875</ele>
        <time>2015-05-17T09:14:04Z</time>
      </trkpt>
      <trkpt lat="43.29682" lon="5.95363">
        <ele>569.4140625</ele>
        <time>2015-05-17T09:14:05Z</time>
      </trkpt>
      <trkpt lat="43.29684" lon="5.95363">
        <ele>569.33203125</ele>
        <time>2015-05-17T09:14:06Z</time>
      </trkpt>
      <trkpt lat="43.29686" lon="5.95363">
        <ele>569.296875</ele>
        <time>2015-05-17T09:14:07Z</time>
      </trkpt>
      <trkpt lat="43.29688" lon="5.95362">
        <ele>569.06640625</ele>
        <time>2015-05-17T09:14:08Z</time>
      </trkpt>
      <trkpt lat="43.29691" lon="5.95361">
        <ele>568.53515625</ele>
        <time>2015-05-17T09:14:09Z</time>
      </trkpt>
      <trkpt lat="43.29694" lon="5.95359">
        <ele>567.828125</ele>
        <time>2015-05-17T09:14:10Z</time>
      </trkpt>
      <trkpt lat="43.29709" lon="5.95347">
        <ele>563.4140625</ele>
        <time>2015-05-17T09:14:15Z</time>
      </trkpt>
      <trkpt lat="43.29724" lon="5.95341">
        <ele>560.59765625</ele>
        <time>2015-05-17T09:14:21Z</time>
      </trkpt>
      <trkpt lat="43.2973" lon="5.9534">
        <ele>559.703125</ele>
        <time>2015-05-17T09:14:23Z</time>
      </trkpt>
      <trkpt lat="43.29739" lon="5.95338">
        <ele>558.44921875</ele>
        <time>2015-05-17T09:14:27Z</time>
      </trkpt>
      <trkpt lat="43.29741" lon="5.95337">
        <ele>558.25</ele>
        <time>2015-05-17T09:14:28Z</time>
      </trkpt>
      <trkpt lat="43.29742" lon="5.95337">
        <ele>557.9453125</ele>
        <time>2015-05-17T09:14:29Z</time>
      </trkpt>
      <trkpt lat="43.29744" lon="5.95336">
        <ele>557.55078125</ele>
        <time>2015-05-17T09:14:30Z</time>
      </trkpt>
      <trkpt lat="43.29745" lon="5.95334">
        <ele>557.0859375</ele>
        <time>2015-05-17T09:14:31Z</time>
      </trkpt>
      <trkpt lat="43.29746" lon="5.95333">
        <ele>556.625</ele>
        <time>2015-05-17T09:14:32Z</time>
      </trkpt>
      <trkpt lat="43.29748" lon="5.95331">
        <ele>556.12109375</ele>
        <time>2015-05-17T09:14:33Z</time>
      </trkpt>
      <trkpt lat="43.2975" lon="5.9533">
        <ele>555.66015625</ele>
        <time>2015-05-17T09:14:34Z</time>
      </trkpt>
      <trkpt lat="43.29752" lon="5.95329">
        <ele>555.48046875</ele>
        <time>2015-05-17T09:14:35Z</time>
      </trkpt>
      <trkpt lat="43.29757" lon="5.95327">
        <ele>555.32421875</ele>
        <time>2015-05-17T09:14:37Z</time>
      </trkpt>
      <trkpt lat="43.29758" lon="5.95326">
        <ele>555.41796875</ele>
        <time>2015-05-17T09:14:38Z</time>
      </trkpt>
      <trkpt lat="43.2976" lon="5.95327">
        <ele>555.70703125</ele>
        <time>2015-05-17T09:14:39Z</time>
      </trkpt>
      <trkpt lat="43.29763" lon="5.95328">
        <ele>556.01953125</ele>
        <time>2015-05-17T09:14:40Z</time>
      </trkpt>
      <trkpt lat="43.29765" lon="5.95328">
        <ele>556.29296875</ele>
        <time>2015-05-17T09:14:41Z</time>
      </trkpt>
      <trkpt lat="43.29768" lon="5.95329">
        <ele>556.671875</ele>
        <time>2015-05-17T09:14:42Z</time>
      </trkpt>
      <trkpt lat="43.29772" lon="5.95331">
        <ele>557.375</ele>
        <time>2015-05-17T09:14:45Z</time>
      </trkpt>
      <trkpt lat="43.29777" lon="5.9533">
        <ele>557.50390625</ele>
        <time>2015-05-17T09:14:50Z</time>
      </trkpt>
      <trkpt lat="43.29778" lon="5.95329">
        <ele>557.2890625</ele>
        <time>2015-05-17T09:14:51Z</time>
      </trkpt>
      <trkpt lat="43.29778" lon="5.95323">
        <ele>556.18359375</ele>
        <time>2015-05-17T09:14:54Z</time>
      </trkpt>
      <trkpt lat="43.29778" lon="5.95321">
        <ele>555.59765625</ele>
        <time>2015-05-17T09:14:55Z</time>
      </trkpt>
      <trkpt lat="43.29777" lon="5.95319">
        <ele>555.0546875</ele>
        <time>2015-05-17T09:14:56Z</time>
      </trkpt>
      <trkpt lat="43.29774" lon="5.95307">
        <ele>552.28125</ele>
        <time>2015-05-17T09:15:01Z</time>
      </trkpt>
      <trkpt lat="43.29774" lon="5.95305">
        <ele>551.80078125</ele>
        <time>2015-05-17T09:15:02Z</time>
      </trkpt>
      <trkpt lat="43.29774" lon="5.95302">
        <ele>551.4921875</ele>
        <time>2015-05-17T09:15:03Z</time>
      </trkpt>
      <trkpt lat="43.29773" lon="5.95295">
        <ele>550.87109375</ele>
        <time>2015-05-17T09:15:05Z</time>
      </trkpt>
      <trkpt lat="43.29772" lon="5.95293">
        <ele>550.52734375</ele>
        <time>2015-05-17T09:15:06Z</time>
      </trkpt>
      <trkpt lat="43.29767" lon="5.95286">
        <ele>549.3515625</ele>
        <time>2015-05-17T09:15:09Z</time>
      </trkpt>
      <trkpt lat="43.29756" lon="5.95274">
        <ele>546.61328125</ele>
        <time>2015-05-17T09:15:13Z</time>
      </trkpt>
      <trkpt lat="43.29755" lon="5.95271">
        <ele>546.06640625</ele>
        <time>2015-05-17T09:15:14Z</time>
      </trkpt>
      <trkpt lat="43.29736" lon="5.95241">
        <ele>541.3984375</ele>
        <time>2015-05-17T09:15:25Z</time>
      </trkpt>
      <trkpt lat="43.29732" lon="5.95233">
        <ele>541.1953125</ele>
        <time>2015-05-17T09:15:29Z</time>
      </trkpt>
      <trkpt lat="43.2973" lon="5.95231">
        <ele>541.02734375</ele>
        <time>2015-05-17T09:15:30Z</time>
      </trkpt>
      <trkpt lat="43.29729" lon="5.95229">
        <ele>540.828125</ele>
        <time>2015-05-17T09:15:31Z</time>
      </trkpt>
      <trkpt lat="43.29727" lon="5.95227">
        <ele>540.6328125</ele>
        <time>2015-05-17T09:15:32Z</time>
      </trkpt>
      <trkpt lat="43.29726" lon="5.95225">
        <ele>540.48046875</ele>
        <time>2015-05-17T09:15:33Z</time>
      </trkpt>
      <trkpt lat="43.29725" lon="5.95223">
        <ele>540.31640625</ele>
        <time>2015-05-17T09:15:34Z</time>
      </trkpt>
      <trkpt lat="43.29722" lon="5.9522">
        <ele>539.93359375</ele>
        <time>2015-05-17T09:15:39Z</time>
      </trkpt>
      <trkpt lat="43.29721" lon="5.95218">
        <ele>539.859375</ele>
        <time>2015-05-17T09:15:40Z</time>
      </trkpt>
      <trkpt lat="43.29719" lon="5.95216">
        <ele>539.828125</ele>
        <time>2015-05-17T09:15:41Z</time>
      </trkpt>
      <trkpt lat="43.29718" lon="5.95214">
        <ele>539.8125</ele>
        <time>2015-05-17T09:15:42Z</time>
      </trkpt>
      <trkpt lat="43.29716" lon="5.95212">
        <ele>539.71875</ele>
        <time>2015-05-17T09:15:43Z</time>
      </trkpt>
      <trkpt lat="43.29712" lon="5.95206">
        <ele>539.390625</ele>
        <time>2015-05-17T09:15:46Z</time>
      </trkpt>
      <trkpt lat="43.2969" lon="5.95179">
        <ele>537.6953125</ele>
        <time>2015-05-17T09:15:56Z</time>
      </trkpt>
      <trkpt lat="43.2967" lon="5.95146">
        <ele>537.50390625</ele>
        <time>2015-05-17T09:16:06Z</time>
      </trkpt>
      <trkpt lat="43.2967" lon="5.95142">
        <ele>538.0234375</ele>
        <time>2015-05-17T09:16:07Z</time>
      </trkpt>
      <trkpt lat="43.2967" lon="5.95139">
        <ele>538.76171875</ele>
        <time>2015-05-17T09:16:08Z</time>
      </trkpt>
      <trkpt lat="43.29671" lon="5.95135">
        <ele>539.4765625</ele>
        <time>2015-05-17T09:16:09Z</time>
      </trkpt>
      <trkpt lat="43.29671" lon="5.95133">
        <ele>539.9375</ele>
        <time>2015-05-17T09:16:10Z</time>
      </trkpt>
      <trkpt lat="43.2967" lon="5.95102">
        <ele>542.5234375</ele>
        <time>2015-05-17T09:16:19Z</time>
      </trkpt>
      <trkpt lat="43.29668" lon="5.95063">
        <ele>542.1953125</ele>
        <time>2015-05-17T09:16:28Z</time>
      </trkpt>
      <trkpt lat="43.29668" lon="5.95039">
        <ele>541.6015625</ele>
        <time>2015-05-17T09:16:34Z</time>
      </trkpt>
      <trkpt lat="43.29668" lon="5.95017">
        <ele>540.49609375</ele>
        <time>2015-05-17T09:16:42Z</time>
      </trkpt>
      <trkpt lat="43.29668" lon="5.95015">
        <ele>540.546875</ele>
        <time>2015-05-17T09:16:43Z</time>
      </trkpt>
      <trkpt lat="43.29669" lon="5.95013">
        <ele>540.76953125</ele>
        <time>2015-05-17T09:16:44Z</time>
      </trkpt>
      <trkpt lat="43.2967" lon="5.9501">
        <ele>541.0234375</ele>
        <time>2015-05-17T09:16:45Z</time>
      </trkpt>
      <trkpt lat="43.2967" lon="5.95007">
        <ele>540.76953125</ele>
        <time>2015-05-17T09:16:46Z</time>
      </trkpt>
      <trkpt lat="43.29669" lon="5.95005">
        <ele>540.140625</ele>
        <time>2015-05-17T09:16:47Z</time>
      </trkpt>
      <trkpt lat="43.29668" lon="5.95003">
        <ele>539.484375</ele>
        <time>2015-05-17T09:16:48Z</time>
      </trkpt>
      <trkpt lat="43.29667" lon="5.95001">
        <ele>538.953125</ele>
        <time>2015-05-17T09:16:49Z</time>
      </trkpt>
      <trkpt lat="43.29665" lon="5.94995">
        <ele>537.640625</ele>
        <time>2015-05-17T09:17:07Z</time>
      </trkpt>
      <trkpt lat="43.29664" lon="5.94989">
        <ele>536.6171875</ele>
        <time>2015-05-17T09:17:28Z</time>
      </trkpt>
      <trkpt lat="43.29663" lon="5.94989">
        <ele>536.22265625</ele>
        <time>2015-05-17T09:17:30Z</time>
      </trkpt>
      <trkpt lat="43.29661" lon="5.94991">
        <ele>535.828125</ele>
        <time>2015-05-17T09:17:32Z</time>
      </trkpt>
      <trkpt lat="43.29659" lon="5.94994">
        <ele>535.2265625</ele>
        <time>2015-05-17T09:17:34Z</time>
      </trkpt>
      <trkpt lat="43.29658" lon="5.94995">
        <ele>534.58984375</ele>
        <time>2015-05-17T09:17:35Z</time>
      </trkpt>
      <trkpt lat="43.29656" lon="5.94997">
        <ele>534</ele>
        <time>2015-05-17T09:17:36Z</time>
      </trkpt>
      <trkpt lat="43.29655" lon="5.94998">
        <ele>533.4921875</ele>
        <time>2015-05-17T09:17:37Z</time>
      </trkpt>
      <trkpt lat="43.29653" lon="5.95">
        <ele>532.76953125</ele>
        <time>2015-05-17T09:17:38Z</time>
      </trkpt>
      <trkpt lat="43.29652" lon="5.95002">
        <ele>532.10546875</ele>
        <time>2015-05-17T09:17:39Z</time>
      </trkpt>
      <trkpt lat="43.29645" lon="5.95017">
        <ele>529.171875</ele>
        <time>2015-05-17T09:17:45Z</time>
      </trkpt>
      <trkpt lat="43.29644" lon="5.9502">
        <ele>528.6015625</ele>
        <time>2015-05-17T09:17:46Z</time>
      </trkpt>
      <trkpt lat="43.29643" lon="5.95023">
        <ele>527.9453125</ele>
        <time>2015-05-17T09:17:47Z</time>
      </trkpt>
      <trkpt lat="43.29641" lon="5.95025">
        <ele>526.859375</ele>
        <time>2015-05-17T09:17:48Z</time>
      </trkpt>
      <trkpt lat="43.29639" lon="5.95027">
        <ele>525.84765625</ele>
        <time>2015-05-17T09:17:49Z</time>
      </trkpt>
      <trkpt lat="43.29637" lon="5.95029">
        <ele>525.47265625</ele>
        <time>2015-05-17T09:17:50Z</time>
      </trkpt>
      <trkpt lat="43.29636" lon="5.95031">
        <ele>525.109375</ele>
        <time>2015-05-17T09:17:51Z</time>
      </trkpt>
      <trkpt lat="43.29634" lon="5.95034">
        <ele>524.6796875</ele>
        <time>2015-05-17T09:17:52Z</time>
      </trkpt>
      <trkpt lat="43.29632" lon="5.95036">
        <ele>524.22265625</ele>
        <time>2015-05-17T09:17:53Z</time>
      </trkpt>
      <trkpt lat="43.29628" lon="5.95043">
        <ele>522.93359375</ele>
        <time>2015-05-17T09:17:56Z</time>
      </trkpt>
      <trkpt lat="43.29628" lon="5.95046">
        <ele>522.71484375</ele>
        <time>2015-05-17T09:17:57Z</time>
      </trkpt>
      <trkpt lat="43.29627" lon="5.95053">
        <ele>522.5859375</ele>
        <time>2015-05-17T09:18:03Z</time>
      </trkpt>
      <trkpt lat="43.29623" lon="5.9506">
        <ele>520.6640625</ele>
        <time>2015-05-17T09:18:08Z</time>
      </trkpt>
      <trkpt lat="43.29622" lon="5.95063">
        <ele>520.37109375</ele>
        <time>2015-05-17T09:18:09Z</time>
      </trkpt>
      <trkpt lat="43.29621" lon="5.95065">
        <ele>520.00390625</ele>
        <time>2015-05-17T09:18:10Z</time>
      </trkpt>
      <trkpt lat="43.29614" lon="5.95082">
        <ele>517.03515625</ele>
        <time>2015-05-17T09:18:16Z</time>
      </trkpt>
      <trkpt lat="43.29614" lon="5.95083">
        <ele>516.87890625</ele>
        <time>2015-05-17T09:18:17Z</time>
      </trkpt>
      <trkpt lat="43.29612" lon="5.95087">
        <ele>516.375</ele>
        <time>2015-05-17T09:18:21Z</time>
      </trkpt>
      <trkpt lat="43.29612" lon="5.95089">
        <ele>516.171875</ele>
        <time>2015-05-17T09:18:22Z</time>
      </trkpt>
      <trkpt lat="43.29611" lon="5.95091">
        <ele>515.8125</ele>
        <time>2015-05-17T09:18:23Z</time>
      </trkpt>
      <trkpt lat="43.29605" lon="5.95101">
        <ele>513.75390625</ele>
        <time>2015-05-17T09:18:26Z</time>
      </trkpt>
      <trkpt lat="43.29598" lon="5.95108">
        <ele>511.5390625</ele>
        <time>2015-05-17T09:18:29Z</time>
      </trkpt>
      <trkpt lat="43.29593" lon="5.95111">
        <ele>509.84375</ele>
        <time>2015-05-17T09:18:31Z</time>
      </trkpt>
      <trkpt lat="43.29577" lon="5.95118">
        <ele>505.0625</ele>
        <time>2015-05-17T09:18:36Z</time>
      </trkpt>
      <trkpt lat="43.29557" lon="5.95136">
        <ele>500.13671875</ele>
        <time>2015-05-17T09:18:42Z</time>
      </trkpt>
      <trkpt lat="43.29556" lon="5.95137">
        <ele>499.79296875</ele>
        <time>2015-05-17T09:18:43Z</time>
      </trkpt>
      <trkpt lat="43.29546" lon="5.95144">
        <ele>498.0078125</ele>
        <time>2015-05-17T09:18:50Z</time>
      </trkpt>
      <trkpt lat="43.29545" lon="5.95145">
        <ele>497.45703125</ele>
        <time>2015-05-17T09:18:51Z</time>
      </trkpt>
      <trkpt lat="43.29534" lon="5.95149">
        <ele>494.73828125</ele>
        <time>2015-05-17T09:18:57Z</time>
      </trkpt>
      <trkpt lat="43.29532" lon="5.95151">
        <ele>494.046875</ele>
        <time>2015-05-17T09:18:58Z</time>
      </trkpt>
      <trkpt lat="43.29528" lon="5.95152">
        <ele>493.1171875</ele>
        <time>2015-05-17T09:18:59Z</time>
      </trkpt>
      <trkpt lat="43.29525" lon="5.95153">
        <ele>492.60546875</ele>
        <time>2015-05-17T09:19:00Z</time>
      </trkpt>
      <trkpt lat="43.29522" lon="5.95153">
        <ele>492.0234375</ele>
        <time>2015-05-17T09:19:01Z</time>
      </trkpt>
      <trkpt lat="43.29519" lon="5.95153">
        <ele>491.44140625</ele>
        <time>2015-05-17T09:19:02Z</time>
      </trkpt>
      <trkpt lat="43.29495" lon="5.95146">
        <ele>486.28515625</ele>
        <time>2015-05-17T09:19:10Z</time>
      </trkpt>
      <trkpt lat="43.29472" lon="5.95126">
        <ele>480.8203125</ele>
        <time>2015-05-17T09:19:18Z</time>
      </trkpt>
      <trkpt lat="43.29456" lon="5.95109">
        <ele>477.3203125</ele>
        <time>2015-05-17T09:19:26Z</time>
      </trkpt>
      <trkpt lat="43.29432" lon="5.95097">
        <ele>475.15234375</ele>
        <time>2015-05-17T09:19:36Z</time>
      </trkpt>
      <trkpt lat="43.29428" lon="5.95096">
        <ele>474.4765625</ele>
        <time>2015-05-17T09:19:42Z</time>
      </trkpt>
      <trkpt lat="43.29427" lon="5.95097">
        <ele>474.015625</ele>
        <time>2015-05-17T09:19:43Z</time>
      </trkpt>
      <trkpt lat="43.29426" lon="5.95099">
        <ele>473.5234375</ele>
        <time>2015-05-17T09:19:44Z</time>
      </trkpt>
      <trkpt lat="43.29424" lon="5.95098">
        <ele>473.1484375</ele>
        <time>2015-05-17T09:19:45Z</time>
      </trkpt>
      <trkpt lat="43.29421" lon="5.95097">
        <ele>472.9140625</ele>
        <time>2015-05-17T09:19:46Z</time>
      </trkpt>
      <trkpt lat="43.29418" lon="5.95095">
        <ele>472.734375</ele>
        <time>2015-05-17T09:19:47Z</time>
      </trkpt>
      <trkpt lat="43.29415" lon="5.95093">
        <ele>472.5859375</ele>
        <time>2015-05-17T09:19:48Z</time>
      </trkpt>
      <trkpt lat="43.29413" lon="5.95091">
        <ele>472.51171875</ele>
        <time>2015-05-17T09:19:49Z</time>
      </trkpt>
      <trkpt lat="43.2941" lon="5.95088">
        <ele>472.46875</ele>
        <time>2015-05-17T09:19:50Z</time>
      </trkpt>
      <trkpt lat="43.29395" lon="5.95077">
        <ele>471.75</ele>
        <time>2015-05-17T09:19:56Z</time>
      </trkpt>
      <trkpt lat="43.29392" lon="5.95078">
        <ele>471.14453125</ele>
        <time>2015-05-17T09:19:57Z</time>
      </trkpt>
      <trkpt lat="43.2939" lon="5.9508">
        <ele>470.41796875</ele>
        <time>2015-05-17T09:19:58Z</time>
      </trkpt>
      <trkpt lat="43.29389" lon="5.95083">
        <ele>469.73046875</ele>
        <time>2015-05-17T09:19:59Z</time>
      </trkpt>
      <trkpt lat="43.29389" lon="5.95087">
        <ele>468.96484375</ele>
        <time>2015-05-17T09:20:00Z</time>
      </trkpt>
      <trkpt lat="43.29388" lon="5.95091">
        <ele>468.24609375</ele>
        <time>2015-05-17T09:20:01Z</time>
      </trkpt>
      <trkpt lat="43.29385" lon="5.95094">
        <ele>467.50390625</ele>
        <time>2015-05-17T09:20:02Z</time>
      </trkpt>
      <trkpt lat="43.29382" lon="5.95097">
        <ele>466.80078125</ele>
        <time>2015-05-17T09:20:03Z</time>
      </trkpt>
      <trkpt lat="43.29379" lon="5.95099">
        <ele>466.17578125</ele>
        <time>2015-05-17T09:20:04Z</time>
      </trkpt>
      <trkpt lat="43.29375" lon="5.951">
        <ele>465.6328125</ele>
        <time>2015-05-17T09:20:05Z</time>
      </trkpt>
      <trkpt lat="43.29372" lon="5.95101">
        <ele>465.234375</ele>
        <time>2015-05-17T09:20:06Z</time>
      </trkpt>
      <trkpt lat="43.29351" lon="5.951">
        <ele>463.84765625</ele>
        <time>2015-05-17T09:20:15Z</time>
      </trkpt>
      <trkpt lat="43.2935" lon="5.95103">
        <ele>463.39453125</ele>
        <time>2015-05-17T09:20:16Z</time>
      </trkpt>
      <trkpt lat="43.29349" lon="5.95105">
        <ele>462.8515625</ele>
        <time>2015-05-17T09:20:17Z</time>
      </trkpt>
      <trkpt lat="43.29346" lon="5.95107">
        <ele>462.30078125</ele>
        <time>2015-05-17T09:20:18Z</time>
      </trkpt>
      <trkpt lat="43.29344" lon="5.95108">
        <ele>461.9609375</ele>
        <time>2015-05-17T09:20:19Z</time>
      </trkpt>
      <trkpt lat="43.29341" lon="5.95107">
        <ele>461.87109375</ele>
        <time>2015-05-17T09:20:20Z</time>
      </trkpt>
      <trkpt lat="43.29338" lon="5.95107">
        <ele>461.83203125</ele>
        <time>2015-05-17T09:20:21Z</time>
      </trkpt>
      <trkpt lat="43.29336" lon="5.95106">
        <ele>461.84765625</ele>
        <time>2015-05-17T09:20:22Z</time>
      </trkpt>
      <trkpt lat="43.29333" lon="5.95104">
        <ele>461.84765625</ele>
        <time>2015-05-17T09:20:23Z</time>
      </trkpt>
      <trkpt lat="43.29329" lon="5.95103">
        <ele>461.86328125</ele>
        <time>2015-05-17T09:20:24Z</time>
      </trkpt>
      <trkpt lat="43.29326" lon="5.95101">
        <ele>461.875</ele>
        <time>2015-05-17T09:20:25Z</time>
      </trkpt>
      <trkpt lat="43.29324" lon="5.95101">
        <ele>461.6953125</ele>
        <time>2015-05-17T09:20:26Z</time>
      </trkpt>
      <trkpt lat="43.29321" lon="5.95101">
        <ele>461.48046875</ele>
        <time>2015-05-17T09:20:27Z</time>
      </trkpt>
      <trkpt lat="43.29318" lon="5.95099">
        <ele>461.484375</ele>
        <time>2015-05-17T09:20:28Z</time>
      </trkpt>
      <trkpt lat="43.29315" lon="5.95097">
        <ele>461.5703125</ele>
        <time>2015-05-17T09:20:29Z</time>
      </trkpt>
      <trkpt lat="43.29311" lon="5.95096">
        <ele>461.375</ele>
        <time>2015-05-17T09:20:30Z</time>
      </trkpt>
      <trkpt lat="43.29307" lon="5.95096">
        <ele>461.08984375</ele>
        <time>2015-05-17T09:20:31Z</time>
      </trkpt>
      <trkpt lat="43.29304" lon="5.95094">
        <ele>460.984375</ele>
        <time>2015-05-17T09:20:32Z</time>
      </trkpt>
      <trkpt lat="43.29302" lon="5.95091">
        <ele>461.03515625</ele>
        <time>2015-05-17T09:20:33Z</time>
      </trkpt>
      <trkpt lat="43.293" lon="5.95088">
        <ele>461.18359375</ele>
        <time>2015-05-17T09:20:34Z</time>
      </trkpt>
      <trkpt lat="43.29282" lon="5.95069">
        <ele>461.65625</ele>
        <time>2015-05-17T09:20:43Z</time>
      </trkpt>
      <trkpt lat="43.29277" lon="5.95064">
        <ele>461.78125</ele>
        <time>2015-05-17T09:20:45Z</time>
      </trkpt>
      <trkpt lat="43.29252" lon="5.95041">
        <ele>460.44921875</ele>
        <time>2015-05-17T09:20:56Z</time>
      </trkpt>
      <trkpt lat="43.29237" lon="5.95034">
        <ele>459.73046875</ele>
        <time>2015-05-17T09:21:04Z</time>
      </trkpt>
      <trkpt lat="43.29235" lon="5.95032">
        <ele>459.765625</ele>
        <time>2015-05-17T09:21:12Z</time>
      </trkpt>
      <trkpt lat="43.29233" lon="5.95029">
        <ele>459.984375</ele>
        <time>2015-05-17T09:21:14Z</time>
      </trkpt>
      <trkpt lat="43.29232" lon="5.95026">
        <ele>460.3203125</ele>
        <time>2015-05-17T09:21:15Z</time>
      </trkpt>
      <trkpt lat="43.29231" lon="5.95022">
        <ele>460.6171875</ele>
        <time>2015-05-17T09:21:16Z</time>
      </trkpt>
      <trkpt lat="43.2923" lon="5.95018">
        <ele>460.9140625</ele>
        <time>2015-05-17T09:21:17Z</time>
      </trkpt>
      <trkpt lat="43.29224" lon="5.95007">
        <ele>461.1796875</ele>
        <time>2015-05-17T09:21:21Z</time>
      </trkpt>
      <trkpt lat="43.29222" lon="5.95003">
        <ele>461.28515625</ele>
        <time>2015-05-17T09:21:22Z</time>
      </trkpt>
      <trkpt lat="43.29214" lon="5.94982">
        <ele>461.875</ele>
        <time>2015-05-17T09:21:31Z</time>
      </trkpt>
      <trkpt lat="43.29208" lon="5.94967">
        <ele>461.8984375</ele>
        <time>2015-05-17T09:21:37Z</time>
      </trkpt>
      <trkpt lat="43.29203" lon="5.94957">
        <ele>461.2890625</ele>
        <time>2015-05-17T09:21:41Z</time>
      </trkpt>
      <trkpt lat="43.29193" lon="5.94939">
        <ele>459.57421875</ele>
        <time>2015-05-17T09:21:49Z</time>
      </trkpt>
      <trkpt lat="43.29191" lon="5.94936">
        <ele>459.40234375</ele>
        <time>2015-05-17T09:21:50Z</time>
      </trkpt>
      <trkpt lat="43.29173" lon="5.94918">
        <ele>456.05078125</ele>
        <time>2015-05-17T09:21:57Z</time>
      </trkpt>
      <trkpt lat="43.29169" lon="5.94913">
        <ele>455.5</ele>
        <time>2015-05-17T09:21:59Z</time>
      </trkpt>
      <trkpt lat="43.29162" lon="5.94903">
        <ele>455.140625</ele>
        <time>2015-05-17T09:22:03Z</time>
      </trkpt>
      <trkpt lat="43.29136" lon="5.94889">
        <ele>451.31640625</ele>
        <time>2015-05-17T09:22:14Z</time>
      </trkpt>
      <trkpt lat="43.29124" lon="5.94887">
        <ele>449.7734375</ele>
        <time>2015-05-17T09:22:18Z</time>
      </trkpt>
      <trkpt lat="43.2912" lon="5.94887">
        <ele>449.2265625</ele>
        <time>2015-05-17T09:22:19Z</time>
      </trkpt>
      <trkpt lat="43.29116" lon="5.94885">
        <ele>448.79296875</ele>
        <time>2015-05-17T09:22:20Z</time>
      </trkpt>
      <trkpt lat="43.29112" lon="5.94883">
        <ele>448.3359375</ele>
        <time>2015-05-17T09:22:21Z</time>
      </trkpt>
      <trkpt lat="43.29108" lon="5.94881">
        <ele>448.04296875</ele>
        <time>2015-05-17T09:22:22Z</time>
      </trkpt>
      <trkpt lat="43.29104" lon="5.94878">
        <ele>447.7890625</ele>
        <time>2015-05-17T09:22:23Z</time>
      </trkpt>
      <trkpt lat="43.29101" lon="5.94876">
        <ele>447.58203125</ele>
        <time>2015-05-17T09:22:24Z</time>
      </trkpt>
      <trkpt lat="43.29074" lon="5.94838">
        <ele>448.19921875</ele>
        <time>2015-05-17T09:22:35Z</time>
      </trkpt>
      <trkpt lat="43.29071" lon="5.94835">
        <ele>448.22265625</ele>
        <time>2015-05-17T09:22:36Z</time>
      </trkpt>
      <trkpt lat="43.29069" lon="5.94834">
        <ele>448.0703125</ele>
        <time>2015-05-17T09:22:37Z</time>
      </trkpt>
      <trkpt lat="43.2906" lon="5.94833">
        <ele>447.23828125</ele>
        <time>2015-05-17T09:22:40Z</time>
      </trkpt>
      <trkpt lat="43.2905" lon="5.94834">
        <ele>445.97265625</ele>
        <time>2015-05-17T09:22:43Z</time>
      </trkpt>
      <trkpt lat="43.29046" lon="5.94832">
        <ele>445.88671875</ele>
        <time>2015-05-17T09:22:44Z</time>
      </trkpt>
      <trkpt lat="43.29028" lon="5.94815">
        <ele>445.01171875</ele>
        <time>2015-05-17T09:22:51Z</time>
      </trkpt>
      <trkpt lat="43.29026" lon="5.94811">
        <ele>445.0546875</ele>
        <time>2015-05-17T09:22:52Z</time>
      </trkpt>
      <trkpt lat="43.29024" lon="5.94807">
        <ele>445.0859375</ele>
        <time>2015-05-17T09:22:53Z</time>
      </trkpt>
      <trkpt lat="43.29022" lon="5.94804">
        <ele>444.98046875</ele>
        <time>2015-05-17T09:22:54Z</time>
      </trkpt>
      <trkpt lat="43.29019" lon="5.94801">
        <ele>444.67578125</ele>
        <time>2015-05-17T09:22:55Z</time>
      </trkpt>
      <trkpt lat="43.29015" lon="5.94798">
        <ele>444.32421875</ele>
        <time>2015-05-17T09:22:56Z</time>
      </trkpt>
      <trkpt lat="43.28996" lon="5.94778">
        <ele>442.078125</ele>
        <time>2015-05-17T09:23:01Z</time>
      </trkpt>
      <trkpt lat="43.28993" lon="5.94773">
        <ele>441.77734375</ele>
        <time>2015-05-17T09:23:02Z</time>
      </trkpt>
      <trkpt lat="43.2899" lon="5.94769">
        <ele>441.5546875</ele>
        <time>2015-05-17T09:23:03Z</time>
      </trkpt>
      <trkpt lat="43.28976" lon="5.94744">
        <ele>440.6875</ele>
        <time>2015-05-17T09:23:10Z</time>
      </trkpt>
      <trkpt lat="43.28976" lon="5.9474">
        <ele>440.71484375</ele>
        <time>2015-05-17T09:23:11Z</time>
      </trkpt>
      <trkpt lat="43.28975" lon="5.94737">
        <ele>440.65234375</ele>
        <time>2015-05-17T09:23:12Z</time>
      </trkpt>
      <trkpt lat="43.28949" lon="5.94705">
        <ele>438.09375</ele>
        <time>2015-05-17T09:23:21Z</time>
      </trkpt>
      <trkpt lat="43.2893" lon="5.94692">
        <ele>436.35546875</ele>
        <time>2015-05-17T09:23:25Z</time>
      </trkpt>
      <trkpt lat="43.2892" lon="5.94686">
        <ele>435.54296875</ele>
        <time>2015-05-17T09:23:27Z</time>
      </trkpt>
      <trkpt lat="43.28916" lon="5.94683">
        <ele>435.140625</ele>
        <time>2015-05-17T09:23:28Z</time>
      </trkpt>
      <trkpt lat="43.28912" lon="5.94681">
        <ele>434.74609375</ele>
        <time>2015-05-17T09:23:29Z</time>
      </trkpt>
      <trkpt lat="43.28907" lon="5.94678">
        <ele>434.34375</ele>
        <time>2015-05-17T09:23:30Z</time>
      </trkpt>
      <trkpt lat="43.28902" lon="5.94676">
        <ele>433.8984375</ele>
        <time>2015-05-17T09:23:31Z</time>
      </trkpt>
      <trkpt lat="43.28897" lon="5.94674">
        <ele>433.43359375</ele>
        <time>2015-05-17T09:23:32Z</time>
      </trkpt>
      <trkpt lat="43.28892" lon="5.94673">
        <ele>432.97265625</ele>
        <time>2015-05-17T09:23:33Z</time>
      </trkpt>
      <trkpt lat="43.28888" lon="5.94672">
        <ele>432.61328125</ele>
        <time>2015-05-17T09:23:34Z</time>
      </trkpt>
      <trkpt lat="43.28863" lon="5.94667">
        <ele>430.9140625</ele>
        <time>2015-05-17T09:23:40Z</time>
      </trkpt>
      <trkpt lat="43.28848" lon="5.94667">
        <ele>429.8828125</ele>
        <time>2015-05-17T09:23:43Z</time>
      </trkpt>
      <trkpt lat="43.28843" lon="5.94667">
        <ele>429.55078125</ele>
        <time>2015-05-17T09:23:44Z</time>
      </trkpt>
      <trkpt lat="43.28839" lon="5.94665">
        <ele>429.30078125</ele>
        <time>2015-05-17T09:23:45Z</time>
      </trkpt>
      <trkpt lat="43.28835" lon="5.94663">
        <ele>429.140625</ele>
        <time>2015-05-17T09:23:46Z</time>
      </trkpt>
      <trkpt lat="43.28831" lon="5.94662">
        <ele>428.9296875</ele>
        <time>2015-05-17T09:23:47Z</time>
      </trkpt>
      <trkpt lat="43.28803" lon="5.94638">
        <ele>427.734375</ele>
        <time>2015-05-17T09:23:56Z</time>
      </trkpt>
      <trkpt lat="43.28804" lon="5.94635">
        <ele>427.77734375</ele>
        <time>2015-05-17T09:23:57Z</time>
      </trkpt>
      <trkpt lat="43.28808" lon="5.94625">
        <ele>428.125</ele>
        <time>2015-05-17T09:24:00Z</time>
      </trkpt>
      <trkpt lat="43.28817" lon="5.94611">
        <ele>429.07421875</ele>
        <time>2015-05-17T09:24:05Z</time>
      </trkpt>
      <trkpt lat="43.28817" lon="5.94606">
        <ele>429.0859375</ele>
        <time>2015-05-17T09:24:06Z</time>
      </trkpt>
      <trkpt lat="43.28815" lon="5.94601">
        <ele>428.99609375</ele>
        <time>2015-05-17T09:24:07Z</time>
      </trkpt>
      <trkpt lat="43.28813" lon="5.94596">
        <ele>428.82421875</ele>
        <time>2015-05-17T09:24:08Z</time>
      </trkpt>
      <trkpt lat="43.28811" lon="5.94592">
        <ele>428.53125</ele>
        <time>2015-05-17T09:24:09Z</time>
      </trkpt>
      <trkpt lat="43.28808" lon="5.94589">
        <ele>428.1484375</ele>
        <time>2015-05-17T09:24:10Z</time>
      </trkpt>
      <trkpt lat="43.28805" lon="5.94586">
        <ele>427.83203125</ele>
        <time>2015-05-17T09:24:11Z</time>
      </trkpt>
      <trkpt lat="43.28803" lon="5.94583">
        <ele>427.56640625</ele>
        <time>2015-05-17T09:24:12Z</time>
      </trkpt>
      <trkpt lat="43.288" lon="5.9458">
        <ele>427.359375</ele>
        <time>2015-05-17T09:24:13Z</time>
      </trkpt>
      <trkpt lat="43.28784" lon="5.94567">
        <ele>426.0546875</ele>
        <time>2015-05-17T09:24:22Z</time>
      </trkpt>
      <trkpt lat="43.28775" lon="5.94564">
        <ele>425.41015625</ele>
        <time>2015-05-17T09:24:27Z</time>
      </trkpt>
      <trkpt lat="43.28771" lon="5.9456">
        <ele>425.24609375</ele>
        <time>2015-05-17T09:24:33Z</time>
      </trkpt>
      <trkpt lat="43.28765" lon="5.94558">
        <ele>424.94140625</ele>
        <time>2015-05-17T09:24:37Z</time>
      </trkpt>
      <trkpt lat="43.28756" lon="5.94559">
        <ele>424.28125</ele>
        <time>2015-05-17T09:24:41Z</time>
      </trkpt>
      <trkpt lat="43.28753" lon="5.94562">
        <ele>424.12890625</ele>
        <time>2015-05-17T09:24:42Z</time>
      </trkpt>
      <trkpt lat="43.28751" lon="5.94563">
        <ele>423.97265625</ele>
        <time>2015-05-17T09:24:43Z</time>
      </trkpt>
      <trkpt lat="43.28748" lon="5.94564">
        <ele>423.765625</ele>
        <time>2015-05-17T09:24:44Z</time>
      </trkpt>
      <trkpt lat="43.28745" lon="5.94564">
        <ele>423.51953125</ele>
        <time>2015-05-17T09:24:45Z</time>
      </trkpt>
      <trkpt lat="43.28741" lon="5.94564">
        <ele>423.23828125</ele>
        <time>2015-05-17T09:24:46Z</time>
      </trkpt>
      <trkpt lat="43.28737" lon="5.94564">
        <ele>422.9453125</ele>
        <time>2015-05-17T09:24:47Z</time>
      </trkpt>
      <trkpt lat="43.28732" lon="5.94565">
        <ele>422.60546875</ele>
        <time>2015-05-17T09:24:48Z</time>
      </trkpt>
      <trkpt lat="43.28727" lon="5.94565">
        <ele>422.23828125</ele>
        <time>2015-05-17T09:24:49Z</time>
      </trkpt>
      <trkpt lat="43.28722" lon="5.94564">
        <ele>421.828125</ele>
        <time>2015-05-17T09:24:50Z</time>
      </trkpt>
      <trkpt lat="43.28704" lon="5.94563">
        <ele>420.33984375</ele>
        <time>2015-05-17T09:24:58Z</time>
      </trkpt>
      <trkpt lat="43.28702" lon="5.94565">
        <ele>420.140625</ele>
        <time>2015-05-17T09:25:13Z</time>
      </trkpt>
      <trkpt lat="43.28699" lon="5.9457">
        <ele>419.7265625</ele>
        <time>2015-05-17T09:25:42Z</time>
      </trkpt>
      <trkpt lat="43.28696" lon="5.9457">
        <ele>419.45703125</ele>
        <time>2015-05-17T09:26:05Z</time>
      </trkpt>
      <trkpt lat="43.28699" lon="5.94568">
        <ele>419.76953125</ele>
        <time>2015-05-17T09:26:26Z</time>
      </trkpt>
      <trkpt lat="43.28698" lon="5.94567">
        <ele>419.76953125</ele>
        <time>2015-05-17T09:26:58Z</time>
      </trkpt>
      <trkpt lat="43.28694" lon="5.94568">
        <ele>419.41015625</ele>
        <time>2015-05-17T09:27:29Z</time>
      </trkpt>
      <trkpt lat="43.28694" lon="5.94572">
        <ele>419.24609375</ele>
        <time>2015-05-17T09:27:55Z</time>
      </trkpt>
      <trkpt lat="43.28696" lon="5.94569">
        <ele>419.4765625</ele>
        <time>2015-05-17T09:28:17Z</time>
      </trkpt>
      <trkpt lat="43.28693" lon="5.9457">
        <ele>419.203125</ele>
        <time>2015-05-17T09:28:27Z</time>
      </trkpt>
      <trkpt lat="43.28691" lon="5.94573">
        <ele>418.9921875</ele>
        <time>2015-05-17T09:28:29Z</time>
      </trkpt>
      <trkpt lat="43.2869" lon="5.94574">
        <ele>418.8359375</ele>
        <time>2015-05-17T09:28:30Z</time>
      </trkpt>
      <trkpt lat="43.28689" lon="5.94576">
        <ele>418.70703125</ele>
        <time>2015-05-17T09:28:31Z</time>
      </trkpt>
      <trkpt lat="43.28688" lon="5.94582">
        <ele>418.4296875</ele>
        <time>2015-05-17T09:28:35Z</time>
      </trkpt>
      <trkpt lat="43.28688" lon="5.94584">
        <ele>418.43359375</ele>
        <time>2015-05-17T09:28:36Z</time>
      </trkpt>
      <trkpt lat="43.28689" lon="5.94587">
        <ele>418.515625</ele>
        <time>2015-05-17T09:28:51Z</time>
      </trkpt>
      <trkpt lat="43.28689" lon="5.94588">
        <ele>418.53515625</ele>
        <time>2015-05-17T09:29:00Z</time>
      </trkpt>
      <trkpt lat="43.28689" lon="5.94588">
        <ele>418.52734375</ele>
        <time>2015-05-17T09:29:01Z</time>
      </trkpt>
      <trkpt lat="43.28689" lon="5.94588">
        <ele>418.53125</ele>
        <time>2015-05-17T09:29:02Z</time>
      </trkpt>
      <trkpt lat="43.28689" lon="5.94589">
        <ele>418.50390625</ele>
        <time>2015-05-17T09:29:04Z</time>
      </trkpt>
      <trkpt lat="43.28688" lon="5.9459">
        <ele>418.42578125</ele>
        <time>2015-05-17T09:29:11Z</time>
      </trkpt>
      <trkpt lat="43.28688" lon="5.9459">
        <ele>418.43359375</ele>
        <time>2015-05-17T09:29:12Z</time>
      </trkpt>
      <trkpt lat="43.2869" lon="5.94589">
        <ele>418.59375</ele>
        <time>2015-05-17T09:29:43Z</time>
      </trkpt>
      <trkpt lat="43.2869" lon="5.94591">
        <ele>418.5703125</ele>
        <time>2015-05-17T09:29:44Z</time>
      </trkpt>
      <trkpt lat="43.28689" lon="5.94606">
        <ele>418.5</ele>
        <time>2015-05-17T09:29:48Z</time>
      </trkpt>
      <trkpt lat="43.28693" lon="5.94652">
        <ele>417.28125</ele>
        <time>2015-05-17T09:29:58Z</time>
      </trkpt>
      <trkpt lat="43.28698" lon="5.94658">
        <ele>417.39453125</ele>
        <time>2015-05-17T09:30:01Z</time>
      </trkpt>
      <trkpt lat="43.28699" lon="5.9466">
        <ele>417.41015625</ele>
        <time>2015-05-17T09:30:13Z</time>
      </trkpt>
      <trkpt lat="43.28703" lon="5.9466">
        <ele>417.7109375</ele>
        <time>2015-05-17T09:30:28Z</time>
      </trkpt>
      <trkpt lat="43.28703" lon="5.9466">
        <ele>417.73828125</ele>
        <time>2015-05-17T09:31:03Z</time>
      </trkpt>
      <trkpt lat="43.28699" lon="5.94658">
        <ele>417.484375</ele>
        <time>2015-05-17T09:31:39Z</time>
      </trkpt>
      <trkpt lat="43.28698" lon="5.94658">
        <ele>417.4140625</ele>
        <time>2015-05-17T09:32:20Z</time>
      </trkpt>
      <trkpt lat="43.28696" lon="5.94657">
        <ele>417.296875</ele>
        <time>2015-05-17T09:33:03Z</time>
      </trkpt>
      <trkpt lat="43.28701" lon="5.94656">
        <ele>417.72265625</ele>
        <time>2015-05-17T09:33:41Z</time>
      </trkpt>
      <trkpt lat="43.287" lon="5.9466">
        <ele>417.5078125</ele>
        <time>2015-05-17T09:34:21Z</time>
      </trkpt>
      <trkpt lat="43.28703" lon="5.94662">
        <ele>417.6796875</ele>
        <time>2015-05-17T09:34:57Z</time>
      </trkpt>
      <trkpt lat="43.2872" lon="5.94694">
        <ele>418.7578125</ele>
        <time>2015-05-17T09:35:08Z</time>
      </trkpt>
      <trkpt lat="43.28724" lon="5.94752">
        <ele>418.03515625</ele>
        <time>2015-05-17T09:35:21Z</time>
      </trkpt>
      <trkpt lat="43.28722" lon="5.94811">
        <ele>417.93359375</ele>
        <time>2015-05-17T09:35:34Z</time>
      </trkpt>
      <trkpt lat="43.28728" lon="5.94854">
        <ele>418.84375</ele>
        <time>2015-05-17T09:35:46Z</time>
      </trkpt>
      <trkpt lat="43.2873" lon="5.94857">
        <ele>418.91015625</ele>
        <time>2015-05-17T09:35:47Z</time>
      </trkpt>
      <trkpt lat="43.28733" lon="5.94859">
        <ele>418.98046875</ele>
        <time>2015-05-17T09:35:48Z</time>
      </trkpt>
      <trkpt lat="43.28736" lon="5.94861">
        <ele>419.01953125</ele>
        <time>2015-05-17T09:35:49Z</time>
      </trkpt>
      <trkpt lat="43.28738" lon="5.94863">
        <ele>419.05859375</ele>
        <time>2015-05-17T09:35:50Z</time>
      </trkpt>
      <trkpt lat="43.28742" lon="5.94865">
        <ele>419.109375</ele>
        <time>2015-05-17T09:35:51Z</time>
      </trkpt>
      <trkpt lat="43.28745" lon="5.94866">
        <ele>419.1796875</ele>
        <time>2015-05-17T09:35:52Z</time>
      </trkpt>
      <trkpt lat="43.28747" lon="5.94869">
        <ele>419.26953125</ele>
        <time>2015-05-17T09:35:53Z</time>
      </trkpt>
      <trkpt lat="43.28755" lon="5.94901">
        <ele>420.1328125</ele>
        <time>2015-05-17T09:36:04Z</time>
      </trkpt>
      <trkpt lat="43.28745" lon="5.9494">
        <ele>419.765625</ele>
        <time>2015-05-17T09:36:16Z</time>
      </trkpt>
      <trkpt lat="43.28743" lon="5.94946">
        <ele>419.69921875</ele>
        <time>2015-05-17T09:36:19Z</time>
      </trkpt>
      <trkpt lat="43.2874" lon="5.94949">
        <ele>419.57421875</ele>
        <time>2015-05-17T09:36:25Z</time>
      </trkpt>
      <trkpt lat="43.28738" lon="5.94949">
        <ele>419.51171875</ele>
        <time>2015-05-17T09:36:26Z</time>
      </trkpt>
      <trkpt lat="43.28735" lon="5.94947">
        <ele>419.4140625</ele>
        <time>2015-05-17T09:36:27Z</time>
      </trkpt>
      <trkpt lat="43.28732" lon="5.94946">
        <ele>419.30859375</ele>
        <time>2015-05-17T09:36:28Z</time>
      </trkpt>
      <trkpt lat="43.28729" lon="5.94944">
        <ele>419.203125</ele>
        <time>2015-05-17T09:36:29Z</time>
      </trkpt>
      <trkpt lat="43.28726" lon="5.94942">
        <ele>419.08984375</ele>
        <time>2015-05-17T09:36:30Z</time>
      </trkpt>
      <trkpt lat="43.28723" lon="5.9494">
        <ele>419</ele>
        <time>2015-05-17T09:36:31Z</time>
      </trkpt>
      <trkpt lat="43.2872" lon="5.94939">
        <ele>419</ele>
        <time>2015-05-17T09:36:32Z</time>
      </trkpt>
      <trkpt lat="43.28718" lon="5.94939">
        <ele>419</ele>
        <time>2015-05-17T09:36:33Z</time>
      </trkpt>
      <trkpt lat="43.28715" lon="5.9494">
        <ele>419</ele>
        <time>2015-05-17T09:36:34Z</time>
      </trkpt>
      <trkpt lat="43.28711" lon="5.94941">
        <ele>419</ele>
        <time>2015-05-17T09:36:35Z</time>
      </trkpt>
      <trkpt lat="43.28708" lon="5.94943">
        <ele>419.00390625</ele>
        <time>2015-05-17T09:36:36Z</time>
      </trkpt>
      <trkpt lat="43.28705" lon="5.94946">
        <ele>419.0625</ele>
        <time>2015-05-17T09:36:37Z</time>
      </trkpt>
      <trkpt lat="43.28674" lon="5.94964">
        <ele>418.3671875</ele>
        <time>2015-05-17T09:36:45Z</time>
      </trkpt>
      <trkpt lat="43.28669" lon="5.94964">
        <ele>418.0390625</ele>
        <time>2015-05-17T09:36:46Z</time>
      </trkpt>
      <trkpt lat="43.28644" lon="5.94962">
        <ele>416.29296875</ele>
        <time>2015-05-17T09:36:51Z</time>
      </trkpt>
      <trkpt lat="43.28641" lon="5.94964">
        <ele>416.0546875</ele>
        <time>2015-05-17T09:36:52Z</time>
      </trkpt>
      <trkpt lat="43.28639" lon="5.94968">
        <ele>415.9375</ele>
        <time>2015-05-17T09:36:53Z</time>
      </trkpt>
      <trkpt lat="43.28636" lon="5.94972">
        <ele>415.80078125</ele>
        <time>2015-05-17T09:36:54Z</time>
      </trkpt>
      <trkpt lat="43.28634" lon="5.94977">
        <ele>415.5546875</ele>
        <time>2015-05-17T09:36:55Z</time>
      </trkpt>
      <trkpt lat="43.28632" lon="5.94982">
        <ele>415.31640625</ele>
        <time>2015-05-17T09:36:56Z</time>
      </trkpt>
      <trkpt lat="43.28629" lon="5.94991">
        <ele>414.83203125</ele>
        <time>2015-05-17T09:36:58Z</time>
      </trkpt>
      <trkpt lat="43.28619" lon="5.95008">
        <ele>414.5703125</ele>
        <time>2015-05-17T09:37:01Z</time>
      </trkpt>
      <trkpt lat="43.28615" lon="5.95013">
        <ele>414.58984375</ele>
        <time>2015-05-17T09:37:02Z</time>
      </trkpt>
      <trkpt lat="43.28611" lon="5.95016">
        <ele>414.546875</ele>
        <time>2015-05-17T09:37:03Z</time>
      </trkpt>
      <trkpt lat="43.28606" lon="5.9502">
        <ele>414.37890625</ele>
        <time>2015-05-17T09:37:04Z</time>
      </trkpt>
      <trkpt lat="43.286" lon="5.95022">
        <ele>414.08203125</ele>
        <time>2015-05-17T09:37:05Z</time>
      </trkpt>
      <trkpt lat="43.28594" lon="5.95024">
        <ele>413.71875</ele>
        <time>2015-05-17T09:37:06Z</time>
      </trkpt>
      <trkpt lat="43.28574" lon="5.95033">
        <ele>413.53515625</ele>
        <time>2015-05-17T09:37:10Z</time>
      </trkpt>
      <trkpt lat="43.28569" lon="5.95036">
        <ele>413.71484375</ele>
        <time>2015-05-17T09:37:11Z</time>
      </trkpt>
      <trkpt lat="43.2856" lon="5.95043">
        <ele>413.9609375</ele>
        <time>2015-05-17T09:37:13Z</time>
      </trkpt>
      <trkpt lat="43.28555" lon="5.95046">
        <ele>414.046875</ele>
        <time>2015-05-17T09:37:14Z</time>
      </trkpt>
      <trkpt lat="43.28546" lon="5.95052">
        <ele>414.36328125</ele>
        <time>2015-05-17T09:37:16Z</time>
      </trkpt>
      <trkpt lat="43.28533" lon="5.95057">
        <ele>415.05078125</ele>
        <time>2015-05-17T09:37:19Z</time>
      </trkpt>
      <trkpt lat="43.28529" lon="5.95057">
        <ele>415.26171875</ele>
        <time>2015-05-17T09:37:20Z</time>
      </trkpt>
      <trkpt lat="43.28508" lon="5.9506">
        <ele>416.0078125</ele>
        <time>2015-05-17T09:37:25Z</time>
      </trkpt>
      <trkpt lat="43.28499" lon="5.9506">
        <ele>416.43359375</ele>
        <time>2015-05-17T09:37:28Z</time>
      </trkpt>
      <trkpt lat="43.28467" lon="5.95065">
        <ele>418.87890625</ele>
        <time>2015-05-17T09:37:38Z</time>
      </trkpt>
      <trkpt lat="43.28462" lon="5.95066">
        <ele>419.30078125</ele>
        <time>2015-05-17T09:37:41Z</time>
      </trkpt>
      <trkpt lat="43.2846" lon="5.95067">
        <ele>419.48828125</ele>
        <time>2015-05-17T09:37:42Z</time>
      </trkpt>
      <trkpt lat="43.28457" lon="5.95069">
        <ele>419.71484375</ele>
        <time>2015-05-17T09:37:43Z</time>
      </trkpt>
      <trkpt lat="43.28455" lon="5.95072">
        <ele>419.9765625</ele>
        <time>2015-05-17T09:37:44Z</time>
      </trkpt>
      <trkpt lat="43.28453" lon="5.95075">
        <ele>420.26171875</ele>
        <time>2015-05-17T09:37:45Z</time>
      </trkpt>
      <trkpt lat="43.28421" lon="5.95107">
        <ele>420.1015625</ele>
        <time>2015-05-17T09:37:55Z</time>
      </trkpt>
      <trkpt lat="43.28419" lon="5.95112">
        <ele>420.20703125</ele>
        <time>2015-05-17T09:37:56Z</time>
      </trkpt>
      <trkpt lat="43.28416" lon="5.95118">
        <ele>420.41796875</ele>
        <time>2015-05-17T09:37:57Z</time>
      </trkpt>
      <trkpt lat="43.28414" lon="5.95125">
        <ele>420.71875</ele>
        <time>2015-05-17T09:37:58Z</time>
      </trkpt>
      <trkpt lat="43.28413" lon="5.95132">
        <ele>421.171875</ele>
        <time>2015-05-17T09:37:59Z</time>
      </trkpt>
      <trkpt lat="43.28411" lon="5.9514">
        <ele>421.76171875</ele>
        <time>2015-05-17T09:38:00Z</time>
      </trkpt>
      <trkpt lat="43.2841" lon="5.95147">
        <ele>422.4296875</ele>
        <time>2015-05-17T09:38:01Z</time>
      </trkpt>
      <trkpt lat="43.28408" lon="5.95153">
        <ele>422.92578125</ele>
        <time>2015-05-17T09:38:02Z</time>
      </trkpt>
      <trkpt lat="43.28404" lon="5.95158">
        <ele>423.17578125</ele>
        <time>2015-05-17T09:38:03Z</time>
      </trkpt>
      <trkpt lat="43.28399" lon="5.95161">
        <ele>423.21484375</ele>
        <time>2015-05-17T09:38:04Z</time>
      </trkpt>
      <trkpt lat="43.28394" lon="5.95163">
        <ele>423.015625</ele>
        <time>2015-05-17T09:38:05Z</time>
      </trkpt>
      <trkpt lat="43.28389" lon="5.95162">
        <ele>422.49609375</ele>
        <time>2015-05-17T09:38:06Z</time>
      </trkpt>
      <trkpt lat="43.28383" lon="5.95161">
        <ele>421.62890625</ele>
        <time>2015-05-17T09:38:07Z</time>
      </trkpt>
      <trkpt lat="43.28376" lon="5.95158">
        <ele>420.6015625</ele>
        <time>2015-05-17T09:38:08Z</time>
      </trkpt>
      <trkpt lat="43.2837" lon="5.95156">
        <ele>419.5078125</ele>
        <time>2015-05-17T09:38:09Z</time>
      </trkpt>
      <trkpt lat="43.28358" lon="5.9515">
        <ele>417.50390625</ele>
        <time>2015-05-17T09:38:11Z</time>
      </trkpt>
      <trkpt lat="43.28352" lon="5.95146">
        <ele>416.5625</ele>
        <time>2015-05-17T09:38:12Z</time>
      </trkpt>
      <trkpt lat="43.28316" lon="5.9511">
        <ele>411.0859375</ele>
        <time>2015-05-17T09:38:23Z</time>
      </trkpt>
      <trkpt lat="43.28287" lon="5.95099">
        <ele>412.08984375</ele>
        <time>2015-05-17T09:38:35Z</time>
      </trkpt>
      <trkpt lat="43.28278" lon="5.95095">
        <ele>412.5234375</ele>
        <time>2015-05-17T09:38:39Z</time>
      </trkpt>
      <trkpt lat="43.28276" lon="5.95096">
        <ele>412.625</ele>
        <time>2015-05-17T09:38:40Z</time>
      </trkpt>
      <trkpt lat="43.28275" lon="5.95097">
        <ele>412.72265625</ele>
        <time>2015-05-17T09:38:41Z</time>
      </trkpt>
      <trkpt lat="43.28273" lon="5.95098">
        <ele>412.82421875</ele>
        <time>2015-05-17T09:38:42Z</time>
      </trkpt>
      <trkpt lat="43.2827" lon="5.95098">
        <ele>412.92578125</ele>
        <time>2015-05-17T09:38:43Z</time>
      </trkpt>
      <trkpt lat="43.28267" lon="5.95098">
        <ele>413.04296875</ele>
        <time>2015-05-17T09:38:44Z</time>
      </trkpt>
      <trkpt lat="43.28264" lon="5.95098">
        <ele>413.1640625</ele>
        <time>2015-05-17T09:38:45Z</time>
      </trkpt>
      <trkpt lat="43.28235" lon="5.95123">
        <ele>413.5625</ele>
        <time>2015-05-17T09:38:55Z</time>
      </trkpt>
      <trkpt lat="43.2821" lon="5.95154">
        <ele>410.98046875</ele>
        <time>2015-05-17T09:39:01Z</time>
      </trkpt>
      <trkpt lat="43.28207" lon="5.95161">
        <ele>410.5234375</ele>
        <time>2015-05-17T09:39:02Z</time>
      </trkpt>
      <trkpt lat="43.28204" lon="5.95169">
        <ele>410.14453125</ele>
        <time>2015-05-17T09:39:03Z</time>
      </trkpt>
      <trkpt lat="43.28202" lon="5.95178">
        <ele>409.91796875</ele>
        <time>2015-05-17T09:39:04Z</time>
      </trkpt>
      <trkpt lat="43.28201" lon="5.95186">
        <ele>409.7578125</ele>
        <time>2015-05-17T09:39:05Z</time>
      </trkpt>
      <trkpt lat="43.282" lon="5.95194">
        <ele>409.60546875</ele>
        <time>2015-05-17T09:39:06Z</time>
      </trkpt>
      <trkpt lat="43.28199" lon="5.95202">
        <ele>409.140625</ele>
        <time>2015-05-17T09:39:07Z</time>
      </trkpt>
      <trkpt lat="43.28197" lon="5.9521">
        <ele>408.6171875</ele>
        <time>2015-05-17T09:39:08Z</time>
      </trkpt>
      <trkpt lat="43.28197" lon="5.95219">
        <ele>408.15234375</ele>
        <time>2015-05-17T09:39:09Z</time>
      </trkpt>
      <trkpt lat="43.28197" lon="5.9526">
        <ele>405.76953125</ele>
        <time>2015-05-17T09:39:13Z</time>
      </trkpt>
      <trkpt lat="43.28198" lon="5.9527">
        <ele>405.66796875</ele>
        <time>2015-05-17T09:39:14Z</time>
      </trkpt>
      <trkpt lat="43.28201" lon="5.9529">
        <ele>405.83984375</ele>
        <time>2015-05-17T09:39:16Z</time>
      </trkpt>
      <trkpt lat="43.28203" lon="5.95319">
        <ele>405.703125</ele>
        <time>2015-05-17T09:39:19Z</time>
      </trkpt>
      <trkpt lat="43.28205" lon="5.95412">
        <ele>405.75</ele>
        <time>2015-05-17T09:39:30Z</time>
      </trkpt>
      <trkpt lat="43.28204" lon="5.9542">
        <ele>405.4765625</ele>
        <time>2015-05-17T09:39:31Z</time>
      </trkpt>
      <trkpt lat="43.28197" lon="5.95463">
        <ele>403.9765625</ele>
        <time>2015-05-17T09:39:37Z</time>
      </trkpt>
      <trkpt lat="43.28193" lon="5.95483">
        <ele>403.125</ele>
        <time>2015-05-17T09:39:40Z</time>
      </trkpt>
      <trkpt lat="43.28191" lon="5.95488">
        <ele>402.71484375</ele>
        <time>2015-05-17T09:39:41Z</time>
      </trkpt>
      <trkpt lat="43.28187" lon="5.955">
        <ele>402.03515625</ele>
        <time>2015-05-17T09:39:43Z</time>
      </trkpt>
      <trkpt lat="43.28177" lon="5.95564">
        <ele>400.59765625</ele>
        <time>2015-05-17T09:39:52Z</time>
      </trkpt>
      <trkpt lat="43.2815" lon="5.95665">
        <ele>399.6953125</ele>
        <time>2015-05-17T09:40:05Z</time>
      </trkpt>
      <trkpt lat="43.28139" lon="5.95716">
        <ele>400.12109375</ele>
        <time>2015-05-17T09:40:15Z</time>
      </trkpt>
      <trkpt lat="43.28134" lon="5.9577">
        <ele>399.62890625</ele>
        <time>2015-05-17T09:40:28Z</time>
      </trkpt>
      <trkpt lat="43.28132" lon="5.95837">
        <ele>399.91796875</ele>
        <time>2015-05-17T09:40:41Z</time>
      </trkpt>
      <trkpt lat="43.28129" lon="5.95853">
        <ele>399.2421875</ele>
        <time>2015-05-17T09:40:44Z</time>
      </trkpt>
      <trkpt lat="43.28126" lon="5.9587">
        <ele>398.1640625</ele>
        <time>2015-05-17T09:40:47Z</time>
      </trkpt>
      <trkpt lat="43.28127" lon="5.959">
        <ele>398.62890625</ele>
        <time>2015-05-17T09:40:53Z</time>
      </trkpt>
      <trkpt lat="43.28124" lon="5.95945">
        <ele>396.890625</ele>
        <time>2015-05-17T09:41:03Z</time>
      </trkpt>
      <trkpt lat="43.28124" lon="5.95951">
        <ele>396.421875</ele>
        <time>2015-05-17T09:41:04Z</time>
      </trkpt>
      <trkpt lat="43.28124" lon="5.95958">
        <ele>396.046875</ele>
        <time>2015-05-17T09:41:05Z</time>
      </trkpt>
      <trkpt lat="43.28124" lon="5.95965">
        <ele>395.8515625</ele>
        <time>2015-05-17T09:41:06Z</time>
      </trkpt>
      <trkpt lat="43.28124" lon="5.95971">
        <ele>395.79296875</ele>
        <time>2015-05-17T09:41:07Z</time>
      </trkpt>
      <trkpt lat="43.28125" lon="5.95977">
        <ele>395.84375</ele>
        <time>2015-05-17T09:41:08Z</time>
      </trkpt>
      <trkpt lat="43.28124" lon="5.95982">
        <ele>395.50390625</ele>
        <time>2015-05-17T09:41:09Z</time>
      </trkpt>
      <trkpt lat="43.28123" lon="5.95988">
        <ele>394.9296875</ele>
        <time>2015-05-17T09:41:10Z</time>
      </trkpt>
      <trkpt lat="43.28122" lon="5.96008">
        <ele>393.90234375</ele>
        <time>2015-05-17T09:41:15Z</time>
      </trkpt>
      <trkpt lat="43.28121" lon="5.9601">
        <ele>393.53125</ele>
        <time>2015-05-17T09:41:16Z</time>
      </trkpt>
      <trkpt lat="43.28118" lon="5.96014">
        <ele>392.4140625</ele>
        <time>2015-05-17T09:41:18Z</time>
      </trkpt>
      <trkpt lat="43.28118" lon="5.96017">
        <ele>392.15625</ele>
        <time>2015-05-17T09:41:19Z</time>
      </trkpt>
      <trkpt lat="43.28118" lon="5.9602">
        <ele>392</ele>
        <time>2015-05-17T09:41:20Z</time>
      </trkpt>
      <trkpt lat="43.28111" lon="5.96053">
        <ele>388.26953125</ele>
        <time>2015-05-17T09:41:29Z</time>
      </trkpt>
      <trkpt lat="43.28116" lon="5.96095">
        <ele>391.0390625</ele>
        <time>2015-05-17T09:41:38Z</time>
      </trkpt>
      <trkpt lat="43.28115" lon="5.96128">
        <ele>391.89453125</ele>
        <time>2015-05-17T09:41:48Z</time>
      </trkpt>
      <trkpt lat="43.28115" lon="5.96146">
        <ele>392.3984375</ele>
        <time>2015-05-17T09:41:57Z</time>
      </trkpt>
      <trkpt lat="43.28115" lon="5.96148">
        <ele>392.2265625</ele>
        <time>2015-05-17T09:41:58Z</time>
      </trkpt>
      <trkpt lat="43.28114" lon="5.96151">
        <ele>391.8984375</ele>
        <time>2015-05-17T09:41:59Z</time>
      </trkpt>
      <trkpt lat="43.28112" lon="5.96154">
        <ele>391.24609375</ele>
        <time>2015-05-17T09:42:00Z</time>
      </trkpt>
      <trkpt lat="43.28111" lon="5.96157">
        <ele>390.6796875</ele>
        <time>2015-05-17T09:42:01Z</time>
      </trkpt>
      <trkpt lat="43.2811" lon="5.96161">
        <ele>390.6640625</ele>
        <time>2015-05-17T09:42:02Z</time>
      </trkpt>
      <trkpt lat="43.2811" lon="5.96165">
        <ele>390.7421875</ele>
        <time>2015-05-17T09:42:03Z</time>
      </trkpt>
      <trkpt lat="43.2811" lon="5.9617">
        <ele>390.5625</ele>
        <time>2015-05-17T09:42:04Z</time>
      </trkpt>
      <trkpt lat="43.2811" lon="5.96175">
        <ele>390.5625</ele>
        <time>2015-05-17T09:42:05Z</time>
      </trkpt>
      <trkpt lat="43.2811" lon="5.9618">
        <ele>390.69921875</ele>
        <time>2015-05-17T09:42:06Z</time>
      </trkpt>
      <trkpt lat="43.28111" lon="5.96185">
        <ele>390.8671875</ele>
        <time>2015-05-17T09:42:07Z</time>
      </trkpt>
      <trkpt lat="43.28111" lon="5.96191">
        <ele>391.015625</ele>
        <time>2015-05-17T09:42:08Z</time>
      </trkpt>
      <trkpt lat="43.28112" lon="5.96203">
        <ele>390.6171875</ele>
        <time>2015-05-17T09:42:10Z</time>
      </trkpt>
      <trkpt lat="43.28111" lon="5.96209">
        <ele>389.98046875</ele>
        <time>2015-05-17T09:42:11Z</time>
      </trkpt>
      <trkpt lat="43.28111" lon="5.96215">
        <ele>389.33203125</ele>
        <time>2015-05-17T09:42:12Z</time>
      </trkpt>
      <trkpt lat="43.28111" lon="5.96221">
        <ele>388.53125</ele>
        <time>2015-05-17T09:42:13Z</time>
      </trkpt>
      <trkpt lat="43.2811" lon="5.96228">
        <ele>387.36328125</ele>
        <time>2015-05-17T09:42:14Z</time>
      </trkpt>
      <trkpt lat="43.28109" lon="5.96234">
        <ele>386.421875</ele>
        <time>2015-05-17T09:42:15Z</time>
      </trkpt>
      <trkpt lat="43.28109" lon="5.9624">
        <ele>385.6640625</ele>
        <time>2015-05-17T09:42:16Z</time>
      </trkpt>
      <trkpt lat="43.2811" lon="5.96246">
        <ele>385.05078125</ele>
        <time>2015-05-17T09:42:17Z</time>
      </trkpt>
      <trkpt lat="43.28112" lon="5.96263">
        <ele>383.8515625</ele>
        <time>2015-05-17T09:42:20Z</time>
      </trkpt>
      <trkpt lat="43.28112" lon="5.9627">
        <ele>383.44140625</ele>
        <time>2015-05-17T09:42:21Z</time>
      </trkpt>
      <trkpt lat="43.28113" lon="5.96276">
        <ele>383.0390625</ele>
        <time>2015-05-17T09:42:22Z</time>
      </trkpt>
      <trkpt lat="43.28114" lon="5.96281">
        <ele>383.15625</ele>
        <time>2015-05-17T09:42:23Z</time>
      </trkpt>
      <trkpt lat="43.28115" lon="5.96285">
        <ele>383.0703125</ele>
        <time>2015-05-17T09:42:24Z</time>
      </trkpt>
      <trkpt lat="43.28115" lon="5.96291">
        <ele>382.34375</ele>
        <time>2015-05-17T09:42:25Z</time>
      </trkpt>
      <trkpt lat="43.28117" lon="5.96297">
        <ele>382.57421875</ele>
        <time>2015-05-17T09:42:26Z</time>
      </trkpt>
      <trkpt lat="43.28119" lon="5.96313">
        <ele>381.4375</ele>
        <time>2015-05-17T09:42:31Z</time>
      </trkpt>
      <trkpt lat="43.28119" lon="5.96314">
        <ele>380.9609375</ele>
        <time>2015-05-17T09:42:32Z</time>
      </trkpt>
      <trkpt lat="43.28117" lon="5.96323">
        <ele>378.01953125</ele>
        <time>2015-05-17T09:42:47Z</time>
      </trkpt>
      <trkpt lat="43.28116" lon="5.96328">
        <ele>375.828125</ele>
        <time>2015-05-17T09:42:55Z</time>
      </trkpt>
      <trkpt lat="43.28116" lon="5.9633">
        <ele>375.26953125</ele>
        <time>2015-05-17T09:42:56Z</time>
      </trkpt>
      <trkpt lat="43.28116" lon="5.96332">
        <ele>374.703125</ele>
        <time>2015-05-17T09:42:57Z</time>
      </trkpt>
      <trkpt lat="43.28115" lon="5.96333">
        <ele>373.96484375</ele>
        <time>2015-05-17T09:42:58Z</time>
      </trkpt>
      <trkpt lat="43.28115" lon="5.96335">
        <ele>373.12890625</ele>
        <time>2015-05-17T09:42:59Z</time>
      </trkpt>
      <trkpt lat="43.28113" lon="5.96341">
        <ele>370.24609375</ele>
        <time>2015-05-17T09:43:03Z</time>
      </trkpt>
      <trkpt lat="43.28112" lon="5.96344">
        <ele>368.625</ele>
        <time>2015-05-17T09:43:04Z</time>
      </trkpt>
      <trkpt lat="43.2811" lon="5.96348">
        <ele>365.84375</ele>
        <time>2015-05-17T09:43:05Z</time>
      </trkpt>
      <trkpt lat="43.28108" lon="5.96353">
        <ele>363.07421875</ele>
        <time>2015-05-17T09:43:06Z</time>
      </trkpt>
      <trkpt lat="43.28106" lon="5.96358">
        <ele>360.83203125</ele>
        <time>2015-05-17T09:43:07Z</time>
      </trkpt>
      <trkpt lat="43.28106" lon="5.96364">
        <ele>358.7734375</ele>
        <time>2015-05-17T09:43:08Z</time>
      </trkpt>
      <trkpt lat="43.28106" lon="5.96369">
        <ele>357.26171875</ele>
        <time>2015-05-17T09:43:09Z</time>
      </trkpt>
      <trkpt lat="43.28107" lon="5.96373">
        <ele>356.20703125</ele>
        <time>2015-05-17T09:43:10Z</time>
      </trkpt>
      <trkpt lat="43.28108" lon="5.96378">
        <ele>355.4140625</ele>
        <time>2015-05-17T09:43:11Z</time>
      </trkpt>
      <trkpt lat="43.28109" lon="5.96382">
        <ele>354.76953125</ele>
        <time>2015-05-17T09:43:12Z</time>
      </trkpt>
      <trkpt lat="43.2811" lon="5.96387">
        <ele>353.9765625</ele>
        <time>2015-05-17T09:43:13Z</time>
      </trkpt>
      <trkpt lat="43.2811" lon="5.96392">
        <ele>352.44921875</ele>
        <time>2015-05-17T09:43:14Z</time>
      </trkpt>
      <trkpt lat="43.28111" lon="5.96399">
        <ele>350.7265625</ele>
        <time>2015-05-17T09:43:15Z</time>
      </trkpt>
      <trkpt lat="43.28124" lon="5.96434">
        <ele>348.8125</ele>
        <time>2015-05-17T09:43:23Z</time>
      </trkpt>
      <trkpt lat="43.28126" lon="5.96438">
        <ele>349.3828125</ele>
        <time>2015-05-17T09:43:24Z</time>
      </trkpt>
      <trkpt lat="43.2813" lon="5.96442">
        <ele>350.9140625</ele>
        <time>2015-05-17T09:43:26Z</time>
      </trkpt>
      <trkpt lat="43.28133" lon="5.96444">
        <ele>351.88671875</ele>
        <time>2015-05-17T09:43:27Z</time>
      </trkpt>
      <trkpt lat="43.28134" lon="5.96447">
        <ele>351.76953125</ele>
        <time>2015-05-17T09:43:28Z</time>
      </trkpt>
      <trkpt lat="43.28135" lon="5.96451">
        <ele>351.38671875</ele>
        <time>2015-05-17T09:43:29Z</time>
      </trkpt>
      <trkpt lat="43.28136" lon="5.96454">
        <ele>350.97265625</ele>
        <time>2015-05-17T09:43:30Z</time>
      </trkpt>
      <trkpt lat="43.28141" lon="5.96469">
        <ele>349.73828125</ele>
        <time>2015-05-17T09:43:37Z</time>
      </trkpt>
      <trkpt lat="43.28142" lon="5.96472">
        <ele>349.83984375</ele>
        <time>2015-05-17T09:43:38Z</time>
      </trkpt>
      <trkpt lat="43.28144" lon="5.96479">
        <ele>350.08984375</ele>
        <time>2015-05-17T09:43:41Z</time>
      </trkpt>
      <trkpt lat="43.28149" lon="5.96485">
        <ele>352.5546875</ele>
        <time>2015-05-17T09:43:59Z</time>
      </trkpt>
      <trkpt lat="43.28145" lon="5.96487">
        <ele>349.20703125</ele>
        <time>2015-05-17T09:44:11Z</time>
      </trkpt>
      <trkpt lat="43.28152" lon="5.96504">
        <ele>352.234375</ele>
        <time>2015-05-17T09:44:21Z</time>
      </trkpt>
      <trkpt lat="43.28154" lon="5.9651">
        <ele>352.51171875</ele>
        <time>2015-05-17T09:44:23Z</time>
      </trkpt>
      <trkpt lat="43.28152" lon="5.96512">
        <ele>350.74609375</ele>
        <time>2015-05-17T09:44:25Z</time>
      </trkpt>
      <trkpt lat="43.2815" lon="5.96511">
        <ele>349.16796875</ele>
        <time>2015-05-17T09:44:28Z</time>
      </trkpt>
      <trkpt lat="43.28151" lon="5.9651">
        <ele>349.84375</ele>
        <time>2015-05-17T09:44:29Z</time>
      </trkpt>
      <trkpt lat="43.28151" lon="5.96508">
        <ele>350.3359375</ele>
        <time>2015-05-17T09:44:30Z</time>
      </trkpt>
      <trkpt lat="43.28148" lon="5.96505">
        <ele>348.328125</ele>
        <time>2015-05-17T09:44:39Z</time>
      </trkpt>
      <trkpt lat="43.28146" lon="5.96504">
        <ele>347.23046875</ele>
        <time>2015-05-17T09:44:40Z</time>
      </trkpt>
      <trkpt lat="43.28145" lon="5.96503">
        <ele>346.1015625</ele>
        <time>2015-05-17T09:44:41Z</time>
      </trkpt>
      <trkpt lat="43.28143" lon="5.96504">
        <ele>344.9296875</ele>
        <time>2015-05-17T09:44:42Z</time>
      </trkpt>
      <trkpt lat="43.28142" lon="5.96505">
        <ele>343.890625</ele>
        <time>2015-05-17T09:44:43Z</time>
      </trkpt>
      <trkpt lat="43.28142" lon="5.96508">
        <ele>343.2890625</ele>
        <time>2015-05-17T09:44:44Z</time>
      </trkpt>
      <trkpt lat="43.28142" lon="5.9651">
        <ele>342.9140625</ele>
        <time>2015-05-17T09:44:45Z</time>
      </trkpt>
      <trkpt lat="43.28142" lon="5.96513">
        <ele>342.34375</ele>
        <time>2015-05-17T09:44:46Z</time>
      </trkpt>
      <trkpt lat="43.28142" lon="5.96515">
        <ele>342.1953125</ele>
        <time>2015-05-17T09:44:47Z</time>
      </trkpt>
      <trkpt lat="43.28143" lon="5.96518">
        <ele>342.0859375</ele>
        <time>2015-05-17T09:44:48Z</time>
      </trkpt>
      <trkpt lat="43.28143" lon="5.96521">
        <ele>341.453125</ele>
        <time>2015-05-17T09:44:49Z</time>
      </trkpt>
      <trkpt lat="43.28142" lon="5.96524">
        <ele>340.5</ele>
        <time>2015-05-17T09:44:50Z</time>
      </trkpt>
      <trkpt lat="43.28141" lon="5.96526">
        <ele>339.359375</ele>
        <time>2015-05-17T09:44:51Z</time>
      </trkpt>
      <trkpt lat="43.2814" lon="5.96529">
        <ele>337.93359375</ele>
        <time>2015-05-17T09:44:52Z</time>
      </trkpt>
      <trkpt lat="43.2814" lon="5.96532">
        <ele>336.69140625</ele>
        <time>2015-05-17T09:44:53Z</time>
      </trkpt>
      <trkpt lat="43.28139" lon="5.96535">
        <ele>335.6015625</ele>
        <time>2015-05-17T09:44:54Z</time>
      </trkpt>
      <trkpt lat="43.28138" lon="5.96537">
        <ele>334.70703125</ele>
        <time>2015-05-17T09:44:55Z</time>
      </trkpt>
      <trkpt lat="43.28138" lon="5.9654">
        <ele>334.171875</ele>
        <time>2015-05-17T09:44:56Z</time>
      </trkpt>
      <trkpt lat="43.28138" lon="5.96542">
        <ele>333.6015625</ele>
        <time>2015-05-17T09:44:57Z</time>
      </trkpt>
      <trkpt lat="43.28139" lon="5.96546">
        <ele>333.52734375</ele>
        <time>2015-05-17T09:44:58Z</time>
      </trkpt>
      <trkpt lat="43.2814" lon="5.96549">
        <ele>333.46484375</ele>
        <time>2015-05-17T09:44:59Z</time>
      </trkpt>
      <trkpt lat="43.28141" lon="5.96553">
        <ele>332.86328125</ele>
        <time>2015-05-17T09:45:00Z</time>
      </trkpt>
      <trkpt lat="43.28141" lon="5.96557">
        <ele>332.40625</ele>
        <time>2015-05-17T09:45:01Z</time>
      </trkpt>
      <trkpt lat="43.28141" lon="5.96561">
        <ele>331.59375</ele>
        <time>2015-05-17T09:45:02Z</time>
      </trkpt>
      <trkpt lat="43.28141" lon="5.96565">
        <ele>330.77734375</ele>
        <time>2015-05-17T09:45:03Z</time>
      </trkpt>
      <trkpt lat="43.28141" lon="5.96568">
        <ele>330.5625</ele>
        <time>2015-05-17T09:45:04Z</time>
      </trkpt>
      <trkpt lat="43.28142" lon="5.96571">
        <ele>330.890625</ele>
        <time>2015-05-17T09:45:05Z</time>
      </trkpt>
      <trkpt lat="43.28143" lon="5.96574">
        <ele>331.5</ele>
        <time>2015-05-17T09:45:06Z</time>
      </trkpt>
      <trkpt lat="43.28144" lon="5.96576">
        <ele>331.49609375</ele>
        <time>2015-05-17T09:45:07Z</time>
      </trkpt>
      <trkpt lat="43.28144" lon="5.96578">
        <ele>330.95703125</ele>
        <time>2015-05-17T09:45:08Z</time>
      </trkpt>
      <trkpt lat="43.28144" lon="5.96583">
        <ele>330.16015625</ele>
        <time>2015-05-17T09:45:09Z</time>
      </trkpt>
      <trkpt lat="43.28144" lon="5.96588">
        <ele>329.22265625</ele>
        <time>2015-05-17T09:45:10Z</time>
      </trkpt>
      <trkpt lat="43.28144" lon="5.96594">
        <ele>328.0390625</ele>
        <time>2015-05-17T09:45:11Z</time>
      </trkpt>
      <trkpt lat="43.28147" lon="5.96627">
        <ele>324.52734375</ele>
        <time>2015-05-17T09:45:18Z</time>
      </trkpt>
      <trkpt lat="43.28148" lon="5.96631">
        <ele>324.546875</ele>
        <time>2015-05-17T09:45:19Z</time>
      </trkpt>
      <trkpt lat="43.28149" lon="5.96633">
        <ele>324.796875</ele>
        <time>2015-05-17T09:45:20Z</time>
      </trkpt>
      <trkpt lat="43.2815" lon="5.96649">
        <ele>322.796875</ele>
        <time>2015-05-17T09:45:24Z</time>
      </trkpt>
      <trkpt lat="43.28149" lon="5.96664">
        <ele>319.1171875</ele>
        <time>2015-05-17T09:45:27Z</time>
      </trkpt>
      <trkpt lat="43.28146" lon="5.96683">
        <ele>313.11328125</ele>
        <time>2015-05-17T09:45:31Z</time>
      </trkpt>
      <trkpt lat="43.28146" lon="5.96705">
        <ele>309.33984375</ele>
        <time>2015-05-17T09:45:36Z</time>
      </trkpt>
      <trkpt lat="43.28148" lon="5.96711">
        <ele>309.97265625</ele>
        <time>2015-05-17T09:45:38Z</time>
      </trkpt>
      <trkpt lat="43.28154" lon="5.9674">
        <ele>307.03125</ele>
        <time>2015-05-17T09:45:44Z</time>
      </trkpt>
      <trkpt lat="43.28156" lon="5.96746">
        <ele>306.6328125</ele>
        <time>2015-05-17T09:45:45Z</time>
      </trkpt>
      <trkpt lat="43.28158" lon="5.96752">
        <ele>306.078125</ele>
        <time>2015-05-17T09:45:46Z</time>
      </trkpt>
      <trkpt lat="43.28159" lon="5.96758">
        <ele>305.42578125</ele>
        <time>2015-05-17T09:45:47Z</time>
      </trkpt>
      <trkpt lat="43.2816" lon="5.96762">
        <ele>304.6328125</ele>
        <time>2015-05-17T09:45:48Z</time>
      </trkpt>
      <trkpt lat="43.28161" lon="5.96767">
        <ele>303.71875</ele>
        <time>2015-05-17T09:45:49Z</time>
      </trkpt>
      <trkpt lat="43.28164" lon="5.96779">
        <ele>301.953125</ele>
        <time>2015-05-17T09:45:51Z</time>
      </trkpt>
      <trkpt lat="43.28165" lon="5.96802">
        <ele>295.11328125</ele>
        <time>2015-05-17T09:45:55Z</time>
      </trkpt>
      <trkpt lat="43.28166" lon="5.96814">
        <ele>291.9921875</ele>
        <time>2015-05-17T09:45:59Z</time>
      </trkpt>
      <trkpt lat="43.2817" lon="5.96829">
        <ele>289.37890625</ele>
        <time>2015-05-17T09:46:11Z</time>
      </trkpt>
      <trkpt lat="43.28171" lon="5.96833">
        <ele>288.49609375</ele>
        <time>2015-05-17T09:46:12Z</time>
      </trkpt>
      <trkpt lat="43.28171" lon="5.96838">
        <ele>287.4140625</ele>
        <time>2015-05-17T09:46:13Z</time>
      </trkpt>
      <trkpt lat="43.28172" lon="5.96843">
        <ele>286.44921875</ele>
        <time>2015-05-17T09:46:14Z</time>
      </trkpt>
      <trkpt lat="43.28172" lon="5.96847">
        <ele>285.62890625</ele>
        <time>2015-05-17T09:46:15Z</time>
      </trkpt>
      <trkpt lat="43.28174" lon="5.96851">
        <ele>285.2421875</ele>
        <time>2015-05-17T09:46:16Z</time>
      </trkpt>
      <trkpt lat="43.28175" lon="5.96854">
        <ele>285.10546875</ele>
        <time>2015-05-17T09:46:17Z</time>
      </trkpt>
      <trkpt lat="43.28177" lon="5.96857">
        <ele>285.328125</ele>
        <time>2015-05-17T09:46:18Z</time>
      </trkpt>
      <trkpt lat="43.28182" lon="5.96861">
        <ele>286.765625</ele>
        <time>2015-05-17T09:46:19Z</time>
      </trkpt>
      <trkpt lat="43.28203" lon="5.9688">
        <ele>293.625</ele>
        <time>2015-05-17T09:46:26Z</time>
      </trkpt>
      <trkpt lat="43.28206" lon="5.96885">
        <ele>294.31640625</ele>
        <time>2015-05-17T09:46:27Z</time>
      </trkpt>
      <trkpt lat="43.28207" lon="5.96889">
        <ele>294.4921875</ele>
        <time>2015-05-17T09:46:28Z</time>
      </trkpt>
      <trkpt lat="43.28204" lon="5.96937">
        <ele>286.703125</ele>
        <time>2015-05-17T09:46:38Z</time>
      </trkpt>
      <trkpt lat="43.28204" lon="5.9695">
        <ele>284.953125</ele>
        <time>2015-05-17T09:46:48Z</time>
      </trkpt>
      <trkpt lat="43.28206" lon="5.96953">
        <ele>285.4140625</ele>
        <time>2015-05-17T09:47:11Z</time>
      </trkpt>
      <trkpt lat="43.28189" lon="5.96968">
        <ele>279.0390625</ele>
        <time>2015-05-17T09:47:23Z</time>
      </trkpt>
      <trkpt lat="43.2817" lon="5.96965">
        <ele>276.26171875</ele>
        <time>2015-05-17T09:47:33Z</time>
      </trkpt>
      <trkpt lat="43.28147" lon="5.96946">
        <ele>274.5390625</ele>
        <time>2015-05-17T09:47:43Z</time>
      </trkpt>
      <trkpt lat="43.28142" lon="5.96941">
        <ele>274.16015625</ele>
        <time>2015-05-17T09:47:47Z</time>
      </trkpt>
      <trkpt lat="43.28136" lon="5.96885">
        <ele>276.05859375</ele>
        <time>2015-05-17T09:47:56Z</time>
      </trkpt>
      <trkpt lat="43.28117" lon="5.96819">
        <ele>278.85546875</ele>
        <time>2015-05-17T09:48:10Z</time>
      </trkpt>
      <trkpt lat="43.2812" lon="5.9679">
        <ele>281.0859375</ele>
        <time>2015-05-17T09:48:19Z</time>
      </trkpt>
      <trkpt lat="43.28128" lon="5.96776">
        <ele>285.34375</ele>
        <time>2015-05-17T09:48:23Z</time>
      </trkpt>
      <trkpt lat="43.28129" lon="5.96771">
        <ele>286.41796875</ele>
        <time>2015-05-17T09:48:24Z</time>
      </trkpt>
      <trkpt lat="43.28129" lon="5.96767">
        <ele>287.375</ele>
        <time>2015-05-17T09:48:25Z</time>
      </trkpt>
      <trkpt lat="43.28129" lon="5.96763">
        <ele>287.9375</ele>
        <time>2015-05-17T09:48:26Z</time>
      </trkpt>
      <trkpt lat="43.28117" lon="5.96741">
        <ele>283.875</ele>
        <time>2015-05-17T09:48:33Z</time>
      </trkpt>
      <trkpt lat="43.28116" lon="5.96738">
        <ele>283.68359375</ele>
        <time>2015-05-17T09:48:34Z</time>
      </trkpt>
      <trkpt lat="43.28115" lon="5.96735">
        <ele>283.87109375</ele>
        <time>2015-05-17T09:48:35Z</time>
      </trkpt>
      <trkpt lat="43.28116" lon="5.96731">
        <ele>284.53125</ele>
        <time>2015-05-17T09:48:36Z</time>
      </trkpt>
      <trkpt lat="43.28117" lon="5.96728">
        <ele>285.625</ele>
        <time>2015-05-17T09:48:37Z</time>
      </trkpt>
      <trkpt lat="43.28118" lon="5.96724">
        <ele>286.66015625</ele>
        <time>2015-05-17T09:48:38Z</time>
      </trkpt>
      <trkpt lat="43.28118" lon="5.96721">
        <ele>287.6484375</ele>
        <time>2015-05-17T09:48:39Z</time>
      </trkpt>
      <trkpt lat="43.28123" lon="5.96696">
        <ele>294.953125</ele>
        <time>2015-05-17T09:48:50Z</time>
      </trkpt>
      <trkpt lat="43.28114" lon="5.96688">
        <ele>290.71484375</ele>
        <time>2015-05-17T09:49:04Z</time>
      </trkpt>
      <trkpt lat="43.2811" lon="5.96691">
        <ele>288.6796875</ele>
        <time>2015-05-17T09:49:30Z</time>
      </trkpt>
      <trkpt lat="43.28107" lon="5.96693">
        <ele>287.8828125</ele>
        <time>2015-05-17T09:50:02Z</time>
      </trkpt>
    </trkseg>
  </trk>
</gpx>